     2.10           OBSERVATION DATA    G (GPS)             RINEX VERSION / TYPE
teqc 2000Jul20 Karen Wendt 20040525 20:58:29UTC             PGM / RUN BY / DATE
Linux 2.0.36|Pentium II|gcc -static|Linux|486/DX+           COMMENT
teqc 2000Jul20 Karen Wendt 20040525 20:58:29UTC             COMMENT
BIT 2 OF LLI FLAGS DATA COLLECTED UNDER A/S CONDITION       COMMENT
sage Sage_1966_Calif_Div_Hwys                               MARKER NAME
GDH USGS                                                    OBSERVER / AGENCY
04600 ASHTECH Z-XII3 CD00                                   REC # / TYPE / VERS
CR620022602 ASH701945E_M NONE                               ANT # / TYPE
 -2457268.0000 -4249459.0000  4061155.0000                  APPROX POSITION XYZ
        1.1742        0.0000        0.0000                  ANTENNA: DELTA H/E/N
     1     1                                                WAVELENGTH FACT L1/2
     5    C1    L1    L2    P1    P2                        # / TYPES OF OBSERV
    30.0000                                                 INTERVAL
                                                            COMMENT
National Earthquake Hazard Reduction Program                COMMENT
Crustal Strain Project                                      COMMENT
345 Middlefield Road, MS/977                                COMMENT
U.S. Geological Survey, Menlo Park, California 94025        COMMENT
Contact: kwendt@usgs.gov (Ph: 650-329-4866)                 COMMENT
Antenna height is vertical to base of antenna               COMMENT
                                                            COMMENT
SNR is mapped to RINEX snr flag value [1-9]                 COMMENT
L1: 1 -> 1; 90 -> 5; 210 -> 9                               COMMENT
L2: 1 -> 1; 150 -> 5; 250 -> 9                              COMMENT
  2004     5    20    15    53   30.0000000     GPS         TIME OF FIRST OBS
                                                            END OF HEADER
 04  5 20 15 53 30.0000000  0  6G17G30G 6G29G24G10
  21864531.671      225251.77249    159565.81047  21864531.200
  21864538.551      267411.18849    198317.56643
  20741174.038       -9797.06649     -7320.40247  20741174.124
  20741180.304      -42461.27749    -26849.51743
                     81906.14349     41224.13943
                    213850.79949    156616.14243
 04  5 20 15 53 59.9990000  0  5G17G30G 6G24G10
  21579936.240      305113.24649    221795.51547  21579935.951
  21579943.169      360192.83449     44147.18043
  20440218.414      -15908.80349    -12082.79148  20440218.631    20440224.812
                    191643.82349    126733.82043
                    286066.35049     34198.52946                  21227629.758
 04  5 20 15 54 30.0000000  0  7G17G21G30G 6G29G24G10
  21674486.124     -773444.09149   -618638.80247  21674485.796
  21674492.973    -1207577.94249   -934776.91446                  22459793.483
                   -705181.50849   -785597.39443
  20518431.670    -1180315.77749   -919412.90348  20518431.845    20518438.023
                  -1305533.52149  -1011061.56544                  24283969.702
                   -857253.21249   -690588.76343
  21320787.171     -799774.34649   -811911.10947  21320786.657    21320793.639
 04  5 20 15 55  0.0000000  0  7G17G21G30G 6G29G24G10
  21685268.428     -716783.07649   -574487.37847  21685268.051    21685275.257
  22446402.815    -1277917.76849   -989587.15046  22446402.479    22446408.180
                   -635076.47149   -730452.67443
  20512902.115    -1209374.00749   -942055.67448  20512902.253    20512908.416
  24269579.197    -1381110.09649  -1069952.31945  24269577.381    24269588.584
  24612361.713     -771148.88749   -623494.57244  24612364.635    24612372.807
  21330252.346     -750034.76349   -773153.01247  21330251.784    21330258.801
 04  5 20 15 55 30.0000000  0  7G17G21G30G 6G29G24G10
  21696084.319     -659945.15249   -530198.11047  21696083.994    21696091.186
  22433054.190    -1348063.91949  -1044246.43246  22433054.030    22433059.835
                   -564534.63249   -894009.89543
  20507431.125    -1238124.43649   -964458.61348  20507431.251    20507437.401
  24255224.938    -1456537.76649  -1128727.00545  24255224.458    24255234.028
  24628739.914     -685082.96549   -556430.32345  24628741.457    24628750.202
  21339819.797     -699757.37349   -733975.86247  21339819.221    21339826.325
 04  5 20 15 56  0.0000000  0  7G17G21G30G 6G29G24G10
  21706937.758     -602910.13249   -485755.25847  21706937.450    21706944.641
  22419746.468    -1417995.10649  -1098738.25146  22419746.542    22419752.426
                   -493536.95249   -838879.69643
  20502023.022    -1266544.39149   -986604.01648  20502023.135    20502029.319
  24240904.263    -1531792.38949  -1187366.80545  24240903.952    24240913.549
  24645114.531     -599035.24049   -489380.24945  24645114.481    24645124.786
  21349493.222     -648922.84549   -694364.53547  21349492.684    21349499.834
 04  5 20 15 56 30.0000000  0  7G17G21G30G 6G29G24G10
  21717827.464     -545684.62649   -441163.98147  21717827.151    21717834.317
  22406479.161    -1487716.41149  -1153066.50146  22406478.997    22406484.913
                   -422091.37249   -783725.22043
  20496677.005    -1294637.84649  -1008495.01648  20496677.116    20496683.308
  24226616.235    -1606876.16249  -1245873.52945  24226616.212    24226625.696
  24661484.547     -513011.77649   -422349.07745  24661485.119    24661494.458
  21359271.311     -597538.89249   -654325.11047  21359270.754    21359277.933
 04  5 20 15 57  0.0000000  0  7G17G21G30G 6G29G24G10
  21728752.615     -488272.84349   -396427.55447  21728752.278    21728759.465
  22393251.151    -1557230.47449  -1207233.28046  22393250.935    22393256.880
                   -350203.23149   -934739.16046                  21273911.846
  20491392.852    -1322406.40149  -1030132.84848  20491392.974    20491399.156
  24212360.790    -1681789.20849  -1304247.26645  24212360.882    24212370.012
  24677849.079     -427016.56249   -355339.93145  24677849.400    24677858.852
  21369152.879     -545610.85749   -613861.71947  21369152.324    21369159.533
 04  5 20 15 57 30.0000000  0  7G17G21G30G 6G29G24G10
  21739713.192     -430674.96649   -351546.13347  21739712.850    21739720.075
  22380062.753    -1626536.08949  -1261237.62746  22380062.515    22380068.493
  21287668.666     -277874.18049   -878378.91047  21287669.283    21287675.711
  20486170.956    -1349847.83849  -1051515.78848  20486171.079    20486177.254
  24198138.451    -1756527.46349  -1362484.74045  24198138.537    24198147.784
  24694208.347     -341048.99749   -288352.31344  24694208.754    24694217.915
  21379137.817     -493139.74849   -572975.15747  21379137.261    21379144.520
 04  5 20 15 58  0.0000000  0  7G17G21G30G 6G29G24G10
  21750709.143     -372890.76349   -306519.50947  21750708.857    21750716.082
  22366914.328    -1695631.35849  -1315078.06246  22366914.068    22366920.105
  21301516.213     -205105.11449   -821675.78247  21301516.797    21301523.261
  20481011.897    -1376959.12949  -1072641.46748  20481011.990    20481018.144
  24183950.010    -1831086.42849  -1420582.45745  24183950.111    24183959.592
  24710562.571     -255108.20749   -221385.54344  24710562.914    24710572.111
  21389226.040     -440126.02049   -531665.77347  21389225.467    21389232.745
 04  5 20 15 58 30.0000000  0  7G17G21G30G 6G29G24G10
  21761740.097     -314922.81649   -261349.70947  21761739.811    21761747.074
  22353805.655    -1764517.75249  -1368755.74146  22353805.402    22353811.446
  21315446.760     -131899.90849   -764632.80847  21315447.313    21315453.761
  20475915.613    -1403740.38249  -1093509.97048  20475915.709    20475921.874
  24169796.235    -1905464.60949  -1478539.33345  24169796.428    24169806.065
  24726911.063     -169196.49249   -154441.46244  24726911.205    24726920.854
  21399416.714     -386573.83349   -489936.80847  21399416.172    21399423.406
 04  5 20 15 59  0.0000000  0  7G17G21G30G 6G29G24G10
  21772806.308     -256769.84049   -216035.73747  21772806.020    21772813.302
  22340737.184    -1833192.64949  -1422268.61246  22340736.950    22340743.047
  21329460.250      -58258.86049   -707250.21647  21329460.791    21329467.210
  20470882.789    -1430188.08449  -1114118.56948  20470882.893    20470889.080
  24155678.043    -1979656.29549  -1536350.93945  24155678.212    24155687.828
  24743254.493      -83311.95249    -87518.53944  24743254.830    24743264.245
  21409709.911     -332483.05349   -447788.16647  21409709.337    21409716.573
 04  5 20 15 59 30.0000000  0  7G17G21G30G 6G29G24G10
  21783907.273     -198434.23549   -170579.45147  21783906.975    21783914.300
  22327708.852    -1901656.73349  -1475617.21746  22327708.659    22327714.756
  21343556.064       15814.65449   -649530.64047  21343556.603    21343562.984
  20465913.524    -1456301.75849  -1134466.88648  20465913.633    20465919.822
  24141595.614    -2053659.68649  -1594015.79345  24141595.712    24141605.157
  24759592.477        2543.47749    -20618.25444  24759592.419    24759602.123
  21420104.923     -277856.60049   -405222.11647  21420104.380    21420111.647
 04  5 20 16  0  0.0000000  0  7G17G21G30G 6G29G24G10
  21795042.508     -139918.55049   -124982.84447  21795042.236    21795049.541
  22314720.349    -1969911.72149  -1528802.89246  22314720.131    22314726.188
  21357733.272       90316.13149   -591477.58747  21357733.798    21357740.192
  20461007.761    -1482081.71949  -1154555.16848  20461007.889    20461014.086
  24127549.352    -2127473.40549  -1651532.84445  24127549.385    24127558.788
  24775924.268       88367.19549     46257.26845  24775924.544    24775933.861
  21430601.080     -222698.94849   -362242.13847  21430600.584    21430607.855
 04  5 20 16  0 30.0000000  0  8G17G21G30G 6G29G24G10G 5
  21806211.887      -81223.25849    -79246.28847  21806211.614    21806218.927
  22301771.984    -2037955.94449  -1581824.32546  22301771.745    22301777.745
  21371991.635      165244.09449   -533092.20347  21371992.148    21371998.530
  20456166.034    -1507525.48849  -1174381.47848  20456166.161    20456172.363
  24113539.832    -2201093.58849  -1708899.07845  24113539.923    24113549.383
  24792250.125      174159.48649    113108.29945  24792250.542    24792259.689
  21441198.167     -167011.07949   -318849.01647  21441197.648    21441204.929
                  -1261356.363 9   1155851.393 1
 04  5 20 16  1  0.0000000  0  8G17G21G30G 6G29G24G10G 5
  21817415.325      -22348.76749    -33370.08747  21817415.078    21817422.405
  22288863.819    -2105788.89849  -1634681.14446  22288863.581    22288869.520
  21386330.889      240596.89349   -474375.78447  21386331.401    21386337.766
  20451388.604    -1532631.15849  -1193944.33748  20451388.718    20451394.916
  24099567.717    -2274516.50649  -1766111.58345  24099567.817    24099577.419
  24808570.155      259920.42649    179934.94944  24808570.335    24808579.258
  21451895.846     -110794.65049   -275044.02547  21451895.322    21451902.606
                  -1151880.28049   -931226.60843
 04  5 20 16  1 30.0000000  0  8G17G21G30G 6G29G24G10G 5
  21828652.563       36703.15649     12644.36647  21828652.318    21828659.671
  22275995.746    -2173410.98649  -1687373.65346  22275995.509    22276001.420
  21400750.314      316371.05949   -415331.02647  21400750.818    21400757.197
  20446675.662    -1557397.94849  -1213243.13548  20446675.781    20446682.000
  24085633.650    -2347739.50949  -1823168.33745  24085633.694    24085643.377
  24824883.768      345648.99949    246736.34344  24824884.029    24824892.973
  21462693.456      -54052.76049   -230829.58647  21462692.967    21462700.263
                  -1042343.50649   -845873.32045                  23963967.254
 04  5 20 16  2  0.0000000  0  8G17G21G30G 6G29G24G10G 5
  21839923.315       95931.09949     58795.97747  21839923.056    21839930.414
  22263167.817    -2240822.25249  -1739901.88046  22263167.610    22263173.470
  21415249.370      392563.81049   -355960.10147  21415249.851    21415256.269
  20442027.364    -1581824.94849  -1232277.16048  20442027.489    20442033.726
  24071738.092    -2420760.05349  -1880067.31945  24071738.142    24071747.935
  24841191.120      431344.56249    313512.00744  24841191.761    24841200.287
  21473590.632        3212.02149   -186207.70247  21473590.133    21473597.430
  23984812.878     -932749.31349   -760475.31745  23984813.159    23984821.886
 04  5 20 16  2 30.0000000  0  8G17G21G30G 6G29G24G10G 5
  21851227.311      155333.84849    105083.80547  21851227.060    21851234.425
  22250379.974    -2308022.61349  -1792265.76846  22250379.803    22250385.655
  21429827.536      469172.32749   -296265.20947  21429828.039    21429834.492
  20437444.004    -1605910.82749  -1251045.37748  20437444.122    20437450.341
  24057881.834    -2493575.36949  -1936806.38445  24057881.875    24057891.546
  24857492.235      517006.14349    380261.25144  24857492.746    24857501.011
  21484586.862       60997.43749   -141180.12747  21484586.370    21484593.671
  24005678.116     -823100.06449   -675034.38545  24005678.995    24005687.336
 04  5 20 16  3  0.0000000  0  8G17G21G30G 6G29G24G10G 5
  21862564.304      214910.17949    151506.90047  21862564.062    21862571.445
  22237632.402    -2375011.86049  -1844465.16346  22237632.218    22237638.078
  21444484.279      546194.07049   -236248.31347  21444484.782    21444491.326
  20432925.795    -1629654.29049  -1269546.77148  20432925.920    20432932.132
  24044065.189    -2566182.34049  -1993383.06845  24044065.170    24044074.653
  24873786.580      602632.65849    446983.09744  24873786.866    24873795.406
  21495681.767      119301.11749    -95748.70247  21495681.269    21495688.538
  24026553.984     -713398.67149   -589552.81845  24026554.223    24026562.801
 04  5 20 16  3 30.0000000  0  9G17G21G30G 6G29G24G10G18G 5
  21873934.092      274658.65649    198064.11947  21873933.851    21873941.229
  22224925.031    -2441789.83749  -1896499.92647  22224924.834    22224930.659
  21459219.096      623626.02449   -175911.77947  21459219.611    21459226.237
  20428472.975    -1653054.24249  -1287780.49448  20428473.092    20428479.319
  24030288.597    -2638578.26749  -2049795.33045  24030288.617    24030297.957
  24890073.892      688223.36449    513677.07544  24890074.230    24890083.189
  21506874.725      178120.02749    -49915.80947  21506874.201    21506881.439
  24420456.734    -1643082.31249  -1256258.50645  24420454.021    24420464.596
  24047439.114     -603647.86849   -504032.77345  24047439.054    24047447.770
 04  5 20 16  4  0.0000000  0  9G17G21G30G 6G29G26G10G18G 5
  21885336.775      334579.98849    244756.03747  21885336.537    21885343.911
  22212258.129    -2508354.85949  -1948368.75047  22212257.954    22212263.796
  21474031.889      701467.41049   -115256.20147  21474032.387    21474039.038
  20424086.073    -1676107.57649  -1305744.13348  20424086.199    20424092.423
  24016553.118    -2710758.23649  -2106039.33945  24016553.206    24016562.508
  24376444.404    -3013738.89649  -2336155.70445  24376444.680    24376455.068
  21518165.572      237453.73949     -3681.76347  21518165.064    21518172.323
  24399315.181    -1754184.46549  -1342831.53745  24399313.767    24399323.199
  24068333.159     -493848.84149   -418475.12945  24068333.159    24068341.825
 04  5 20 16  4 30.0000000  0  8G17G21G 6G29G26G10G18G 5
  21896773.800      394681.85249    291588.62447  21896773.569    21896780.938
  22199633.503    -2574697.64449  -2000064.40447  22199633.314    22199639.205
  20419767.076    -1698804.09849  -1323429.73548  20419767.189    20419773.431
  24002860.930    -2782710.56949  -2162105.94145  24002861.075    24002870.429
  24358312.123    -3109023.68449  -2410403.41445  24358312.331    24358322.893
  21529555.639      297308.87349     42958.57747  21529555.139    21529562.402
  24378188.436    -1865203.72849  -1429339.99545  24378186.262    24378195.934
  24089237.784     -383995.05749   -332874.84745  24089237.658    24089246.391
 04  5 20 16  5  0.0000000  0  8G17G21G 6G29G26G10G18G 5
  21908243.659      454956.10549    338555.54847  21908243.399    21908250.800
  22187049.791    -2640825.39549  -2051592.49047  22187049.605    22187055.529
  20415514.889    -1721149.56649  -1340841.78148  20415515.023    20415521.260
  23989211.388    -2854439.38249  -2217998.32845  23989211.525    23989220.779
  24340194.969    -3204229.38149  -2484589.59345  24340195.204    24340205.756
  21541043.136      357675.71749     89997.65447  21541042.627    21541049.871
  24357076.742    -1976145.24449  -1515787.84445  24357075.627    24357084.519
  24110150.893     -274096.31349   -247239.51745  24110150.570    24110159.467
 04  5 20 16  5 30.0000000  0  9G17G30G21G 6G29G26G10G18G 5
  21919744.501      515393.24149    385649.39347  21919744.227    21919751.614
                  -1203838.82549   -954344.57643
  22174505.467    -2706746.20049  -2102959.32547  22174505.290    22174511.211
  20411328.199    -1743151.04949  -1357985.79748  20411328.321    20411334.539
  23975603.301    -2925949.85849  -2273720.62745  23975603.465    23975612.718
  24322092.086    -3299361.06449  -2558718.05045  24322092.325    24322102.759
  21552625.856      418543.29649    137426.91547  21552625.368    21552632.611
  24335978.594    -2087015.28749  -1602180.00945  24335977.913    24335986.725
  24131070.453     -164163.24249   -161577.42045  24131070.187    24131079.159
 04  5 20 16  6  0.0000000  0  9G17G30G21G 6G29G26G10G18G 5
  21931276.685      575995.28349    432871.72647  21931276.423    21931283.833
                  -1124385.58849   -892433.03146                  21534064.766
  22162001.163    -2772456.50849  -2154162.13847  22162000.986    22162006.952
  20407207.761    -1764803.98249  -1374858.21348  20407207.874    20407214.110
  23962037.818    -2997235.86449  -2329268.04045  23962038.027    23962047.236
  24304004.411    -3394411.91349  -2632783.50745  24304004.498    24304015.209
  21564304.073      479912.59749    185247.12847  21564303.603    21564310.840
  24314895.251    -2197808.21449  -1688512.08945  24314894.878    24314903.601
  24151996.777      -54195.52249    -75888.34045  24151996.500    24152005.434
 04  5 20 16  6 30.0000000  0  9G17G30G21G 6G29G26G10G18G 5
  21942840.324      636762.77149    480222.98747  21942840.118    21942847.593
  21549251.482    -1044538.41249   -830214.50947  21549251.803    21549258.717
  22149537.157    -2837954.95749  -2205199.86247  22149537.005    22149543.032
  20403154.181    -1786105.66049  -1391456.92748  20403154.320    20403160.586
  23948515.999    -3068293.15549  -2384637.21245  23948516.057    23948525.375
  24285932.820    -3489377.30449  -2706782.33845  24285932.889    24285943.673
  21576077.595      541782.52049    233457.43447  21576077.083    21576084.311
  24293827.359    -2308520.41449  -1774781.26545  24293827.163    24293835.856
  24172929.255       55805.51849      9826.70445  24172928.999    24172937.991
 04  5 20 16  7  0.0000000  0  9G17G30G21G 6G29G26G10G18G 5
  21954435.154      697694.06149    527701.88547  21954434.941    21954442.477
  21564519.731     -964300.28649   -767691.34847  21564520.703    21564527.528
  22137113.472    -2903241.65549  -2256072.57947  22137113.305    22137119.344
  20399167.602    -1807055.28649  -1407781.31248  20399167.740    20399174.024
  23935038.283    -3139119.03249  -2439826.06845  23935038.367    23935047.567
  24267878.160    -3584254.07849  -2780712.16845  24267878.437    24267889.034
  21587945.770      604150.14649    282055.56547  21587945.257    21587952.533
  24272775.171    -2419150.04749  -1860986.09245  24272774.997    24272783.686
  24193867.615      165836.84649     95565.37545  24193867.265    24193876.327
 04  5 20 16  7 30.0000000  0  9G17G30G21G 6G29G26G10G18G 5
  21966060.284      758783.83349    575304.27147  21966060.003    21966067.553
  21579861.845     -883678.13249   -704868.94747  21579862.672    21579869.468
  22124729.378    -2968320.66249  -2306783.47247  22124729.209    22124735.222
  20395247.515    -1827655.67049  -1423833.56148  20395247.644    20395253.932
  23921604.174    -3209714.71149  -2494835.56545  23921604.309    23921613.486
  24249840.351    -3679042.96349  -2854573.54145  24249840.755    24249851.196
  21599907.417      667008.76249    331036.28147  21599906.895    21599914.219
  24251738.476    -2529699.05349  -1947128.12345  24251738.291    24251746.924
  24214810.521      275891.92249    181322.51245  24214810.166    24214819.269
 04  5 20 16  8  0.0000000  0  9G17G30G21G 6G29G26G10G18G 5
  21977715.971      820034.82749    623032.29247  21977715.744    21977723.319
  21595277.237     -802670.76849   -641746.38747  21595277.910    21595284.668
  22112385.574    -3033187.97249  -2357329.40647  22112385.404    22112391.325
  20391394.822    -1847901.71449  -1439609.70348  20391394.971    20391401.271
  23908215.178    -3280073.32849  -2549660.34045  23908215.357    23908224.617
  24231820.726    -3773736.84749  -2928360.88945  24231821.109    24231831.389
  21611962.678      730359.63549    380400.57747  21611962.150    21611969.542
  24230718.213    -2640161.29249  -2033202.53045  24230718.013    24230726.740
  24235758.102      385972.04149    267099.17745  24235757.834    24235766.860
 04  5 20 16  8 30.0000000  0  9G17G30G21G 6G29G26G10G18G 5
  21989402.645      881448.56349    670887.12547  21989402.423    21989410.067
  21610765.810     -721278.31249   -578323.76047  21610766.438    21610773.165
  22100082.587    -3097840.81449  -2407708.21947  22100082.431    22100088.319
  20387610.345    -1867789.41549  -1455106.62048  20387610.491    20387616.788
  23894872.398    -3350189.44349  -2604296.14445  23894872.564    23894881.827
  24213820.312    -3868329.48349  -3002069.29945  24213820.591    24213830.945
  21624111.667      794202.97849    430148.61247  21624111.159    21624118.541
  24209715.304    -2750531.94549  -2119205.56045  24209715.343    24209723.996
  24256710.449      496077.09749    352895.28045  24256710.199    24256719.349
 04  5 20 16  9  0.0000000  0  9G17G30G21G 6G29G26G10G18G 5
  22001120.440      943025.83949    718869.39647  22001120.221    22001127.917
  21626327.416     -639501.66949   -514601.75147  21626328.025    21626334.739
  22087820.809    -3162277.24349  -2457918.39247  22087820.630    22087826.517
  20383894.623    -1887315.65349  -1470321.86848  20383894.783    20383901.073
  23881576.705    -3420058.10549  -2658739.12645  23881576.938    23881586.230
  24195839.985    -3962815.75149  -3075694.77245  24195840.249    24195850.802
  21636354.305      858538.17249    480279.91247  21636353.784    21636361.121
  24188730.626    -2860807.04249  -2205134.14445  24188730.650    24188739.337
  24277667.350      606206.44749    438710.29945  24277667.080    24277676.483
 04  5 20 16  9 30.0000000  0  9G17G30G21G 6G29G26G10G18G 5
  22012869.192     1004765.54449    766978.23847  22012868.978    22012876.664
  21641961.592     -557343.78449   -450582.66147  21641962.201    21641968.866
  22075600.179    -3226497.27649  -2507959.94747  22075600.000    22075605.855
  20380247.939    -1906479.30149  -1485254.58348  20380248.098    20380254.400
  23868328.842    -3489676.38249  -2712987.03645  23868329.059    23868338.334
  24177880.838    -4057191.99449  -3149234.54645  24177881.171    24177891.537
  21648690.044      923362.63449    530792.46047  21648689.514    21648696.845
  24167764.813    -2970983.86749  -2290986.15145  24167764.794    24167773.370
  24298628.432      716357.32949    524542.08845  24298628.149    24298637.654
 04  5 20 16 10  0.0000000  0  9G17G30G21G 6G29G26G10G18G 5
  22024648.456     1066665.68349    815212.08846  22024648.243    22024655.924
  21657667.740     -474807.89349   -386269.03347  21657668.328    21657674.978
  22063420.655    -3290501.16249  -2557833.08847  22063420.482    22063426.318
  20376670.380    -1925279.56949  -1499904.14148  20376670.534    20376676.834
  23855128.805    -3559042.25949  -2767038.28945  23855129.078    23855138.220
  24159943.061    -4151455.62649  -3222686.58545  24159943.380    24159953.770
  21661118.221      988672.88549    581683.54047  21661117.670    21661124.995
  24146817.677    -3081061.57549  -2376760.91345  24146817.706    24146826.123
  24319592.997      826526.81649    610388.40845  24319592.796    24319602.277
 04  5 20 16 10 30.0000000  0  9G17G30G21G 6G29G26G10G18G 5
  22036458.052     1128725.08849    863570.03447  22036457.817    22036465.454
  21673445.158     -391897.46749   -321663.55447  21673445.726    21673452.384
  22051282.158    -3354289.28149  -2607538.07747  22051281.975    22051287.802
  20373162.118    -1943715.73149  -1514269.98248  20373162.273    20373168.590
  23841977.422    -3628153.13449  -2820890.85745  23841977.652    23841986.745
  24142027.392    -4245603.71449  -3296048.55145  24142027.662    24142037.877
  21673638.220     1054465.83649    632950.76647  21673637.713    21673645.001
  24125889.658    -3191038.30349  -2462456.98445  24125889.804    24125898.101
  24340560.417      936711.43949    696246.46945  24340560.300    24340569.905
 04  5 20 16 11  0.0000000  0  9G17G30G21G 6G29G26G10G18G 5
  22048297.638     1190942.02849    912050.73546  22048297.371    22048304.940
  21689293.226     -308615.45349   -256768.52647  21689293.794    21689300.515
  22039184.650    -3417861.86949  -2657075.13147  22039184.480    22039190.327
  20369723.263    -1961786.83349  -1528351.36248  20369723.434    20369729.764
  23828875.051    -3697006.45549  -2874542.71045  23828875.204    23828884.267
  24124134.182    -4339632.86549  -3369317.86845  24124134.479    24124144.594
  21686249.629     1120738.81649    684592.02347  21686249.102    21686256.398
  24104981.409    -3300911.81849  -2548072.63145  24104981.598    24104989.820
  24361530.477     1046908.43149    782114.22145  24361530.123    24361539.795
 04  5 20 16 11 30.0000000  0  9G17G30G21G 6G29G26G10G18G 5
  22060166.877     1253315.11049    960653.11046  22060166.654    22060174.189
  21705211.307     -224965.53349   -191586.82747  21705211.884    21705218.616
  22027128.171    -3481219.35849  -2706444.57647  22027127.987    22027133.791
  20366354.058    -1979492.31149  -1542147.83748  20366354.246    20366360.555
  23815822.148    -3765599.79349  -2927991.97745  23815822.270    23815831.309
  24106264.019    -4433540.50549  -3442492.52445  24106264.311    24106274.186
  21698951.679     1187488.32349    736604.60447  21698951.159    21698958.440
  24084093.130    -3410681.03449  -2633607.01245  24084093.090    24084101.418
  24382502.125     1157114.64849    867989.12445  24382501.766    24382511.522
 04  5 20 16 12  0.0000000  0  9G17G30G21G 6G29G26G10G18G 5
  22072065.659     1315843.39049   1009376.41446  22072065.417    22072072.933
  21721199.019     -140949.81249   -126120.07147  21721199.606    21721206.348
  22015112.637    -3544361.46549  -2755646.19347  22015112.415    22015118.202
  20363054.725    -1996830.68349  -1555658.25848  20363054.900    20363061.210
  23802819.210    -3833929.90149  -2981236.17845  23802819.431    23802828.399
  24088417.605    -4527322.77349  -3515569.46645  24088417.786    24088427.806
  21711743.974     1254712.13549    788986.77347  21711743.473    21711750.710
  24063225.161    -3520343.10449  -2719057.88645  24063224.966    24063233.341
  24403475.019     1267327.81549    953869.45445  24403474.636    24403484.530
 04  5 20 16 12 30.0000000  0  9G17G30G21G 6G29G26G10G18G 5
  22083993.820     1378526.16349   1058220.09646  22083993.579    22084001.085
  21737255.813      -56571.20549    -60370.55647  21737256.380    21737263.114
  22003138.103    -3607287.81249  -2804679.69147  22003137.945    22003143.677
  20359825.565    -2013800.26849  -1568881.30748  20359825.746    20359832.016
  23789867.161    -3901993.73549  -3034272.88845  23789867.427    23789876.112
  24070595.593    -4620975.80649  -3588545.68645  24070595.794    24070606.081
  21724626.082     1322407.76849    841736.59047  21724625.584    21724632.773
  24042378.008    -3629895.50549  -2804423.29645  24042377.788    24042386.242
  24424448.751     1377545.42849   1039753.23245  24424448.536    24424458.347
 04  5 20 16 13  0.0000000  0  9G17G30G21G 6G29G26G10G18G 5
  22095951.202     1441362.56349   1107183.48846  22095950.962    22095958.487
  21753381.167       28167.63849      5659.66247  21753381.747    21753388.421
  21991204.735    -3669998.11249  -2853544.83947  21991204.586    21991210.280
  20356666.769    -2030399.89049  -1581816.08348  20356666.953    20356673.206
  23776966.280    -3969788.19549  -3087099.65245  23776966.519    23776975.188
  24052799.018    -4714496.29749  -3661418.67245  24052799.365    24052809.401
  21737597.561     1390573.12349    894852.42547  21737597.055    21737604.218
  24021552.019    -3739336.13649  -2889701.64145  24021551.876    24021560.102
  24445422.969     1487765.31649   1125638.78345  24445422.616    24445432.624
 04  5 20 16 13 30.0000000  0  9G17G30G21G 6G29G26G10G18G 5
  22107937.562     1504351.15149   1156265.47246  22107937.343    22107944.844
  21769574.553      113263.83749     71968.33747  21769575.097    21769581.735
  21979312.500    -3732492.36749  -2902241.63847  21979312.349    21979317.982
  20353578.604    -2046628.50949  -1594461.76048  20353578.791    20353585.018
  23764117.136    -4037310.66749  -3139714.49545  23764117.554    23764126.191
  24035028.520    -4807880.76849  -3734185.64445  24035028.856    24035038.877
  21750657.859     1459205.03449    948331.81147  21750657.333    21750664.523
  24000747.676    -3848662.77049  -2974891.13045  24000747.548    24000755.805
  24466397.089     1597984.45249   1211523.77445  24466396.646    24466406.503
 04  5 20 16 14  0.0000000  0  9G17G30G21G 6G29G26G10G18G 5
  22119952.752     1567491.21649   1205465.47646  22119952.555    22119959.999
  21785835.346      198714.72649    138553.39447  21785835.909    21785842.584
  21967461.444    -3794770.17249  -2950769.77447  21967461.303    21967466.914
  20350561.305    -2062484.49049  -1606817.06848  20350561.499    20350567.746
  23751320.407    -4104557.83549  -3192114.86145  23751320.703    23751329.335
  24017284.541    -4901125.53649  -3806843.73545  24017284.929    24017295.018
  21763806.494     1528301.28649   1002173.01947  21763805.980    21763813.165
  23979965.517    -3957873.12749  -3059990.03345  23979965.405    23979973.640
  24487370.402     1708200.73249   1297406.49445  24487370.145    24487380.065
 04  5 20 16 14 30.0000000  0  9G17G30G21G 6G29G26G10G18G 5
  22131996.562     1630781.44349   1254782.50146  22131996.347    22132003.822
  21802162.997      284517.19949    205412.40647  21802163.606    21802170.352
  21955651.547    -3856831.64149  -2999129.34547  21955651.389    21955657.017
  20347615.111    -2077966.94849  -1618881.32148  20347615.299    20347621.549
  23738576.451    -4171527.07549  -3244298.63545  23738576.756    23738585.400
  23999568.043    -4994227.15349  -3879390.31645  23999568.414    23999578.393
  21777042.860     1597858.72049   1056373.58947  21777042.367    21777049.554
  23959206.035    -4066965.41549  -3144996.91145  23959205.947    23959214.065
  24508342.881     1818411.34749   1383284.84045  24508342.658    24508352.354
 04  5 20 16 15  0.0000000  0  9G17G30G21G 6G29G26G10G18G 5
  22144068.771     1694221.11949   1304215.98246  22144068.600    22144076.030
  21818557.064      370668.59049    272543.30147  21818557.667    21818564.521
  21943882.899    -3918676.41549  -3047320.06347  21943882.746    21943888.359
  20344740.265    -2093074.35849  -1630653.33248  20344740.469    20344746.715
  23725886.147    -4238215.10749  -3296263.30845  23725886.421    23725894.935
  23981879.295    -5087182.05249  -3951822.58145  23981879.640    23981889.488
  21790366.533     1667875.02949   1110931.72247  21790366.044    21790373.253
  23938469.328    -4175936.99749  -3229909.75745  23938469.353    23938477.431
  24529313.711     1928614.09349   1469157.05045  24529313.340    24529323.387
 04  5 20 16 15 30.0000000  0  9G17G30G21G 6G29G26G10G18G 5
  22156169.301     1757809.67549   1353765.47646  22156169.143    22156176.624
  21835017.176      457166.62649    339944.32547  21835017.762    21835024.625
  21932155.504    -3980304.18549  -3095341.68947  21932155.355    21932160.961
  20341937.136    -2107805.15249  -1642131.87648  20341937.330    20341943.552
  23713249.740    -4304618.98149  -3348006.54145  23713250.059    23713258.841
  23964219.232    -5179986.42349  -4024137.56345  23964219.606    23964229.288
  21803777.068     1738347.79049   1165845.52847  21803776.589    21803783.818
  23917756.193    -4284785.27349  -3314726.50845  23917756.202    23917764.234
  24550282.620     2038806.22749   1555020.96545  24550282.294    24550292.212
 04  5 20 16 16  0.0000000  0  9G17G30G21G 6G29G26G10G18G 5
  22168297.916     1821545.79549   1403429.94046  22168297.767    22168305.283
  21851542.665      544008.05249    407612.91547  21851543.211    21851550.083
  21920469.430    -4041714.88549  -3143194.16647  21920469.295    21920474.897
  20339205.822    -2122158.27349  -1653316.12948  20339206.011    20339212.228
  23700667.973    -4370736.01449  -3399526.25845  23700668.349    23700677.087
  23946588.348    -5272636.79949  -4096332.54445  23946588.622    23946598.300
  21817274.028     1809274.50949   1221113.06747  21817273.506    21817280.769
  23897066.987    -4393507.84049  -3399445.30345  23897066.905    23897074.849
  24571249.109     2148985.66349   1640874.97145  24571248.978    24571258.766
 04  5 20 16 16 30.0000000  0  9G17G30G21G 6G29G26G10G18G 5
  22180454.539     1885428.62249   1453208.71646  22180454.361    22180461.879
  21868132.876      631190.06149    475546.89347  21868133.436    21868140.295
  21908824.726    -4102908.43949  -3190877.43347  21908824.576    21908830.140
  20336546.633    -2136132.57549  -1664205.20148  20336546.812    20336553.039
  23688141.522    -4436563.11749  -3450820.07745  23688141.960    23688150.476
  23928987.363    -5365129.66949  -4168404.76145  23928987.627    23928997.271
  21830856.783     1880652.38649   1276732.16047  21830856.293    21830863.547
  23876402.059    -4502103.13549  -3484064.94445  23876402.001    23876409.783
  24592212.782     2259149.71149   1726717.01145  24592212.585    24592222.301
 04  5 20 16 17  0.0000000  0  9G17G30G21G 6G29G26G10G18G 5
  22192638.751     1949456.87049   1503100.81946  22192638.546    22192646.080
  21884787.330      718709.61549    543743.89847  21884787.887    21884794.744
  21897221.281    -4163884.74349  -3238391.41947  21897221.169    21897226.717
  20333959.665    -2149727.08349  -1674798.32648  20333959.852    20333966.090
  23675670.823    -4502097.57649  -3501885.83245  23675671.213    23675679.786
  23911417.100    -5457461.68149  -4240351.66445  23911417.401    23911427.048
  21844524.829     1952478.32349   1332700.38947  21844524.330    21844531.564
  23855761.784    -4610568.59349  -3568583.40145  23855761.650    23855769.427
  24613173.016     2369295.45349   1812544.79845  24613172.805    24613182.406
 04  5 20 16 17 30.0000000  0  9G17G30G21G 6G29G26G10G18G 5
  22204850.416     2013629.58249   1553105.48446  22204850.232    22204857.785
  21901505.470      806563.83549    612201.67647  21901506.023    21901512.915
  21885659.238    -4224643.61249  -3285735.98047  21885659.123    21885664.679
  20331445.243    -2162940.44749  -1685094.45548  20331445.443    20331451.658
  23663256.286    -4567336.52249  -3552721.36645  23663256.599    23663265.097
  23893878.064    -5549629.19349  -4312170.38645  23893878.372    23893887.973
  21858277.644     2024749.83949   1389015.82247  21858277.200    21858284.412
  23835146.417    -4718902.49849  -3652999.34945  23835146.312    23835154.022
  24634129.349     2479420.97949   1898356.80745  24634129.207    24634138.759
 04  5 20 16 18  0.0000000  0  9G17G30G21G 6G29G26G10G18G 5
  22217089.437     2077946.39549   1603222.43646  22217089.269    22217096.903
  21918286.898      894750.39449    680918.43147  21918287.435    21918294.360
  21874138.686    -4285184.53449  -3332910.70847  21874138.559    21874144.161
  20329003.722    -2175770.80849  -1695092.14148  20329003.923    20329010.170
  23650898.518    -4632276.59849  -3603323.98345  23650898.774    23650907.387
  23876371.074    -5641628.27349  -4383857.85045  23876371.412    23876381.025
  21872114.830     2097464.65249   1445676.68747  21872114.400    21872121.625
  23814556.893    -4827101.41749  -3737310.11645  23814556.656    23814564.402
  24655081.443     2589523.73949   1984151.07945  24655081.272    24655090.799
 04  5 20 16 18 30.0000000  0  9G17G30G21G 6G29G26G10G18G 5
  22229355.696     2142405.98349   1653450.64446  22229355.528    22229363.210
  21935130.917      983266.20849    749891.73447  21935131.464    21935138.427
  21862659.547    -4345507.59149  -3379915.67947  21862659.426    21862665.040
  20326635.237    -2188217.31849  -1704790.72348  20326635.443    20326641.668
  23638598.370    -4696915.07649  -3653691.60745  23638598.559    23638607.189
  23858896.779    -5733455.62349  -4455411.52845  23858897.199    23858906.716
  21886035.798     2170619.64249   1502680.54147  21886035.363    21886042.586
  23793993.179    -4935163.83149  -3821514.52645  23793993.021    23794000.632
  24676028.680     2699601.33549   2069925.73245  24676028.521    24676037.960
 04  5 20 16 19  0.0000000  0  9G17G30G21G 6G29G26G10G18G 5
  22241649.033     2207007.54249   1703789.46846  22241648.807    22241656.525
  21952037.013     1072108.26349    819119.25447  21952037.611    21952044.548
  21851221.924    -4405612.65249  -3426750.77047  21851221.804    21851227.399
  20324339.983    -2200278.92949  -1714189.38448  20324340.192    20324346.439
  23626355.885    -4761249.31149  -3703822.15545  23626356.134    23626364.769
  23841455.929    -5825107.75849  -4526828.63845  23841456.353    23841465.877
  21900040.070     2244212.35349   1560025.47847  21900039.638    21900046.912
  23773455.836    -5043087.56849  -3905610.86545  23773455.749    23773463.363
  24696970.674     2809651.19649   2155678.79245  24696970.393    24696979.783
 04  5 20 16 19 30.0000000  0  9G17G30G21G 6G29G26G10G18G 5
  22253969.081     2271749.97249   1754238.07346  22253968.908    22253976.652
  21969004.648     1161273.74649    888598.80347  21969005.284    21969012.278
  21839825.714    -4465500.27449  -3473416.43647  21839825.583    21839831.164
  20322118.213    -2211954.40249  -1723287.16048  20322118.440    20322124.694
  23614172.038    -4825276.40449  -3753713.36445  23614172.259    23614180.698
  23824049.084    -5916580.95749  -4598106.32745  23824049.594    23824058.966
  21914127.084     2318240.12049   1617709.41847  21914126.636    21914133.986
  23752945.363    -5150870.51849  -3989597.49045  23752945.278    23752952.930
  24717906.883     2919670.79049   2241408.25245  24717906.540    24717915.981
 04  5 20 16 20  0.0000000  0  9G17G30G21G 6G29G26G10G18G 5
  22266315.783     2336632.32249   1804795.69946  22266315.670    22266323.391
  21986033.262     1250759.59049    958327.97847  21986033.905    21986040.946
  21828471.072    -4525169.42249  -3519911.86247  21828470.944    21828476.518
  20319970.143    -2223242.59949  -1732083.16248  20319970.367    20319976.638
  23602047.193    -4888993.54649  -3803363.06545  23602047.243    23602055.656
  23806676.904    -6007871.72449  -4669241.89145  23806677.351    23806686.797
  21928296.437     2392700.07649   1675730.13347  21928295.976    21928303.336
  23732462.111    -5258510.54149  -4073472.75745  23732462.009    23732469.683
  24738836.943     3029657.77849   2327112.29045  24738836.499    24738846.008
 04  5 20 16 20 30.0000000  0  9G17G30G21G 6G29G26G10G18G 5
  22278688.937     2401653.48249   1855461.49546  22278688.804    22278696.561
  22003122.292     1340562.85749   1028304.49647  22003122.935    22003130.002
  21817157.964    -4584620.17749  -3566237.10747  21817157.806    21817163.400
  20317896.018    -2234142.38049  -1740576.50748  20317896.233    20317902.502
  23589981.495    -4952398.01849  -3852769.12145  23589981.766    23589990.153
  23789340.090    -6098977.02249  -4740232.94845  23789340.602    23789350.037
  21942547.399     2467589.05749   1734085.14747  21942546.911    21942554.304
  23712006.401    -5366005.42449  -4157234.93445  23712006.270    23712014.122
  24759760.032     3139609.03649   2412788.51745  24759759.675    24759769.104
 04  5 20 16 21  0.0000000  0  9G17G30G21G 6G29G26G10G18G 5
  22291088.550     2466813.52649   1906235.50846  22291088.411    22291096.197
  22020271.358     1430681.75649   1098526.95847  22020272.023    22020279.108
  21805886.465    -4643852.05549  -3612391.79547  21805886.309    21805891.926
  20315896.251    -2244651.49549  -1748765.43148  20315896.447    20315902.716
  23577976.314    -5015485.63849  -3901928.26945  23577976.616    23577985.141
  23772039.385    -6189891.95849  -4811075.65245  23772039.820    23772049.325
  21956879.707     2542905.51849   1792773.26647  21956879.219    21956886.568
  23691578.916    -5473351.87349  -4240881.42745  23691578.872    23691586.748
  24780676.030     3249523.30449   2498435.86445  24780675.615    24780685.319
 04  5 20 16 21 30.0000000  0  9G17G30G21G 6G29G26G10G18G 5
  22303514.319     2532111.52149   1957117.01646  22303514.189    22303522.030
  22037479.917     1521113.17549   1168992.94047  22037480.570    22037487.685
  21794656.677    -4702864.88549  -3658375.80047  21794656.563    21794662.115
  20313970.930    -2254769.01849  -1756649.22048  20313971.130    20313977.416
  23566031.866    -5078254.16449  -3950838.77845  23566032.076    23566040.576
  23754775.660    -6280613.06549  -4881767.35545  23754776.071    23754785.461
  21971292.782     2618646.60049   1851792.25547  21971292.291    21971299.661
  23671179.965    -5580547.94349  -4324410.74745  23671180.023    23671187.982
  24801584.516     3359398.16949   2584052.52345  24801584.241    24801593.934
 04  5 20 16 22  0.0000000  0  9G17G30G21G 6G29G26G10G18G 5
  22315966.181     2597546.52649   2008105.27846  22315966.068    22315973.961
  22054747.414     1611854.22349   1239700.19047  22054748.076    22054755.181
  21783468.562    -4761658.77249  -3704189.20447  21783468.439    21783473.991
  20312120.362    -2264493.80349  -1764226.98148  20312120.591    20312126.881
  23554148.695    -5140700.50449  -3999498.23645  23554148.892    23554157.391
  23737549.649    -6371136.71349  -4952305.20145  23737549.976    23737559.295
  21985786.118     2694809.71149   1911140.10447  21985785.667    21985793.091
  23650810.258    -5687591.25849  -4407821.04845  23650810.265    23650818.291
  24822485.015     3469231.18949   2669636.64245  24822484.821    24822494.404
 04  5 20 16 22 30.0000000  0  8G17G30G21G 6G29G26G10G18
  22328444.120     2663118.32049   2059200.14846  22328443.999    22328451.924
  22072073.417     1702902.60349   1310646.92847  22072074.081    22072081.151
  21772322.474    -4820231.66949  -3749830.40347  21772322.345    21772327.926
  20310344.912    -2273823.99949  -1771497.26548  20310345.131    20310351.404
  23542327.523    -5202821.38649  -4047904.08545  23542327.636    23542336.182
  23720361.950    -6461458.87949  -5022686.01445  23720362.195    23720371.443
  22000359.379     2771392.89649   1970815.27947  22000358.958    22000366.378
  23630470.212    -5794478.96349  -4491110.08245  23630470.196    23630478.204
 04  5 20 16 23  0.0000000  0  8G17G30G21G 6G29G26G10G18
  22340947.711     2728824.55249   2110399.75846  22340947.544    22340955.506
  22089457.149     1794254.19049   1381829.92347  22089457.807    22089464.853
  21761218.103    -4878585.59949  -3795300.97447  21761217.962    21761223.551
  20308644.549    -2282759.71749  -1778460.17348  20308644.768    20308651.025
  23530568.489    -5264615.08649  -4096054.95745  23530568.586    23530577.216
  23703212.872    -6551577.14249  -5092907.99945  23703213.277    23703222.537
  22015011.856     2848391.78249   2030814.38047  22015011.405    22015018.808
  23610159.935    -5901210.01249  -4574277.04845  23610159.857    23610167.855
 04  5 20 16 23 30.0000000  0  8G17G30G21G 6G29G26G10G18
  22353476.683     2794664.45849   2161703.54346  22353476.540    22353484.436
  22106897.952     1885905.98949   1453246.84747  22106898.622    22106905.649
  21750155.363    -4936720.74849  -3840601.06747  21750155.241    21750160.793
  20307019.416    -2291299.82249  -1785114.80448  20307019.623    20307025.873
  23518872.304    -5326079.01249  -4143948.89445  23518872.394    23518880.904
  23686103.269    -6641487.90849  -5162968.29345  23686103.732    23686112.931
  22029742.865     2925803.77549   2091135.38047  22029742.397    22029749.852
  23589879.832    -6007782.46449  -4657320.44145  23589879.756    23589887.735
 04  5 20 16 24  0.0000000  0  8G17G30G21G 6G29G26G10G18
  22366031.031     2860637.32649   2213110.93246  22366030.939    22366038.712
  22124395.276     1977855.05349   1524895.41147  22124395.949    22124403.007
  21739134.344    -4994636.69549  -3885730.36447  21739134.211    21739139.786
  20305469.819    -2299443.10449  -1791460.22548  20305470.036    20305476.269
  23507239.338    -5387209.98949  -4191583.35745  23507239.557    23507248.079
  23669033.935    -6731187.47249  -5232863.99745  23669034.358    23669043.764
  22044551.957     3003626.13049   2151776.13547  22044551.524    22044559.032
  23569630.326    -6114193.85949  -4740238.33645  23569630.335    23569638.246
 04  5 20 16 24 30.0000000  0  8G17G30G21G 6G29G26G10G18
  22378610.453     2926741.81649   2264620.88046  22378610.310    22378617.989
  22141948.695     2070098.27149   1596773.18546  22141949.327    22141956.368
  21728155.027    -5052333.19649  -3930688.65547  21728154.921    21728160.460
  20303995.821    -2307188.97549  -1797495.97648  20303996.046    20304002.301
  23495670.177    -5448005.91049  -4238956.74945  23495670.426    23495679.074
  23652005.563    -6820672.66249  -5302592.67145  23652006.117    23652015.285
  22059438.590     3081855.60849   2212734.13347  22059438.149    22059445.641
  23549411.752    -6220442.79949  -4823029.62445  23549411.782    23549419.617
 04  5 20 16 25  0.0000000  0  8G17G30G21G 6G29G26G10G18
  22391214.628     2992976.86349   2316232.56446  22391214.534    22391222.103
  22159557.420     2162632.32949   1668877.58146  22159558.057    22159565.104
  21717217.433    -5109810.70249  -3975476.30447  21717217.323    21717222.849
  20302597.704    -2314536.18049  -1803221.07448  20302597.934    20302604.194
  23484165.367    -5508463.94249  -4286066.86445  23484165.670    23484174.246
  23635018.523    -6909940.19849  -5372151.73345  23635019.047    23635028.062
  22074402.128     3160489.18649   2274007.01347  22074401.690    22074409.129
  23529224.690    -6326526.29149  -4905691.99645  23529224.746    23529232.559
 04  5 20 16 25 30.0000000  0  8G17G30G21G 6G29G26G10G18
  22403843.545     3059342.22249   2367945.78946  22403843.482    22403851.045
  22177221.106     2255455.38149   1741207.16946  22177221.749    22177228.819
  21706321.659    -5167068.52549  -4020092.76947  21706321.526    21706327.013
  20301275.713    -2321483.19249  -1808634.33948  20301275.949    20301282.238
  23472725.382    -5568580.83049  -4332911.11745  23472725.740    23472734.366
  23618073.660    -6998985.61349  -5441537.73345  23618074.178    23618083.184
  22089442.206     3239525.08249   2335593.38347  22089441.797    22089449.189
  23509069.683    -6432441.82649  -4988223.52145  23509069.660    23509077.392
 04  5 20 16 26  0.0000000  0  8G17G30G21G 6G29G26G10G18
  22416497.228     3125837.64849   2419760.36046  22416497.122    22416504.711
  22194939.311     2348564.60949   1813759.75546  22194939.952    22194947.027
  21695467.738    -5224106.37249  -4064537.82247  21695467.590    21695473.078
  20300030.283    -2328028.14949  -1813734.31548  20300030.501    20300036.781
  23461351.080    -5628353.17449  -4379486.91245  23461351.434    23461360.022
  23601172.006    -7087804.75349  -5510747.39945  23601172.338    23601181.585
  22104558.379     3318960.90649   2397491.38747  22104557.943    22104565.347
  23488946.887    -6538187.35649  -5070622.55945  23488946.940    23488954.616
 04  5 20 16 26 30.0000000  0  8G17G30G21G 6G29G26G10G18
  22429175.488     3192462.03949   2471675.42846  22429175.365    22429182.940
  22212711.389     2441956.89649   1886532.90146  22212711.959    22212719.085
  21684655.748    -5280923.56449  -4108810.94447  21684655.625    21684661.145
  20298861.455    -2334170.31749  -1818520.43048  20298861.670    20298867.989
  23450042.928    -5687778.62349  -4425792.40345  23450043.213    23450051.702
  23584313.791    -7176394.54449  -5579778.32445  23584314.189    23584323.424
  22119750.104     3398793.40549   2459698.48647  22119749.646    22119757.053
  23468856.948    -6643760.58849  -5152887.33745  23468856.888    23468864.656
 04  5 20 16 27  0.0000000  0  8G17G30G21G 6G29G26G10G18
  22441878.037     3259214.46249   2523690.25946  22441877.901    22441885.604
  22230536.584     2535629.15649   1959524.20846  22230537.189    22230544.355
  21673885.690    -5337520.50949  -4152912.44647  21673885.571    21673891.113
  20297769.495    -2339908.59949  -1822991.82748  20297769.716    20297776.057
  23438801.075    -5746854.39249  -4471825.40845  23438801.386    23438809.946
  23567500.130    -7264751.39949  -5648627.79045  23567500.509    23567509.697
  22135016.801     3479019.96449   2522212.65047  22135016.327    22135023.733
  23448800.139    -6749159.17849  -5235016.04245  23448800.153    23448807.781
 04  5 20 16 27 30.0000000  0  9G17G30G16G21G 6G29G26G10G18
  22454604.242     3326090.97649   2575801.77946  22454604.121    22454611.888
  22248414.059     2629575.65749   2032729.21646  22248414.643    22248421.850
  24762434.929    -1235296.86249   -940695.06445  24762434.684    24762441.941
  21663156.960    -5393900.35249  -4196844.77047  21663156.848    21663162.337
  20296753.993    -2345245.23449  -1827150.25448  20296754.219    20296760.579
  23427625.839    -5805580.73049  -4517586.11345  23427626.162    23427634.736
  23550730.862    -7352874.58749  -5717295.17245  23550731.208    23550740.300
  22150357.247     3559634.71149   2585029.29447  22150356.807    22150364.259
  23428776.378    -6854384.09149  -5317009.41345  23428776.546    23428784.129
 04  5 20 16 28  0.0000000  0  9G17G30G16G21G 6G29G26G10G18
  22467353.406     3393088.00149   2628007.20846  22467353.255    22467361.089
  22266342.556     2723790.46349   2106143.28046  22266343.141    22266350.426
  24746128.591    -1320986.23849  -1007465.96145  24746128.332    24746135.962
  21652469.168    -5450065.39949  -4240609.72747  21652469.038    21652474.476
  20295814.658    -2350181.58249  -1830996.76948  20295814.880    20295821.243
  23416517.054    -5863957.85949  -4563074.69645  23416517.352    23416525.826
  23534005.947    -7440763.48049  -5785779.94245  23534006.366    23534015.499
  22165770.540     3640632.08049   2648144.08046  22165770.107    22165777.619
  23408785.707    -6959435.99749  -5398867.97045  23408785.775    23408793.328
 04  5 20 16 28 30.0000000  0  9G17G30G16G21G 6G29G26G10G18
  22480127.290     3460215.06349   2680313.96046  22480127.132    22480134.972
  22284323.538     2818281.06749   2179772.26146  22284324.114    22284331.464
  24729883.973    -1406351.07749  -1073983.98145  24729883.719    24729891.597
  21641824.244    -5506004.78249  -4284198.84647  21641824.117    21641829.566
  20294953.635    -2354706.43349  -1834522.63448  20294953.856    20294960.215
  23405477.188    -5921972.66549  -4608280.97745  23405477.475    23405485.810
  23517328.567    -7528403.99049  -5854071.18845  23517328.912    23517337.966
  22181258.031     3722019.34949   2711562.68546  22181257.585    22181265.128
  23388830.423    -7064301.86249  -5480581.56846  23388830.499    23388837.923
 04  5 20 16 29  0.0000000  0  9G17G30G16G21G 6G29G26G10G18
  22492925.336     3527469.08349   2732719.63346  22492925.172    22492933.045
  22302356.019     2913041.96749   2253611.85646  22302356.580    22302363.960
  24713701.240    -1491391.38449  -1140249.11345  24713700.951    24713708.899
  21631221.564    -5561721.87149  -4327614.75347  21631221.457    21631226.948
  20294170.693    -2358820.81849  -1837728.65848  20294170.918    20294177.270
  23394506.357    -5979624.69049  -4653204.52946  23394506.620    23394514.957
  23500698.731    -7615794.90349  -5922167.98745  23500699.014    23500707.834
  22196818.789     3803791.68849   2775281.35546  22196818.392    22196825.968
  23368910.312    -7168982.70349  -5562150.98846  23368910.400    23368917.802
 04  5 20 16 29 30.0000000  0  9G17G30G16G21G 6G29G26G10G18
  22505747.219     3594848.22049   2785222.80346  22505747.055    22505754.923
  22320439.232     3008069.41349   2327659.15946  22320439.811    22320447.154
  24697580.684    -1576105.70249  -1206260.22745  24697580.361    24697588.118
  21620661.306    -5617216.55249  -4370857.34847  21620661.188    21620666.664
  20293465.830    -2362524.94549  -1840615.00248  20293466.046    20293472.395
  23383604.683    -6036912.20949  -4697844.05546  23383604.968    23383613.515
  23484116.744    -7702933.64449  -5990068.25245  23484117.074    23484125.896
  22212452.171     3885945.46449   2839297.23446  22212451.740    22212459.345
  23349025.739    -7273476.81849  -5643574.88846  23349025.845    23349033.189
 04  5 20 16 30  0.0000000  0  9G17G30G16G21G 6G29G26G10G18
  22518592.645     3662351.02649   2837822.34646  22518592.463    22518600.343
  22338572.471     3103360.01049   2401911.51546  22338573.058    22338580.413
  24681522.559    -1660491.96049  -1272015.71945  24681522.407    24681529.894
  21610143.292    -5672489.09049  -4413926.84747  21610143.169    21610148.640
  20292839.184    -2365818.18449  -1843181.16948  20292839.400    20292845.720
  23372772.825    -6093833.15049  -4742197.96945  23372773.216    23372781.642
  23467583.257    -7789817.19649  -6057769.66145  23467583.640    23467592.527
  22228157.522     3968477.03449   2903607.51046  22228157.047    22228164.645
  23329177.012    -7377783.03849  -5724852.38446  23329177.077    23329184.407
 04  5 20 16 30 30.0000000  0  9G17G30G16G21G 6G29G26G10G18
  22531461.438     3729976.57449   2890517.51846  22531461.244    22531469.102
  22356755.131     3198910.25349   2476366.20446  22356755.720    22356763.111
  24665527.210    -1744548.25949  -1337514.10645  24665527.011    24665534.458
  21599667.352    -5727540.46249  -4456824.00947  21599667.212    21599672.681
  20292290.828    -2368699.90449  -1845426.67448  20292291.039    20292297.369
  23362011.319    -6150385.30849  -4786264.50146  23362011.696    23362020.040
  23451098.911    -7876442.21549  -6125269.62845  23451099.332    23451108.300
  22243934.137     4051383.20249   2968209.66946  22243933.645    22243941.233
  23309364.444    -7481899.14649  -5805981.75146  23309364.422    23309371.713
 04  5 20 16 31  0.0000000  0  9G17G30G16G21G 6G29G26G10G18
  22544353.380     3797723.87649   2943307.57346  22544353.189    22544361.044
  22374986.700     3294717.42749   2551021.08846  22374987.278    22374994.703
  24649595.124    -1828271.85449  -1402753.23645  24649594.930    24649602.397
  21589233.622    -5782370.08849  -4499548.38047  21589233.505    21589238.982
  20291821.070    -2371168.59849  -1847350.34248  20291821.294    20291827.621
  23351320.537    -6206565.62349  -4830041.26146  23351320.867    23351329.262
  23434664.576    -7962805.01449  -6192565.29845  23434665.119    23434673.940
  22259781.504     4134661.54949   3033101.84146  22259781.054    22259788.637
  23289588.517    -7585821.95149  -5886960.48146  23289588.553    23289595.741
 04  5 20 16 31 30.0000000  0  9G17G30G16G21G 6G29G26G10G18
  22557268.373     3865592.11249   2996191.86146  22557268.158    22557276.044
  22393266.475     3390778.29349   2625873.65346  22393267.124    22393274.542
  24633726.834    -1911660.62249  -1467731.46645  24633726.635    24633734.069
  21578842.000    -5836978.49749  -4542100.37247  21578841.889    21578847.369
  20291429.962    -2373223.93549  -1848951.90548  20291430.195    20291436.514
  23340701.010    -6262371.89249  -4873526.58846  23340701.368    23340709.525
  23418280.882    -8048902.33149  -6259654.05545  23418281.332    23418290.215
  22275699.023     4218308.83949   3098281.50046  22275698.585    22275706.243
  23269849.608    -7689550.42849  -5967787.80146  23269849.648    23269856.796
 04  5 20 16 32  0.0000000  0  9G17G30G16G21G 6G29G26G10G18
  22570206.220     3933580.60849   3049169.85346  22570206.021    22570213.878
  22411594.071     3487089.86349   2700921.56446  22411594.686    22411602.078
  24617922.702    -1994711.96549  -1532446.77545  24617922.567    24617929.771
  21568492.581    -5891364.97249  -4584479.43247  21568492.463    21568497.973
  20291117.762    -2374864.73349  -1850230.45848  20291117.981    20291124.306
  23330153.084    -6317801.47949  -4916718.39046  23330153.411    23330161.525
  23401948.229    -8134730.38649  -6326533.00445  23401948.659    23401957.578
  22291686.238     4302322.17549   3163746.38346  22291685.807    22291693.456
  23250148.039    -7793082.99249  -6048462.46246  23250148.007    23250155.081
 04  5 20 16 32 30.0000000  0  9G17G30G16G21G 6G29G26G10G18
  22583166.684     4001688.49749   3102240.88746  22583166.559    22583174.425
  22429968.753     3583649.11249   2776162.47246  22429969.315    22429976.728
  24602183.214    -2077423.51449  -1596897.29645  24602183.044    24602190.163
  21558185.357    -5945529.70349  -4626685.70447  21558185.229    21558190.718
  20290884.605    -2376089.92349  -1851185.15848  20290884.813    20290891.144
  23319677.407    -6372851.61849  -4959614.50846  23319677.703    23319685.867
  23385667.513    -8220285.75449  -6393199.47645  23385667.909    23385676.871
  22307742.630     4386698.80349   3229494.36546  22307742.172    22307749.802
  23230484.197    -7896416.84049  -6128982.29046  23230484.131    23230491.221
 04  5 20 16 33  0.0000000  0  9G17G30G16G21G 6G29G26G10G18
  22596149.666     4069914.75049   3155404.14046  22596149.541    22596157.477
  22448389.958     3680453.13649   2851594.12046  22448390.562    22448397.974
  24586508.911    -2159792.77049  -1661081.09745  24586508.704    24586515.886
  21547920.344    -5999472.74549  -4668719.23047  21547920.225    21547925.715
  20290730.730    -2376898.76349  -1851815.43148  20290730.939    20290737.259
  23309274.373    -6427519.93849  -5002213.10046  23309274.615    23309282.780
  23369439.319    -8305564.91049  -6459650.69645  23369439.793    23369448.796
  22323867.550     4471435.91649   3295523.24146  22323867.088    22323874.735
  23210858.498    -7999550.06149  -6209345.78246  23210858.408    23210865.575
 04  5 20 16 33 30.0000000  0  9G17G30G16G21G 6G29G26G10G18
  22609155.205     4138259.18549   3208659.49246  22609155.098    22609163.017
  22466857.256     3777499.22649   2927214.39146  22466857.838    22466865.261
  24570900.171    -2241817.15649  -1724996.17845  24570900.020    24570907.255
  21537697.652    -6053193.29849  -4710579.39047  21537697.522    21537703.016
  20290656.316    -2377289.71149  -1852120.07648  20290656.541    20290662.845
  23298944.543    -6481803.38049  -5044511.80946  23298944.727    23298952.917
  23353264.630    -8390563.73449  -6525883.47945  23353265.031    23353274.062
  22340060.584     4556530.84149   3361830.92746  22340060.108    22340067.721
  23191271.412    -8102479.98449  -6289550.86446  23191271.407    23191278.637
 04  5 20 16 34  0.0000000  0  9G17G30G16G21G 6G29G26G10G18
  22622183.123     4206720.70749   3262006.08646  22622183.018    22622190.842
  22485369.969     3874784.22149   3003020.83046  22485370.562    22485378.051
  24555357.354    -2323494.24349  -1788640.62545  24555357.290    24555364.629
  21527517.200    -6106691.78449  -4752266.50447  21527517.090    21527522.584
  20290661.595    -2377262.19149  -1852098.64048  20290661.807    20290668.116
  23288688.288    -6535699.52249  -5086508.70946  23288688.547    23288696.768
  23337143.774    -8475279.07249  -6591895.39045  23337144.202    23337153.171
  22356321.154     4641980.78149   3428415.24546  22356320.711    22356328.401
  23171723.490    -8205204.36149  -6369595.80046  23171723.569    23171730.843
 04  5 20 16 34 30.0000000  0  9G17G30G16G21G 6G29G26G10G18
  22635233.108     4275298.61649   3315443.36646  22635232.985    22635240.785
  22503927.610     3972304.98049   3079010.98346  22503928.205    22503935.748
  24539881.222    -2404821.75949  -1852012.68345  24539881.244    24539888.592
  21517379.094    -6159967.89749  -4793780.34647  21517378.998    21517384.454
  20290746.698    -2376815.17349  -1851750.32548  20290746.898    20290753.207
  23278506.367    -6589205.89349  -5128201.89746  23278506.576    23278514.858
  23321077.550    -8559707.28049  -6657683.52445  23321077.964    23321086.955
  22372648.793     4727782.81149   3495273.92246  22372648.358    22372656.050
  23152215.073    -8307721.63849  -6449479.32946  23152215.106    23152222.395
 04  5 20 16 35  0.0000000  0  9G17G30G16G21G 6G29G26G10G18
  22648305.094     4343991.95249   3368970.58046  22648304.965    22648312.729
  22522529.509     4070058.58749   3155182.56446  22522530.117    22522537.684
  24524472.117    -2485797.44549  -1915110.58645  24524472.151    24524479.562
  21507283.234    -6213021.95749  -4835121.15047  21507283.148    21507288.595
  20290911.759    -2375947.79549  -1851074.45348  20290911.964    20290918.267
  23268399.049    -6642320.08949  -5169589.48646  23268399.193    23268407.415
  23305066.597    -8643844.99549  -6723245.28345  23305067.057    23305076.116
  22389042.832     4813933.90649   3562404.60446  22389042.419    22389050.104
  23132746.560    -8410029.47149  -6529199.66646  23132746.523    23132753.868
 04  5 20 16 35 30.0000000  0  9G17G30G16G21G 6G29G26G10G18
  22661398.936     4412799.98349   3422587.17846  22661398.760    22661406.567
  22541175.170     4168041.78549   3231533.05846  22541175.788    22541183.318
  24509130.402    -2566418.85549  -1977932.43345  24509130.382    24509137.753
  21497229.703    -6265853.79349  -4876288.80447  21497229.618    21497235.033
  20291156.940    -2374659.15449  -1850070.32848  20291157.174    20291163.480
  23258366.806    -6695039.69549  -5210669.63746  23258366.948    23258374.986
  23289111.737    -8727688.51549  -6788577.83345  23289112.173    23289121.084
  22405502.853     4900431.17849   3629805.02546  22405502.443    22405510.095
  23113318.267    -8512125.96449  -6608755.32246  23113318.232    23113325.512
 04  5 20 16 36  0.0000000  0  9G17G30G16G21G 6G29G26G10G18
  22674514.431     4481722.11549   3476292.67246  22674514.250    22674522.065
  22559864.048     4266252.05049   3308060.47946  22559864.661    22559872.126
  24493856.527    -2646683.56749  -2040476.32945  24493856.506    24493863.658
  21487218.437    -6318463.17849  -4917283.11847  21487218.348    21487223.788
  20291482.517    -2372948.23749  -1848737.15448  20291482.739    20291489.058
  23248410.012    -6747361.82549  -5251440.04346  23248410.261    23248418.398
  23273213.427    -8811234.15349  -6853678.23845  23273213.979    23273222.781
  22422028.221     4987271.88149   3697473.06646  22422027.763    22422035.320
  23093930.694    -8614008.56549  -6688144.30146  23093930.625    23093937.858
 04  5 20 16 36 30.0000000  0  9G17G30G16G21G 6G29G26G10G18
  22687651.467     4550757.87049   3530086.72046  22687651.326    22687659.195
  22578595.570     4364686.30349   3384762.44446  22578596.143    22578603.604
  24478651.099    -2726588.88649  -2102740.20245  24478651.112    24478658.075
  21477249.678    -6370849.38849  -4958103.52847  21477249.560    21477255.029
  20291888.684    -2370813.95449  -1847074.09248  20291888.918    20291895.254
  23238529.358    -6799283.94849  -5291898.75346  23238529.641    23238537.875
  23257372.727    -8894478.16149  -6918543.60245  23257373.236    23257381.967
  22438618.411     5074453.68349   3765406.88946  22438617.978    22438625.520
  23074584.147    -8715675.23949  -6767365.03846  23074584.037    23074591.342
 04  5 20 16 37  0.0000000  0  9G17G30G16G21G 6G29G26G10G18
  22700809.987     4619906.34849   3583968.59446  22700809.866    22700817.797
  22597369.108     4463341.58849   3461636.63446  22597369.646    22597377.094
  24463514.453    -2806132.43049  -2164722.14245  24463514.341    24463521.419
  21467323.259    -6423012.86549  -4998750.38947  21467323.171    21467328.651
  20292375.572    -2368255.41849  -1845080.44048  20292375.800    20292382.155
  23228725.632    -6850803.38149  -5332043.73646  23228725.867    23228733.813
  23241589.835    -8977417.16149  -6983171.27645  23241590.342    23241599.089
  22455272.950     5161973.52549   3833604.12146  22455272.518    22455280.086
  23055279.024    -8817123.88349  -6846415.87446  23055278.983    23055286.316
 04  5 20 16 37 30.0000000  0  9G17G30G16G21G 6G29G26G10G18
  22713989.880     4689167.02749   3637937.90846  22713989.742    22713997.723
  22616184.164     4562215.32749   3538681.05546  22616184.712    22616192.213
  24448447.178    -2885311.54549  -2226420.14945  24448447.102    24448454.181
  21457439.320    -6474953.20049  -5039223.37147  21457439.224    21457444.703
  20292943.408    -2365271.48549  -1842755.30948  20292943.627    20292949.997
  23218998.884    -6901917.46049  -5371872.81646  23218999.072    23219007.196
  23225865.683    -9060047.34049  -7047558.33645  23225866.308    23225874.950
  22471991.201     5249828.61149   3902062.57846  22471990.774    22471998.421
  23036015.858    -8918352.22749  -6925295.04946  23036015.798    23036023.151
 04  5 20 16 38  0.0000000  0  9G17G30G16G21G 6G29G26G10G18
  22727190.951     4758539.03349   3691993.96446  22727190.793    22727198.849
  22635040.053     4661303.75549   3615892.76346  22635040.608    22635048.165
  24433449.537    -2964124.21749  -2287832.60045  24433449.586    24433456.549
  21447597.838    -6526670.49849  -5079522.55647  21447597.767    21447603.197
  20293592.314    -2361861.51849  -1840098.20648  20293592.548    20293598.920
  23209349.678    -6952624.15149  -5411384.44846  23209349.901    23209357.947
  23210201.018    -9142365.37649  -7111702.17145  23210201.563    23210210.213
  22488772.703     5338015.89649   3970779.88946  22488772.257    22488779.991
  23016795.080    -9019358.12549  -7004000.90546  23016794.995    23016802.301
 04  5 20 16 38 30.0000000  0  9G17G30G16G21G 6G29G26G10G18
  22740413.225     4828021.85349   3746136.37546  22740413.010    22740421.108
  22653936.301     4760604.73949   3693270.09846  22653936.926    22653944.531
  24418521.921    -3042567.86149  -2348957.48445  24418521.979    24418529.149
  21437798.935    -6578164.35449  -5119647.63247  21437798.850    21437804.235
  20294322.489    -2358024.54349  -1837108.36548  20294322.703    20294329.084
  23199778.653    -7002920.56749  -5450576.41946  23199778.827    23199786.674
  23194596.293    -9224367.50449  -7175599.80045  23194596.885    23194605.586
  22505616.940     5426532.88149   4039754.10846  22505616.506    22505624.337
  22997617.026    -9120139.25749  -7082531.61346  22997616.951    22997624.215
 04  5 20 16 39  0.0000000  0  9G17G30G16G21G 6G29G26G10G18
  22753656.370     4897614.66449   3800364.49546  22753656.142    22753664.229
  22672872.474     4860114.67949   3770810.24946  22672873.077    22672880.711
  24403665.072    -3120640.29449  -2409793.12245  24403665.314    24403672.378
  21428042.551    -6629434.93349  -5159598.72547  21428042.445    21428047.774
  20295134.028    -2353759.72349  -1833785.13848  20295134.261    20295140.644
  23190285.893    -7052804.45749  -5489446.92146  23190286.089    23190294.014
  23179052.700    -9306050.31649  -7239248.67345  23179053.156    23179061.743
  22522523.352     5515376.69649   4108983.00146  22522522.961    22522530.793
  22978481.905    -9220694.26749  -7160886.11646  22978481.868    22978489.146
 04  5 20 16 39 30.0000000  0  9G17G30G16G21G 6G29G26G10G18
  22766920.262     4967316.61949   3854677.65446  22766920.049    22766928.079
  22691847.930     4959830.78749   3848511.04946  22691848.550    22691856.148
  24388879.468    -3198339.09949  -2470337.61845  24388879.580    24388886.737
  21418328.615    -6680481.88749  -5199375.56547  21418328.510    21418333.870
  20296027.166    -2349066.30949  -1830127.93848  20296027.403    20296033.809
  23180872.208    -7102273.41749  -5527994.10046  23180872.446    23180880.455
  23163570.228    -9387410.39049  -7302645.99945  23163570.674    23163579.429
  22539491.451     5604544.17549   4178464.10046  22539491.045    22539498.842
  22959390.346    -9321020.65349  -7239062.47946  22959390.335    22959397.600
 04  5 20 16 40  0.0000000  0  9G17G30G16G21G 6G29G26G10G18
  22780204.754     5037126.89549   3909075.21146  22780204.572    22780212.564
  22710862.068     5059749.73149   3926369.90446  22710862.586    22710870.208
  24374165.480    -3275662.28649  -2530589.43845  24374165.536    24374172.549
  21408657.138    -6731305.61049  -5238978.46847  21408657.045    21408662.427
  20297001.996    -2343943.70049  -1826136.31048  20297002.228    20297008.602
  23171537.882    -7151325.34249  -5566216.32946  23171538.138    23171546.085
  23148150.031    -9468444.19749  -7365789.12345  23148150.409    23148159.158
  22556520.481     5694032.34049   4248195.08446  22556520.146    22556527.945
  22940342.679    -9421116.75349  -7317059.39646  22940342.651    22940349.844
 04  5 20 16 40 30.0000000  0  9G17G30G16G21G 6G29G26G10G18
  22793509.729     5107044.88549   3963556.71846  22793509.572    22793517.594
  22729914.128     5159868.59049   4004384.53046  22729914.697    22729922.288
  24359523.462    -3352607.35249  -2590546.62245  24359523.423    24359530.390
  21399028.261    -6781905.77849  -5278407.16647  21399028.151    21399033.566
  20298058.736    -2338390.86549  -1821809.44048  20298058.966    20298065.317
  23162283.408    -7199957.63849  -5604111.59645  23162283.695    23162291.390
  23132792.290    -9549148.49449  -7428675.50445  23132792.721    23132801.351
  22573610.099     5783838.44849   4318173.80746  22573609.755    22573617.585
  22921339.373    -9520979.96849  -7394874.83946  22921339.317    22921346.477
 04  5 20 16 41  0.0000000  0  9G17G30G16G21G 6G29G26G10G18
  22806835.055     5177070.10049   4018121.75446  22806834.937    22806842.966
  22749003.638     5260184.86149   4082552.98346  22749004.311    22749011.900
  24344953.806    -3429171.63949  -2650207.07745  24344953.849    24344960.725
  21389441.900    -6832282.16649  -5317661.49347  21389441.818    21389447.230
  20299197.506    -2332406.61449  -1817146.39648  20299197.738    20299204.072
  23153109.366    -7248167.66549  -5641677.80846  23153109.587    23153117.324
  23117498.132    -9629519.09149  -7491301.83645  23117498.609    23117507.372
  22590759.760     5873960.15849   4388398.45446  22590759.363    22590767.253
  22902380.776    -9620607.93349  -7472506.98146  22902380.692    22902387.865
 04  5 20 16 41 30.0000000  0  9G17G30G16G21G 6G29G26G10G18
  22820180.807     5247202.01849   4072769.93946  22820180.667    22820188.740
  22768130.243     5360695.34649   4160872.78646  22768130.861    22768138.525
  24330457.055    -3505352.86249  -2709569.06945  24330456.966    24330463.880
  21379898.195    -6882434.62949  -5356741.33347  21379898.115    21379903.533
  20300418.536    -2325990.26749  -1812146.65648  20300418.752    20300425.071
  23144015.858    -7295952.97449  -5678913.04246  23144016.112    23144024.129
  23102268.223    -9709552.56649  -7553665.48745  23102268.702    23102277.439
  22607968.768     5964394.58049   4458866.77546  22607968.459    22607976.367
  22883467.223    -9719998.60149  -7549954.20446  22883467.216    22883474.411
 04  5 20 16 42  0.0000000  0  9G17G30G16G21G 6G29G26G10G18
  22833546.726     5317439.98949   4127500.75746  22833546.615    22833554.583
  22787293.223     5461397.31549   4239341.78946  22787293.834    22787301.553
  24316033.650    -3581148.40449  -2768630.48645  24316033.640    24316040.451
  21370397.111    -6932363.16049  -5395646.68547  21370397.032    21370402.487
  20301721.971    -2319140.83049  -1806809.44448  20301722.170    20301728.485
  23135003.804    -7343311.04049  -5715815.40245  23135004.080    23135012.054
  23087103.150    -9789245.19649  -7615763.54545  23087103.591    23087112.274
  22625236.896     6055138.77049   4529576.46246  22625236.564    22625244.470
  22864599.192    -9819150.24749  -7627215.16946  22864599.178    22864606.427
 04  5 20 16 42 30.0000000  0  9G17G30G16G21G 6G29G26G10G18
  22846932.606     5387782.82149   4182313.29246  22846932.428    22846940.495
  22806491.920     5562287.13149   4317957.15646  22806492.554    22806500.294
  24301683.966    -3656556.70949  -2827390.19045  24301684.004    24301690.617
  21360938.554    -6982068.22749  -5434377.91047  21360938.490    21360943.948
  20303107.826    -2311858.10049  -1801134.60048  20303108.031    20303114.379
  23126073.680    -7390240.00649  -5752383.40845  23126073.912    23126081.622
  23072003.562    -9868594.09649  -7677593.75445  23072004.074    23072012.703
  22642563.441     6146189.61649   4600525.11646  22642563.060    22642570.946
  22845777.021    -9918061.14249  -7704288.54946  22845777.038    22845784.254
 04  5 20 16 43  0.0000000  0  9G17G30G16G21G 6G29G26G10G18
  22860338.299     5458230.38549   4237207.42146  22860338.157    22860346.313
  22825725.945     5663362.15649   4396716.86346  22825726.598    22825734.279
  24287408.398    -3731575.15949  -2885846.10445  24287408.546    24287415.041
  21351522.801    -7031548.62549  -5472934.06647  21351522.728    21351528.147
  20304576.351    -2304140.96449  -1795121.26148  20304576.564    20304582.914
  23117225.485    -7436737.31449  -5788615.00646  23117225.678    23117233.600
  23056970.128    -9947595.40549  -7739153.09645  23056970.581    23056979.212
  22659947.817     6237544.62149   4671710.76746  22659947.415    22659955.239
  22827001.135   -10016728.82649  -7781172.41946  22827001.206    22827008.392
 04  5 20 16 43 30.0000000  0  9G17G30G16G21G 6G29G26G10G18
  22873763.855     5528782.01849   4292182.65646  22873763.673    22873771.942
  22844994.734     5764619.81449   4475618.85546  22844995.388    22845003.011
  24273207.515    -3806201.07749  -2943996.16645  24273207.559    24273214.074
  21342149.732    -7080804.48749  -5511315.25647  21342149.637    21342155.038
  20306127.730    -2295988.35449  -1788768.59048  20306127.950    20306134.320
  23108459.909    -7482800.37549  -5824508.25046  23108460.165    23108468.120
  23042003.437   -10026245.47249  -7800438.79745  23042003.853    23042012.279
  22677389.573     6329201.10549   4743131.34246  22677389.170    22677396.969
  22808272.053   -10115150.82749  -7857864.83946  22808272.072    22808279.282
 04  5 20 16 44  0.0000000  0  9G17G30G16G21G 6G29G26G10G18
  22887209.137     5599437.29849   4347238.66346  22887208.945    22887217.257
  22864297.630     5866056.95349   4554660.71346  22864298.296    22864305.859
  24259081.642    -3880432.18149  -3001838.54945  24259081.726    24259088.431
  21332819.423    -7129835.63949  -5549521.34647  21332819.307    21332824.753
  20307762.166    -2287399.40749  -1782075.91748  20307762.399    20307768.765
  23099777.618    -7528426.78949  -5860061.27945  23099777.787    23099785.501
  23027104.176   -10104540.64249  -7861447.90845  23027104.588    23027113.177
  22694888.019     6421156.20749   4814784.60846  22694887.646    22694895.503
  22789590.076   -10213325.45049  -7934364.49746  22789590.045    22789597.176
 04  5 20 16 44 30.0000000  0  9G17G30G16G21G 6G29G26G10G18
  22900674.067     5670195.52349   4402374.88746  22900673.853    22900682.173
  22883634.185     5967670.84349   4633840.30246  22883634.839    22883642.294
  24245031.485    -3954266.26049  -3059371.58145  24245031.385    24245038.349
  21323531.766    -7178642.34449  -5587552.54147  21323531.686    21323537.151
  20309479.765    -2278373.49949  -1775042.75748  20309479.989    20309486.369
  23091178.424    -7573614.42549  -5895272.35945  23091178.660    23091186.536
  23012273.245   -10182477.65549  -7922177.95446  23012273.794    23012282.160
  22712442.843     6513407.22349   4886668.44646  22712442.493    22712450.359
  22770955.550   -10311250.48749  -8010669.66746  22770955.526    22770962.637
 04  5 20 16 45  0.0000000  0  9G17G30G16G21G 6G29G26G10G18
  22914158.484     5741055.75649   4457590.58446  22914158.228    22914166.574
  22903003.678     6069458.01049   4713154.91546  22903004.320    22903011.838
  24231057.261    -4027701.27749  -3116593.64045  24231057.118    24231064.169
  21314286.865    -7227224.57649  -5625408.82147  21314286.766    21314292.241
  20311280.641    -2268910.12949  -1767668.71348  20311280.843    20311287.219
  23082663.571    -7618360.86749  -5930139.67246  23082663.804    23082671.760
  22997511.282   -10260052.95649  -7982626.18145  22997511.645    22997519.831
  22730053.409     6605951.05649   4958780.46146  22730053.022    22730060.962
  22752368.858   -10408923.95349  -8086778.81546  22752368.823    22752375.931
 04  5 20 16 45 30.0000000  0  9G17G30G16G21G 6G29G26G10G18
  22927662.106     5812017.49049   4512885.36246  22927661.880    22927670.224
  22922405.512     6171415.60949   4792602.33246  22922406.218    22922413.775
  24217159.441    -4100734.86449  -3173502.92445  24217159.459    24217166.311
  21305084.646    -7275582.41349  -5663090.25547  21305084.557    21305090.036
  20313164.857    -2259008.60249  -1759953.25648  20313165.058    20313171.441
  23074233.100    -7662664.21749  -5964661.73146  23074233.171    23074241.019
  22982818.375   -10337263.23649  -8042789.94346  22982818.905    22982827.280
  22747719.144     6698784.96949   5031118.50846  22747718.782    22747726.693
  22733830.430   -10506343.90149  -8162690.41646  22733830.377    22733837.497
 04  5 20 16 46  0.0000000  0  9G17G30G16G21G 6G29G26G10G18
  22941184.878     5883080.05049   4568258.72946  22941184.638    22941193.072
  22941839.332     6273540.52349   4872180.10746  22941840.034    22941847.609
  24203338.479    -4173364.80949  -3230097.67445  24203338.428    24203345.229
  21295925.358    -7323714.92849  -5700596.10647  21295925.268    21295930.757
  20315132.604    -2248668.05149  -1751895.70348  20315132.826    20315139.192
  23065886.886    -7706522.00449  -5998836.59745  23065887.139    23065894.883
  22968196.052   -10414104.87549  -8102666.47746  22968196.508    22968204.734
  22765439.517     6791906.11949   5103680.37746  22765439.154    22765447.101
  22715340.566   -10603508.47149  -8238403.01946  22715340.537    22715347.679
 04  5 20 16 46 30.0000000  0  9G17G30G16G21G 6G29G26G10G18
  22954726.747     5954242.86849   4623710.21146  22954726.514    22954734.922
  22961304.422     6375830.00849   4951886.13746  22961305.049    22961312.672
  24189594.682    -4245588.82749  -3286376.10545  24189594.622    24189601.543
  21286808.889    -7371622.46349  -5737926.64947  21286808.789    21286814.274
  20317184.054    -2237887.86449  -1743495.57248  20317184.256    20317190.602
  23057626.355    -7749932.09849  -6032662.60146  23057626.597    23057634.279
  22953644.233   -10490574.56049  -8162253.17545  22953644.692    22953652.900
  22783214.063     6885311.72149   5176463.89446  22783213.699    22783221.624
  22696899.734   -10700415.39549  -8313914.85346  22696899.674    22696906.838
 04  5 20 16 47  0.0000000  0  9G17G30G16G21G 6G29G26G10G18
  22968287.596     6025505.27549   4679239.28946  22968287.356    22968295.841
  22980800.292     6478280.79749   5031717.84146  22980800.893    22980808.524
  24175928.489    -4317404.62549  -3342336.46145  24175928.413    24175935.513
  21277735.226    -7419304.95049  -5775081.83147  21277735.101    21277740.571
  20319319.236    -2226667.39649  -1734752.36648  20319319.438    20319325.783
  23049451.404    -7792892.22449  -6066137.98346  23049451.547    23049459.273
  22939164.041   -10566668.62549  -8221547.18646  22939164.537    22939172.767
  22801042.192     6978998.94749   5249466.86746  22801041.857    22801049.804
  22678508.355   -10797062.63849  -8389224.33846  22678508.335    22678515.451
 04  5 20 16 47 30.0000000  0  9G17G30G16G21G 6G29G26G10G18
  22981867.224     6096866.57149   4734845.43346  22981866.985    22981875.420
  23000326.321     6580889.99449   5111672.99346  23000326.875    23000334.506
  24162340.418    -4388810.23549  -3397977.17345  24162340.340    24162347.527
  21268704.342    -7466762.58849  -5812061.80647  21268704.222    21268709.693
  20321538.340    -2215006.01149  -1725665.58848  20321538.562    20321544.898
  23041362.215    -7835400.41149  -6099261.20646  23041362.397    23041370.075
  22924755.788   -10642384.07549  -8280546.16946  22924756.271    22924764.632
  22818923.429     7072964.81449   5322686.95846  22818923.018    22818930.998
  22660166.681   -10893448.70749  -8464330.31646  22660166.673    22660173.724
 04  5 20 16 48  0.0000000  0  9G17G30G16G21G 6G29G26G10G18
  22995465.652     6168326.45549   4790528.39746  22995465.420    22995473.849
  23019881.926     6683654.80649   5191749.40046  23019882.567    23019890.056
  24148830.932    -4459803.13949  -3453296.30245  24148830.872    24148838.038
  21259716.356    -7513994.81849  -5848866.13847  21259716.225    21259721.722
  20323841.528    -2202902.78149  -1716234.51548  20323841.747    20323848.088
  23033359.786    -7877454.11149  -6132030.30646  23033359.916    23033367.541
  22910420.319   -10717717.05149  -8339247.12746  22910420.826    22910429.158
  22836857.221     7167207.01449   5396122.37646  22836856.853    22836864.830
  22641875.194   -10989571.22049  -8539230.92646  22641875.166    22641882.186
 04  5 20 16 48 30.0000000  0  9G17G30G16G21G 6G29G26G10G18
  23009082.660     6239884.16249   4846287.57646  23009082.454    23009090.945
  23039466.551     6786572.32349   5271944.80846  23039467.159    23039474.729
  24135400.176    -4530381.42149  -3508292.34845  24135400.171    24135407.380
  21250771.276    -7561001.59849  -5885494.79647  21250771.157    21250776.624
  20326228.911    -2190357.11349  -1706458.68348  20326229.134    20326235.455
  23025444.109    -7919051.08949  -6164443.48246  23025444.237    23025451.988
  22896158.496   -10792664.01249  -8397647.30346  22896158.909    22896167.150
  22854843.069     7261722.73349   5469770.92546  22854842.691    22854850.659
  22623634.234   -11085427.96349  -8613924.44446  22623634.194    22623641.221
 04  5 20 16 49  0.0000000  0  9G17G30G16G21G 6G29G26G10G18
  23022718.262     6311539.58849   4902122.91045  23022718.114    23022726.562
  23059079.729     6889639.87549   5352257.10546  23059080.291    23059087.899
  24122048.972    -4600542.38049  -3562963.20345  24122048.873    24122056.193
  21241869.153    -7607782.60049  -5921947.51947  21241869.010    21241874.497
  20328700.675    -2177367.95649  -1696337.27348  20328700.903    20328707.230
  23017615.742    -7960189.17949  -6196499.07346  23017615.866    23017623.612
  22881970.521   -10867221.47149  -8455743.96746  22881971.041    22881979.166
  22872880.465     7356509.11049   5543630.38246  22872879.984    22872887.949
  22605444.233   -11181016.91549  -8688409.30146  22605444.227    22605451.273
 04  5 20 16 49 30.0000000  0  9G17G30G16G21G 6G29G26G10G18
  23036372.314     6383291.80549   4958033.65245  23036372.171    23036380.641
  23078720.686     6992854.00549   5432683.62046  23078721.334    23078729.016
  24108777.646    -4670284.08049  -3617307.36945  24108777.690    24108784.721
  21233009.986    -7654337.85149  -5958224.33247  21233009.853    21233015.344
  20331256.846    -2163935.22449  -1685870.22548  20331257.064    20331263.377
  23009875.168    -8000866.38149  -6228195.58746  23009875.265    23009882.734
  22867857.378   -10941386.13249  -8513534.56146  22867857.932    22867866.059
  22890968.645     7451562.91749   5617698.21446  22890968.143    22890976.131
  22587305.508   -11276336.12949  -8762683.96546  22587305.534    22587312.594
 04  5 20 16 50  0.0000000  0  9G17G30G16G21G 6G29G26G10G18
  23050044.706     6455140.32149   5014019.44245  23050044.536    23050052.896
  23098389.126     7096212.10149   5513222.33046  23098389.797    23098397.551
  24095586.501    -4739604.40849  -3671323.17445  24095586.483    24095593.612
  21224193.828    -7700666.92249  -5994324.90547  21224193.726    21224199.186
  20333897.611    -2150058.11149  -1675056.90548  20333897.825    20333904.169
  23002222.603    -8041080.36149  -6259531.11046  23002222.733    23002230.323
  22853819.649   -11015154.55249  -8571016.37046  22853820.229    22853828.461
  22909107.272     7546881.91249   5691972.69446  22909106.815    22909114.742
  22569218.469   -11371383.76649  -8836747.02746  22569218.505    22569225.615
 04  5 20 16 50 30.0000000  0  9G17G30G16G21G 6G29G26G10G18
  23063735.268     6527084.14049   5070079.49945  23063735.018    23063743.460
  23118084.257     7199710.70449   5593870.52946  23118084.952    23118092.766
  24082475.953    -4808501.25349  -3725009.01745  24082475.859    24082483.095
  21215420.697    -7746770.19649  -6030249.53247  21215420.600    21215426.043
  20336622.989    -2135736.26549  -1663897.04048  20336623.209    20336629.580
  22994658.455    -8080829.54049  -6290504.44146  22994658.649    22994666.452
  22839858.035   -11088523.73849  -8628187.12846  22839858.585    22839866.625
  22927295.795     7642463.01449   5766451.40846  22927295.303    22927303.312
  22551183.623   -11466157.58449  -8910596.71946  22551183.650    22551190.728
 04  5 20 16 51  0.0000000  0  9G17G30G16G21G 6G29G26G10G18
  23077443.885     6599122.99249   5126213.59145  23077443.588    23077452.088
  23137805.743     7303347.01649   5674626.02846  23137806.320    23137814.189
  24069446.326    -4876972.76649  -3778363.42445  24069446.209    24069453.346
  21206690.486    -7792647.90249  -6065998.38647  21206690.364    21206695.809
  20339433.045    -2120969.11049  -1652390.18548  20339433.283    20339439.673
  22987183.480    -8120111.55749  -6321113.76846  22987183.654    22987191.285
  22825972.969   -11161490.11649  -8685043.97546  22825973.458    22825981.493
  22945533.599     7738303.17749   5841131.97346  22945533.078    22945541.183
  22533201.226   -11560656.04049  -8984231.84546  22533201.230    22533208.243
 04  5 20 16 51 30.0000000  0  9G17G30G16G21G 6G29G26G10G18
  23091170.317     6671256.02749   5182421.08245  23091170.075    23091178.566
  23157552.717     7407118.04249   5755486.48246  23157553.329    23157561.222
  24056498.000    -4945016.72949  -3831384.68445  24056497.883    24056505.040
  21198003.157    -7838300.09849  -6101571.52647  21198003.038    21198008.469
  20342327.999    -2105756.05149  -1640535.86948  20342328.229    20342334.646
  22979797.540    -8158924.59249  -6351357.66846  22979797.707    22979805.201
  22812165.319   -11234050.43049  -8741584.41946  22812165.737    22812173.747
  22963820.091     7834399.61749   5916012.24746  22963819.588    22963827.763
  22515271.612   -11654876.99849  -9057650.74046  22515271.592    22515278.512
 04  5 20 16 52  0.0000000  0  9G17G30G16G21G 6G29G26G10G18
  23104914.790     6743483.32149   5238702.02445  23104914.620    23104923.144
  23177324.828     7511021.02949   5836449.76346  23177325.471    23177333.406
  24043631.440    -5012630.41749  -3884070.66445  24043631.441    24043638.517
  21189359.062    -7883725.37049  -6136967.83547  21189358.912    21189364.325
  20345307.995    -2090096.12349  -1628333.34648  20345308.236    20345314.644
  22972501.345    -8197266.05549  -6381234.09146  22972501.528    22972508.970
  22798435.353   -11306200.86849  -8797805.47546  22798435.762    22798443.840
  22982154.989     7930750.15049   5991090.50146  22982154.496    22982162.712
  22497395.203   -11748818.13749  -9130851.58446  22497395.207    22497402.056
 04  5 20 16 52 30.0000000  0  9G17G30G16G21G 6G29G26G10G18
  23118677.035     6815804.26949   5295055.92945  23118676.893    23118685.413
  23197121.623     7615053.28449   5917513.79846  23197122.267    23197130.173
  24030847.118    -5079811.94749  -3936419.89445  24030847.211    24030854.282
  21180757.998    -7928924.29349  -6172187.76947  21180757.846    21180763.254
  20348373.163    -2073988.80549  -1615782.20448  20348373.394    20348379.773
  22965295.335    -8235134.05749  -6410741.57046  22965295.527    22965303.067
  22784784.121   -11377938.06049  -8853704.54046  22784784.602    22784792.673
  23000537.638     8027351.87849   6066364.50946  23000537.149    23000545.473
  22479572.479   -11842477.20049  -9203832.63446  22479572.456    22479579.267
 04  5 20 16 53  0.0000000  0 10G17G30G16G21G15G 6G29G26G10G18
  23132456.514     6888215.65149   5351480.31845  23132456.343    23132464.904
  23216941.885     7719209.22749   5998674.17946  23216942.485    23216950.455
  24018145.091    -5146561.57449  -3988432.58145  24018145.154    24018152.264
  21172199.527    -7973899.18749  -6207233.13647  21172199.381    21172204.814
  24718015.561    -5406082.17749  -4191180.85745  24718015.424    24718025.476
  20351523.097    -2057435.95949  -1602883.90148  20351523.314    20351529.709
  22958179.124    -8272529.06149  -6439880.49246  22958179.234    22958186.885
  22771211.858   -11449261.00449  -8909280.77846  22771212.288    22771220.393
  23018967.149     8124199.58449   6141830.16546  23018966.700    23018974.970
  22461803.198   -11935855.29049  -9276594.75346  22461803.147    22461809.922
 04  5 20 16 53 30.0000000  0 10G17G30G16G21G15G 6G29G26G10G18
  23146253.279     6960718.08749   5407975.66145  23146253.102    23146261.759
  23236785.331     7823486.77049   6079929.33446  23236785.917    23236793.903
  24005525.774    -5212876.50949  -4040106.52845  24005525.901    24005533.099
  21163683.886    -8018649.11749  -6242103.20747  21163683.767    21163689.174
  24701419.181    -5493297.60549  -4259140.89745  24701418.834    24701428.894
  20354758.049    -2040436.15049  -1589637.31048  20354758.274    20354764.700
  22951153.518    -8309448.24849  -6468648.66346  22951153.726    22951161.255
  22757718.878   -11520165.67049  -8964531.10046  22757719.399    22757727.505
  23037443.157     8221291.17549   6217485.88146  23037442.610    23037450.902
  22444087.627   -12028950.39249  -9349136.34946  22444087.622    22444094.462
 04  5 20 16 54  0.0000000  0 10G17G30G16G21G15G 6G29G26G10G18
  23160067.781     7033313.92549   5464543.76245  23160067.589    23160076.304
  23256651.962     7927886.20749   6161279.45546  23256652.454    23256660.541
  23992990.196    -5278751.54249  -4091437.71645  23992990.258    23992997.438
  21155211.810    -8063170.31549  -6276795.04647  21155211.662    21155217.097
  24684835.173    -5580447.65349  -4327050.01845  24684834.884    24684844.546
  20358078.747    -2022985.87149  -1576039.70648  20358078.955    20358085.409
  22944219.768    -8345886.24249  -6497041.86746  22944219.937    22944227.441
  22744307.011   -11590645.55949  -9019450.42546  22744307.514    22744315.571
  23055965.818     8318627.37049   6293332.18146  23055965.167    23055973.408
  22426427.163   -12121756.26749  -9421452.58046  22426427.158    22426434.063
 04  5 20 16 54 30.0000000  0 10G17G30G16G21G15G 6G29G26G10G18
  23173899.950     7106001.82549   5521183.63345  23173899.703    23173908.430
  23276540.928     8032403.43749   6242721.39446  23276541.505    23276549.568
  23980538.553    -5344185.33049  -4142425.07545  23980538.678    23980545.748
  21146783.070    -8107463.46849  -6311309.18847  21146782.947    21146788.385
  24668263.478    -5667533.03849  -4394908.75545  24668263.216    24668272.701
  20361485.033    -2005085.75549  -1562091.58048  20361485.247    20361491.713
  22937377.472    -8381842.33249  -6525059.55446  22937377.624    22937385.325
  22730976.338   -11660698.45649  -9074037.00746  22730976.813    22730984.938
  23074534.181     8416204.32949   6369366.09346  23074533.593    23074541.764
  22408821.935   -12214272.21749  -9493542.90446  22408821.915    22408828.810
 04  5 20 16 55  0.0000000  0 10G17G30G16G21G15G 6G29G26G10G18
  23187749.665     7178782.01349   5577895.38845  23187749.464    23187758.097
  23296451.962     8137036.47249   6324253.53946  23296452.521    23296460.671
  23968171.369    -5409175.23949  -4193066.55545  23968171.490    23968178.502
  21138397.764    -8151528.62849  -6345645.67747  21138397.642    21138403.091
  24651704.037    -5754552.66149  -4462716.20545  24651703.871    24651713.299
  20364977.264    -1986734.22949  -1547791.70748  20364977.469    20364983.906
  22930627.426    -8417313.64849  -6552699.51446  22930627.617    22930635.285
  22717727.752   -11730320.12349  -9128287.61246  22717728.214    22717736.214
  23093148.010     8514020.12149   6445586.12046  23093147.436    23093155.564
  22391272.283   -12306496.36349  -9565405.84446  22391272.235    22391279.114
 04  5 20 16 55 30.0000000  0 10G17G30G16G21G15G 6G29G26G10G18
  23201616.306     7251651.35749   5634676.62245  23201616.135    23201624.707
  23316384.007     8241779.66549   6405871.51546  23316384.553    23316392.662
  23955888.460    -5473721.79749  -4243362.55045  23955888.563    23955895.765
  21130055.503    -8195367.58449  -6379805.90147  21130055.367    21130060.778
  24635156.796    -5841508.84049  -4530474.25345  24635156.696    24635166.077
  20368554.945    -1967933.54649  -1533141.84048  20368555.153    20368561.584
  22923969.632    -8452301.03349  -6579962.39746  22923969.816    22923977.261
  22704561.244   -11799510.01649  -9182201.72646  22704561.690    22704569.756
  23111806.228     8612069.42649   6521988.10546  23111805.719    23111813.804
  22373778.081   -12398428.76049  -9637041.43246  22373778.036    22373784.980
 04  5 20 16 56  0.0000000  0 10G17G30G16G21G15G 6G29G26G10G18
  23215500.174     7324610.96949   5691528.18545  23215500.004    23215508.572
  23336336.824     8346631.72249   6487574.34246  23336337.390    23336345.422
  23943690.589    -5537821.51549  -4293310.38045  23943690.798    23943697.829
  21121756.617    -8238978.56749  -6413788.48447  21121756.502    21121761.899
  24618621.950    -5928399.63049  -4598181.33545  24618621.713    24618631.377
  20372218.468    -1948681.67649  -1518140.40148  20372218.676    20372225.110
  22917404.483    -8486800.92649  -6606845.38446  22917404.741    22917412.226
  22691477.963   -11868263.13849  -9235775.53646  22691478.416    22691486.532
  23130508.678     8710351.04849   6598571.09746  23130508.182    23130516.333
  22356340.085   -12490065.73349  -9708446.83446  22356340.068    22356347.053
 04  5 20 16 56 30.0000000  0 10G17G30G16G21G15G 6G29G26G10G18
  23229401.080     7397660.13249   5748449.52745  23229400.960    23229409.526
  23356309.697     8451589.62349   6569359.62546  23356310.323    23356318.361
  23931578.237    -5601472.45249  -4342908.50245  23931578.383    23931585.432
  21113501.063    -8282361.96549  -6447593.72147  21113500.937    21113506.294
  24602099.560    -6015225.00649  -4665837.45745  24602099.351    24602109.035
  20375967.906    -1928978.37249  -1502787.18848  20375968.101    20375974.533
  22910932.522    -8520811.59149  -6633347.16246  22910932.771    22910940.250
  22678478.166   -11936576.44749  -9289006.60446  22678478.666    22678486.949
  23149254.659     8808861.93949   6675332.75046  23149254.195    23149262.492
  22338958.726   -12581405.21949  -9779620.42946  22338958.711    22338965.659
 04  5 20 16 57  0.0000000  0 10G17G30G16G21G15G 6G29G26G10G18
  23243318.988     7470798.36849   5805440.27345  23243318.865    23243327.294
  23376302.201     8556650.40449   6651225.09246  23376302.812    23376310.861
  23919551.662    -5664672.54449  -4392155.31945  23919551.749    23919558.919
  21105288.865    -8325517.48649  -6481221.39047  21105288.723    21105294.068
  24585589.775    -6101984.77749  -4733442.42345  24585589.461    24585599.165
  20379803.322    -1908823.06849  -1487081.77148  20379803.516    20379809.963
  22904554.068    -8554331.10449  -6659466.23246  22904554.277    22904561.663
  22665562.896   -12004446.49049  -9341892.27246  22665563.427    22665571.605
  23168043.886     8907599.43649   6752270.98046  23168043.427    23168051.671
  22321634.352   -12672445.55349  -9850560.92046  22321634.334    22321641.212
 04  5 20 16 57 30.0000000  0 10G17G30G16G21G15G 6G29G26G10G18
  23257253.601     7544024.40549   5862499.46045  23257253.478    23257261.775
  23396313.535     8661810.41849   6733167.86046  23396314.079    23396322.185
  23907611.127    -5727420.55749  -4441049.86545  23907611.135    23907618.335
  21097119.865    -8368446.01649  -6514672.18947  21097119.708    21097125.079
  24569092.343    -6188679.37449  -4800996.62845  24569092.132    24569101.678
  20383724.684    -1888216.12149  -1471024.42848  20383724.911    20383731.372
  22898269.098    -8587358.32749  -6685201.71246  22898269.398    22898276.712
  22652732.448   -12071870.92749  -9394430.71046  22652732.920    22652741.122
  23186875.594     9006560.17949   6829383.17646  23186875.031    23186883.358
  22304367.111   -12763185.80949  -9921267.58046  22304367.078    22304373.855
 04  5 20 16 58  0.0000000  0 10G17G30G16G21G15G 6G29G26G10G18
  23271204.860     7617338.56149   5919627.31045  23271204.710    23271213.042
  23416343.282     8767067.20549   6815186.03646  23416343.862    23416351.983
  23895757.129    -5789713.74849  -4489589.98845  23895757.172    23895764.402
  21088994.203    -8411146.53749  -6547945.32647  21088994.053    21088999.424
  24552607.570    -6275307.84849  -4868499.29645  24552607.324    24552616.946
  20387732.232    -1867156.58149  -1454614.42148  20387732.446    20387738.909
  22892078.262    -8619890.85849  -6710551.69646  22892078.514    22892085.963
  22639987.414   -12138845.90549  -9446618.94446  22639987.932    22639995.996
  23205749.358     9105742.29249   6906667.87446  23205748.864    23205757.161
  22287157.321   -12853623.86049  -9991738.76046  22287157.292    22287164.050
 04  5 20 16 58 30.0000000  0 10G17G30G16G21G15G 6G29G26G10G18
  23285172.741     7690739.97449   5976823.12845  23285172.640    23285180.988
  23436390.866     8872418.05749   6897277.50745  23436391.473    23436399.710
  23883990.094    -5851550.45149  -4537774.43245  23883989.998    23883997.368
  21080911.888    -8453619.26349  -6581040.95247  21080911.738    21080917.109
  24536135.328    -6361870.19349  -4935950.42845  24536135.077    24536144.633
  20391825.951    -1845644.09949  -1437851.45748  20391826.162    20391832.618
  22885981.972    -8651927.22349  -6735515.05846  22885982.274    22885989.610
  22627328.619   -12205368.33049  -9498454.52446  22627329.126    22627337.154
  23224664.733     9205142.80349   6984122.74546  23224664.209    23224672.515
  22270005.479   -12943757.69349 -10061972.87846  22270005.416    22270012.168
 04  5 20 16 59  0.0000000  0 10G17G30G16G21G15G 6G29G26G10G18
  23299157.202     7764228.16249   6034086.58545  23299156.990    23299165.377
  23456455.800     8977859.56649   6979439.63345  23456456.453    23456464.734
  23872310.102    -5912928.98149  -4585601.83945  23872310.054    23872317.432
  21072872.939    -8495864.35649  -6613959.20747  21072872.794    21072878.182
  24519675.741    -6448366.30949  -5003349.98245  24519675.472    24519684.769
  20396005.844    -1823678.55949  -1420735.47348  20396006.059    20396012.504
  22879980.560    -8683465.48449  -6760090.30546  22879980.769    22879988.006
  22614756.362   -12271435.10149  -9549935.05246  22614756.869    22614764.983
  23243621.110     9304758.66449   7061745.42046  23243620.626    23243628.904
  22252911.836   -13033585.26949 -10131968.36647  22252911.780    22252918.517
 04  5 20 16 59 30.0000000  0 10G17G30G16G21G15G 6G29G26G10G18
  23313158.018     7837802.72849   6091417.34145  23313157.827    23313166.262
  23476537.378     9083389.13649   7061670.36145  23476538.031    23476546.501
  23860717.781    -5973847.05449  -4633070.47245  23860717.798    23860725.065
  21064877.364    -8537881.40849  -6646699.76247  21064877.209    21064882.617
  24503228.504    -6534795.73449  -5070697.55145  24503228.348    24503237.601
  20400272.092    -1801259.31549  -1403265.94648  20400272.285    20400278.747
  22874073.964    -8714504.11249  -6784276.21246  22874074.217    22874081.459
  22602271.720   -12337042.87249  -9601057.95846  22602272.173    22602280.010
  23262617.884     9404587.18649   7139533.80446  23262617.405    23262625.738
  22235876.853   -13123104.64849 -10201723.70447  22235876.803    22235883.481
 04  5 20 17  0  0.0000000  0 10G17G30G16G21G15G 6G29G26G10G18
  23327175.260     7911463.75949   6148815.46845  23327175.032    23327183.527
  23496635.251     9189004.22749   7143967.73945  23496636.017    23496644.413
  23849213.471    -6034302.43849  -4680178.55245  23849213.533    23849220.783
  21056925.295    -8579669.81649  -6679262.15847  21056925.144    21056930.584
  24486794.359    -6621157.91349  -5137992.72245  24486794.196    24486803.477
  20404624.824    -1778385.75549  -1385442.41148  20404625.012    20404631.476
  22868263.112    -8745040.62449  -6808070.87746  22868263.380    22868270.549
  22589875.007   -12402188.05649  -9651820.35346  22589875.415    22589883.458
  23281654.703     9504626.34049   7217486.29946  23281654.206    23281662.656
  22218900.820   -13212314.03849 -10271237.48247  22218900.775    22218907.476
 04  5 20 17  0 30.0000000  0 10G17G30G16G21G15G 6G29G26G10G18
  23341208.675     7985209.83449   6206279.87145  23341208.498    23341216.976
  23516748.844     9294701.01649   7226328.77746  23516749.513    23516757.929
  23837797.504    -6094294.03149  -4726925.22045  23837797.546    23837804.683
  21049016.664    -8621229.84649  -6711646.59247  21049016.519    21049021.976
  24470372.878    -6707453.39549  -5205235.92045  24470372.473    24470382.018
  20409063.879    -1755058.32549  -1367265.21148  20409064.069    20409070.535
  22862547.952    -8775074.19949  -6831473.63746  22862548.208    22862555.426
  22577566.843   -12466868.47049  -9702220.63246  22577567.235    22577575.128
  23300731.089     9604872.72249   7295600.27846  23300730.490    23300739.084
  22201984.013   -13301212.38249 -10340508.89347  22201983.947    22201990.649
 04  5 20 17  1  0.0000000  0 10G17G30G16G21G15G 6G29G26G10G18
  23355258.180     8059040.78949   6263810.39445  23355258.051    23355266.564
  23536877.651     9400477.07949   7308751.58546  23536878.218    23536886.547
  23826470.241    -6153819.74749  -4773308.90345  23826470.128    23826477.274
  21041151.522    -8662561.28349  -6743852.90247  21041151.384    21041156.833
  24453964.101    -6793681.51549  -5272426.62945  24453963.692    24453973.280
  20413589.488    -1731276.29949  -1348733.78348  20413589.676    20413596.139
  22856928.641    -8804602.91849  -6854482.99346  22856928.858    22856936.272
  22565347.671   -12531080.49949  -9752255.93946  22565348.034    22565355.793
  23319846.366     9705323.90349   7373873.86045  23319845.816    23319854.408
  22185126.784   -13389797.65849 -10409536.34947  22185126.716    22185133.401
 04  5 20 17  1 30.0000000  0 10G17G30G16G21G15G 6G29G26G10G18
  23369323.876     8132956.26249   6321406.80045  23369323.714    23369332.407
  23557020.944     9506329.66449   7391234.00746  23557021.473    23557029.738
  23815231.977    -6212877.54949  -4819327.95045  23815231.988    23815238.961
  21033329.894    -8703664.12349  -6775881.08347  21033329.769    21033335.244
  24437568.246    -6879841.89549  -5339564.57245  24437567.913    24437577.595
  20418201.674    -1707039.35149  -1329847.86148  20418201.853    20418208.328
  22851405.719    -8833624.99349  -6877097.57046  22851406.051    22851413.493
  22553218.217   -12594820.97449  -9801923.78346  22553218.661    22553226.459
  23338999.982     9805977.38049   7452305.05345  23338999.487    23339008.231
  22168329.554   -13478067.59349 -10478318.08947  22168329.505    22168336.147
 04  5 20 17  2  0.0000000  0 10G17G30G16G21G15G 6G29G26G10G18
  23383405.477     8206956.09049   6379068.92245  23383405.345    23383414.242
  23577178.238     9612255.92449   7473773.87645  23577178.770    23577186.886
  23804082.990    -6271465.53349  -4864980.92345  23804083.057    23804089.963
  21025551.838    -8744538.07549  -6807730.90947  21025551.723    21025557.182
  24421185.356    -6965934.13149  -5406649.38645  24421185.125    24421194.730
  20422900.488    -1682347.02149  -1310607.10348  20422900.680    20422907.141
  22845979.964    -8862138.39749  -6899315.80446  22845980.176    22845987.566
  22541179.170   -12658086.58649  -9851221.62246  22541179.477    22541187.299
  23358191.675     9906830.47549   7530891.80445  23358191.221    23358200.017
  22151592.700   -13566020.23649 -10546852.58847  22151592.652    22151599.356
 04  5 20 17  2 30.0000000  0 10G17G30G16G21G15G 6G29G26G10G18
  23397503.231     8281039.76349   6436796.37845  23397502.976    23397512.058
  23597348.894     9718253.06249   7556368.95445  23597349.425    23597357.549
  23793023.822    -6329581.59749  -4910266.15345  23793023.872    23793030.811
  21017817.334    -8785183.18649  -6839402.41847  21017817.218    21017822.637
  24404815.704    -7051957.88549  -5473680.84545  24404815.398    24404824.842
  20427686.025    -1657199.03449  -1291011.28848  20427686.217    20427692.629
  22840651.147    -8890141.70649  -6921136.54846  22840651.327    22840658.757
  22529230.936   -12720874.20349  -9900147.02146  22529231.368    22529239.016
  23377420.889    10007880.28249   7609631.83145  23377420.428    23377429.302
  22134916.493   -13653654.04849 -10615138.65547  22134916.446    22134923.154
 04  5 20 17  3  0.0000000  0 10G17G30G16G21G15G 6G29G26G10G18
  23411616.658     8355206.23349   6494588.34245  23411616.525    23411625.482
  23617532.325     9824317.48149   7639016.45145  23617532.803    23617540.994
  23782054.737    -6387224.54249  -4955182.72745  23782054.766    23782061.707
  21010126.436    -8825599.22549  -6870895.42447  21010126.322    21010131.745
  24388458.919    -7137913.45049  -5540659.19345  24388458.512    24388468.162
  20432558.220    -1631595.61749  -1271060.60048  20432558.404    20432564.843
  22835419.392    -8917633.79949  -6942558.92046  22835419.608    22835427.187
  22517374.423   -12783181.28649  -9948697.93546  22517374.746    22517382.417
  23396687.044    10109123.94449   7688522.91045  23396686.551    23396695.399
  22118301.237   -13740967.78249 -10683175.30347  22118301.169    22118307.894
 04  5 20 17  3 30.0000000  0 10G17G30G16G21G15G 6G29G26G10G18
  23425746.121     8429455.78449   6552445.05845  23425745.784    23425754.791
  23637728.135     9930446.99849   7721714.68245  23637728.621    23637736.840
  23771175.921    -6444392.08249  -4999728.85545  23771176.027    23771183.035
  21002479.165    -8865785.85649  -6902209.68047  21002479.036    21002484.457
  24372115.120    -7223800.05249  -5607583.78845  24372114.676    24372124.641
  20437517.223    -1605536.09749  -1250754.50448  20437517.411    20437523.865
  22830285.470    -8944612.58949  -6963581.33946  22830285.732    22830293.182
  22505609.847   -12845004.28249  -9996871.65646  22505610.241    22505617.814
  23415989.668    10210559.16449   7767563.26445  23415989.168    23415997.925
  22101747.381   -13827958.79949 -10750960.48147  22101747.309    22101754.036
 04  5 20 17  4  0.0000000  0 10G17G30G16G21G15G 6G29G26G10G18
  23439891.011     8503787.77849   6610366.00945  23439890.691    23439899.755
  23657935.749    10036638.53649   7804461.25245  23657936.221    23657944.537
  23760388.083    -6501082.47149  -5043903.18045  23760388.195    23760395.235
  20994875.546    -8905743.09149  -6933345.17847  20994875.430    20994880.860
  24355784.427    -7309617.59249  -5674454.57245  24355784.091    24355794.231
  20442563.056    -1579020.20449  -1230092.79048  20442563.238    20442569.691
  22825249.612    -8971076.39749  -6984202.48346  22825249.888    22825257.212
  22493938.120   -12906340.00649 -10044665.70446  22493938.511    22493945.947
  23435328.166    10312183.09249   7846750.66246  23435327.750    23435336.386
  22085255.193   -13914625.87349 -10818493.23547  22085255.116    22085261.836
 04  5 20 17  4 30.0000000  0 10G17G30G16G21G15G 6G29G26G10G18
  23454051.600     8578201.73949   6668350.84045  23454051.299    23454060.340
  23678154.557    10142889.45649   7887254.07745  23678155.074    23678163.455
  23749691.462    -6557294.06949  -5087704.41145  23749691.421    23749698.527
  20987315.581    -8945471.21749  -6964302.15747  20987315.454    20987320.849
  24339466.972    -7395365.73049  -5741271.27345  24339466.728    24339476.732
  20447695.790    -1552047.68049  -1209075.26448  20447695.975    20447702.446
  22820311.984    -8997023.83949  -7004421.26046  22820312.186    22820319.607
  22482359.482   -12967185.67549 -10092077.84746  22482359.877    22482367.569
  23454702.258    10413993.51049   7926083.37046  23454701.747    23454710.306
  22068825.043   -14000966.84049 -10885771.87847  22068824.990    22068831.688
 04  5 20 17  5  0.0000000  0 10G17G30G16G21G15G 6G29G26G10G18
  23468227.663     8652697.07349   6726399.09245  23468227.444    23468236.450
  23698384.085    10249196.41149   7970090.57745  23698384.690    23698393.139
  23739086.128    -6613025.01849  -5131131.13245  23739086.112    23739093.240
  20979799.274    -8984969.69549  -6995080.18347  20979799.137    20979804.530
  24323163.019    -7481044.45249  -5808033.88245  24323162.685    24323172.408
  20452915.362    -1524618.62649  -1187701.99448  20452915.541    20452922.015
  22815472.819    -9022453.56949  -7024236.62046  22815473.027    22815480.629
  22470874.711   -13027538.27349 -10139105.85446  22470875.186    22470882.639
  23474111.183    10515987.64449   8005559.23046  23474110.611    23474119.189
  22052457.194   -14086980.46649 -10952795.45647  22052457.121    22052463.808
 04  5 20 17  5 30.0000000  0 10G17G30G16G21G15G 6G29G26G10G18
  23482419.079     8727273.29949   6784510.32845  23482418.839    23482427.983
  23718623.758    10355556.61349   8052968.56545  23718624.369    23718632.929
  23728572.662    -6668274.09649  -5174182.36045  23728572.591    23728579.738
  20972326.657    -9024238.63249  -7025679.34447  20972326.510    20972331.918
  24306872.155    -7566653.69449  -5874742.33845  24306871.812    24306881.535
  20458221.769    -1496733.28049  -1165973.17948  20458221.948    20458228.433
  22810732.562    -9047364.36849  -7043647.63146  22810732.738    22810740.249
  22459484.297   -13087395.20849 -10185747.57946  22459484.733    22459492.255
  23493554.487    10618162.18049   8085175.67546  23493553.861    23493562.435
  22036152.006   -14172664.99549 -11019562.59147  22036151.910    22036158.555
 04  5 20 17  6  0.0000000  0 10G17G30G16G21G15G 6G29G26G10G18
  23496625.821     8801930.23949   6842684.50045  23496625.634    23496634.760
  23738873.096    10461967.39849   8135885.97445  23738873.810    23738882.404
  23718151.341    -6723038.94049  -5216856.25845  23718151.156    23718158.342
  20964897.784    -9063277.44449  -7056099.18847  20964897.653    20964903.074
  24290594.480    -7652192.70149  -5941396.10345  24290594.251    24290604.068
  20463615.197    -1468390.76549  -1143888.12248  20463615.384    20463621.881
  22806091.432    -9071754.21149  -7062652.70146  22806091.621    22806098.939
  22448188.914   -13146752.93249 -10232000.30746  22448189.402    22448196.964
  23513031.594    10720515.10649   8164931.10746  23513031.027    23513039.531
  22019909.742   -14258018.50549 -11086071.78647  22019909.644    22019916.313
 04  5 20 17  6 30.0000000  0 10G17G30G16G21G15G 6G29G26G10G18
  23510847.886     8876667.30849   6900921.08845  23510847.629    23510856.813
  23759131.485    10568425.74249   8218840.41845  23759132.235    23759140.810
  23707822.204    -6777318.11549  -5259151.70545  23707822.166    23707829.368
  20957512.715    -9102086.30049  -7086339.84747  20957512.566    20957518.033
  24274330.390    -7737661.40849  -6007995.03045  24274330.151    24274339.801
  20469095.609    -1439591.11549  -1121446.86248  20469095.780    20469102.295
  22801549.556    -9095621.87249  -7081250.85746  22801549.716    22801556.957
  22436989.064   -13205608.68449 -10277861.91446  22436989.455    22436996.967
  23532542.174    10823043.52049   8244823.29846  23532541.620    23532550.082
  22003730.775   -14343039.30449 -11152321.72647  22003730.704    22003737.362
 04  5 20 17  7  0.0000000  0 10G17G30G16G21G15G 6G29G26G10G18
  23525085.258     8951484.58449   6959220.17345  23525085.062    23525094.115
  23779398.540    10674929.33249   8301830.13445  23779399.284    23779407.886
  23697586.130    -6831109.50149  -5301067.06645  23697586.043    23697593.302
  20950171.514    -9140664.66949  -7116400.90947  20950171.368    20950176.820
  24258079.635    -7823059.15049  -6074538.67545  24258079.370    24258089.004
  20474663.075    -1410333.94849  -1098649.09948  20474663.256    20474669.778
  22797107.482    -9118965.42649  -7099440.64146  22797107.591    22797114.876
  22425885.185   -13263959.03649 -10323329.67546  22425885.632    22425893.203
  23552085.821    10925745.50749   8324850.73046  23552085.250    23552093.655
  21987615.555   -14427725.33449 -11218310.81447  21987615.490    21987622.091
 04  5 20 17  7 30.0000000  0 11G17G30G16G21G15G 6G29G26G22G10G18
  23539337.363     9026378.54549   7017579.05445  23539337.075    23539346.023
  23799673.133    10781472.13249   8384850.40645  23799673.779    23799682.447
  23687442.533    -6884414.43949  -5342603.37645  23687442.444    23687449.619
  20942873.651    -9179015.25049  -7146284.47147  20942873.480    20942878.912
  24241841.955    -7908388.85349  -6141029.32945  24241841.722    24241851.198
  20480317.081    -1380622.11649  -1075497.04248  20480317.241    20480323.780
  22792764.781    -9141786.53449  -7117223.30746  22792764.967    22792772.270
  22414877.708   -13321804.26849 -10368403.85646  22414878.143    22414885.760
  24621188.604    -6106450.50749  -4385751.92545  24621188.437    24621196.107
  23571661.401    11028615.06549   8405008.73945  23571660.769    23571669.186
  21971563.699   -14512078.25349 -11284040.32847  21971563.643    21971570.220
 04  5 20 17  8  0.0000000  0 11G17G30G16G21G15G 6G29G26G22G10G18
  23553604.180     9101351.10649   7075999.13945  23553604.009    23553612.986
  23819954.886    10888053.65549   8467900.84045  23819955.567    23819964.346
  23677392.267    -6937229.11149  -5383757.66045  23677392.123    23677399.396
  20935619.480    -9217136.19749  -7175989.10047  20935619.302    20935624.742
  24225617.752    -7993647.89449  -6207464.90045  24225617.454    24225626.979
  20486058.045    -1350453.12349  -1051988.75548  20486058.227    20486064.773
  22788522.190    -9164081.47549  -7134595.98946  22788522.384    22788529.694
  22403966.964   -13379139.18249 -10413080.36446  22403967.496    22403975.202
  24600496.100    -6215190.67349  -4470484.39445  24600495.891    24600503.470
  23591268.654    11131651.95749   8485297.14545  23591268.085    23591276.533
  21955575.968   -14596094.31549 -11349507.36147  21955575.921    21955582.484
 04  5 20 17  8 30.0000000  0 11G17G30G16G21G15G 6G29G26G22G10G18
  23567886.255     9176403.85849   7134481.72345  23567886.072    23567895.249
  23840243.956    10994673.04649   8550980.79545  23840244.722    23840253.478
  23667436.053    -6989549.69149  -5424526.92945  23667435.905    23667443.160
  20928409.446    -9255025.02849  -7205512.86847  20928409.274    20928414.697
  24209407.132    -8078834.12649  -6273843.73245  24209406.947    24209416.601
  20491886.434    -1319824.97549  -1028122.69048  20491886.612    20491893.148
  22784380.293    -9185847.10649  -7151556.22046  22784380.502    22784387.764
  22393154.649   -13435958.71149 -10457355.31746  22393155.161    22393162.711
  24579824.913    -6323819.14649  -4555129.82345  24579824.641    24579832.245
  23610907.762    11234855.66549   8565715.54045  23610907.209    23610915.622
  21939653.090   -14679769.24049 -11414708.57147  21939653.084    21939659.644
 04  5 20 17  9  0.0000000  0 11G17G30G16G21G15G 6G29G26G22G10G18
  23582183.375     9251535.51149   7193025.79845  23582183.164    23582192.355
  23860539.489    11101326.49749   8634087.27345  23860540.212    23860548.969
  23657573.832    -7041375.71549  -5464910.83545  23657573.703    23657580.875
  20921243.513    -9292682.26949  -7234856.16847  20921243.335    20921248.779
  24193210.338    -8163948.22149  -6340166.35045  24193210.218    24193219.897
  20497801.983    -1288738.55349  -1003899.51848  20497802.157    20497808.711
  22780339.297    -9207082.74449  -7168103.46146  22780339.439    22780346.707
  22382440.680   -13492260.86049 -10501227.08146  22382441.159    22382448.865
  24559175.139    -6432334.80249  -4639687.36945  24559174.907    24559182.253
  23630577.931    11338222.56649   8646261.09445  23630577.361    23630585.798
  21923795.230   -14763102.71949 -11479643.71647  21923795.222    21923801.805
 04  5 20 17  9 30.0000000  0 11G17G30G16G21G15G 6G29G26G22G10G18
  23596495.483     9326745.46849   7251630.89245  23596495.296    23596504.565
  23880841.062    11208011.08049   8717218.01445  23880841.618    23880850.501
  23647806.033    -7092705.67949  -5504908.19945  23647805.925    23647813.177
  20914121.602    -9330108.07649  -7264019.13147  20914121.435    20914126.883
  24177027.388    -8248990.03149  -6406432.64745  24177027.332    24177036.960
  20503804.708    -1257193.84349   -979319.24248  20503804.901    20503811.477
  22776399.394    -9227787.29749  -7184236.87046  22776399.516    22776406.763
  22371825.656   -13548043.11849 -10544693.75746  22371826.197    22371833.741
  24538547.107    -6540736.15549  -4724155.84245  24538546.837    24538554.010
  23650278.771    11441750.17849   8726931.87945  23650278.153    23650286.595
  21908002.789   -14846092.66349 -11544311.17847  21908002.765    21908009.334
 04  5 20 17 10  0.0000000  0 11G17G30G16G21G15G 6G29G26G22G10G18
  23610822.264     9402032.94049   7310296.37645  23610821.958    23610831.226
  23901147.928    11314723.52849   8800370.48245  23901148.439    23901157.298
  23638132.879    -7143538.36549  -5544518.08745  23638132.771    23638139.983
  20907043.708    -9367302.71649  -7293001.96947  20907043.535    20907049.008
  24160858.348    -8333959.71249  -6472642.74745  24160858.276    24160867.795
  20509894.587    -1225191.40349   -954382.30148  20509894.785    20509901.356
  22772560.654    -9247960.16549  -7199955.98946  22772560.745    22772568.001
  22361310.139   -13603303.01349 -10587753.39446  22361310.528    22361318.092
  24517941.028    -6649021.61249  -4808534.00645  24517940.763    24517947.895
  23670009.442    11545435.42349   8807725.49645  23670008.894    23670017.355
  21892275.837   -14928738.40349 -11608710.42447  21892275.793    21892282.365
 04  5 20 17 10 30.0000000  0 11G17G30G16G21G15G 6G29G26G22G10G18
  23625163.868     9477398.11349   7369022.43445  23625163.609    23625172.822
  23921459.616    11421461.50849   8883542.80445  23921460.117    23921468.932
  23628554.706    -7193871.79649  -5583738.93145  23628554.582    23628561.826
  20900009.888    -9404265.66549  -7321804.26447  20900009.724    20900015.188
  24144703.122    -8418856.53049  -6538796.06245  24144703.010    24144712.544
  20516071.691    -1192730.71849   -929088.28548  20516071.869    20516078.427
  22768823.357    -9267599.18449  -7215259.10746  22768823.472    22768830.853
  22350894.385   -13658037.26849 -10630403.42546  22350894.877    22350902.567
  24497357.440    -6757188.77649  -4892819.98745  24497357.163    24497364.375
  23689769.701    11649276.09149   8888640.21645  23689769.164    23689777.716
  21876614.820   -15011037.57449 -11672839.61847  21876614.785    21876621.337
 04  5 20 17 11  0.0000000  0 11G17G30G16G21G15G 6G29G26G22G10G18
  23639519.872     9552839.84449   7427808.08545  23639519.682    23639528.914
  23941775.713    11528221.87049   8966732.59145  23941776.133    23941784.908
  23619071.757    -7243704.70549  -5622569.75445  23619071.647    23619078.861
  20893020.141    -9440997.16849  -7350426.21147  20893019.973    20893025.429
  24128561.635    -8503680.56549  -6604892.65645  24128561.385    24128570.961
  20522335.969    -1159812.03149   -903437.38348  20522336.152    20522342.714
  22765187.770    -9286703.98549  -7230145.96546  22765187.928    22765195.251
  22340579.419   -13712243.35449 -10672641.92946  22340579.829    22340587.364
  24476796.571    -6865235.92049  -4977012.45445  24476796.357    24476803.765
  23709558.921    11753269.40449   8969673.87345  23709558.484    23709567.043
  21861019.903   -15092989.18649 -11736697.98547  21861019.861    21861026.444
 04  5 20 17 11 30.0000000  0 11G17G30G16G21G15G 6G29G26G22G10G18
  23653890.656     9628358.50649   7486653.73345  23653890.542    23653899.664
  23962095.368    11635002.05149   9049937.81445  23962095.886    23962104.563
  23609684.616    -7293035.13949  -5661009.05545  23609684.456    23609691.624
  20886074.483    -9477496.73649  -7378867.43347  20886074.342    20886079.791
  24112434.018    -8588431.48949  -6670932.28545  24112433.869    24112443.118
  20528687.386    -1126435.17249   -877429.46348  20528687.565    20528694.134
  22761654.401    -9305272.48549  -7244614.92346  22761654.564    22761661.668
  22330365.319   -13765918.22549 -10714466.47846  22330365.749    22330373.267
  24456258.902    -6973161.08049  -5061109.86545  24456258.774    24456266.194
  23729376.782    11857412.96849   9050824.61745  23729376.364    23729384.959
  21845491.511   -15174591.27349 -11800283.99847  21845491.501    21845498.080
 04  5 20 17 12  0.0000000  0 11G17G30G16G21G15G 6G29G26G22G10G18
  23668275.839     9703953.05249   7545558.49045  23668275.703    23668284.801
  23982418.152    11741798.60749   9133155.79445  23982418.657    23982427.429
  23600393.216    -7341862.17849  -5699056.08045  23600393.048    23600400.110
  20879172.888    -9513764.72949  -7407128.20447  20879172.749    20879178.173
  24096320.382    -8673109.43849  -6736915.04745  24096320.175    24096329.487
  20535125.939    -1092600.54749   -851064.84348  20535126.128    20535132.689
  22758223.020    -9323304.21349  -7258665.61346  22758223.210    22758230.330
  22320252.963   -13819059.69549 -10755875.37946  22320253.350    22320260.918
  24435744.840    -7080962.83749  -5145111.12045  24435744.826    24435752.240
  23749222.690    11961703.82549   9132090.13645  23749222.325    23749230.805
  21830029.823   -15255842.83349 -11863596.87347  21830029.795    21830036.379
 04  5 20 17 12 30.0000000  0 11G17G30G16G21G15G 6G29G26G22G10G18
  23682675.469     9779623.22149   7604522.17245  23682675.315    23682684.448
  24002743.617    11848609.09549   9216384.63045  24002744.096    24002752.983
  23591197.742    -7390184.54749  -5736709.86445  23591197.634    23591204.628
  20872315.446    -9549800.89749  -7435208.33247  20872315.317    20872320.727
  24080220.575    -8757713.93349  -6802840.57045  24080220.341    24080229.801
  20541651.552    -1058308.26549   -824343.61348  20541651.740    20541658.320
  22754894.033    -9340797.90149  -7272297.04646  22754894.225    22754901.461
  22310242.471   -13871664.88549 -10796866.41146  22310242.821    22310250.375
  24415254.608    -7188638.95449  -5229014.48545  24415254.671    24415262.086
  23769096.258    12066139.58049   9213468.54745  23769095.778    23769104.291
  21814635.213   -15336741.92649 -11926635.09647  21814635.172    21814641.751
 04  5 20 17 13  0.0000000  0 11G17G30G16G21G15G 6G29G26G22G10G18
  23697089.471     9855368.83049   7663544.66145  23697089.147    23697098.415
  24023071.182    11955430.61449   9299622.05745  24023071.683    24023080.636
  23582098.731    -7438000.27949  -5773968.87445  23582098.623    23582105.664
  20865502.176    -9585604.82049  -7463107.49247  20865502.053    20865507.460
  24064134.955    -8842244.53149  -6868708.52345  24064134.746    24064144.016
  20548264.378    -1023557.80749   -797265.35948  20548264.552    20548271.129
  22751667.755    -9357752.27549  -7285508.23846  22751667.918    22751675.280
  22300334.532   -13923730.91149 -10837437.32646  22300334.970    22300342.522
  24394788.672    -7296187.65349  -5312818.58345  24394788.690    24394796.282
  23788996.899    12170717.58349   9294957.81245  23788996.370    23789004.896
  21799308.032   -15417286.63649 -11989397.17647  21799307.993    21799314.592
 04  5 20 17 13 30.0000000  0 11G17G30G16G21G15G 6G29G26G22G10G18
  23711517.840     9931189.49649   7722625.60045  23711517.457    23711526.674
  24043400.281    12062260.69149   9382866.15345  24043400.789    24043409.807
  23573096.399    -7485307.62049  -5810831.72745  23573096.315    23573103.413
  20858733.154    -9621176.24049  -7490825.48147  20858733.040    20858738.437
  24048063.513    -8926700.98449  -6934518.68545  24048063.163    24048072.345
  20554964.313     -988349.58649   -769830.41248  20554964.474    20554971.061
  22748544.364    -9374165.92949  -7298298.10346  22748544.550    22748551.760
  22290529.960   -13975254.88549 -10877585.84446  22290530.307    22290538.013
  24374347.186    -7403606.94749  -5396521.85245  24374347.341    24374354.822
  23808924.190    12275435.41649   9376556.02145  23808923.574    23808932.155
  21784048.537   -15497475.78149 -12051882.19147  21784048.487    21784055.088
 04  5 20 17 14  0.0000000  0 11G17G30G16G21G15G 6G29G26G22G10G18
  23725960.420    10007085.06349   7781764.93445  23725960.019    23725969.177
  24063730.496    12169096.33649   9466114.58545  24063730.905    24063740.116
  23564191.071    -7532105.65149  -5847297.70445  23564190.970    23564198.105
  20852008.438    -9656514.90049  -7518362.09347  20852008.295    20852013.708
  24032006.113    -9011083.14349  -7000270.96245  24032005.818    24032014.984
  20561751.321     -952683.50549   -742038.69248  20561751.496    20561758.116
  22745524.025    -9390037.91049  -7310665.86546  22745524.211    22745531.365
  22280828.786   -14026234.30549 -10917310.02446  22280829.193    22280836.877
  24353930.797    -7510894.44249  -5480122.43045  24353931.045    24353938.415
  23828877.619    12380290.76049   9458261.41245  23828877.041    23828885.619
  21768857.014   -15577307.62749 -12114088.79147  21768856.964    21768863.567
 04  5 20 17 14 30.0000000  0 11G17G30G16G21G15G 6G29G26G22G10G18
  23740417.037    10083054.63649   7840961.92745  23740416.681    23740425.804
  24084061.181    12275934.54949   9549365.02045  24084061.681    24084070.942
  23555382.840    -7578393.28249  -5883365.98045  23555382.817    23555389.883
  20845327.856    -9691621.45049  -7545717.84347  20845327.720    20845333.129
  24015962.863    -9095391.16149  -7065965.47645  24015962.505    24015971.658
  20568625.386     -916560.15649   -713890.65348  20568625.557    20568632.211
  22742606.906    -9405367.47749  -7322610.98846  22742607.120    22742614.235
  22271231.790   -14076666.87149 -10956608.12946  22271232.217    22271239.665
  24333539.803    -7618049.19749  -5563619.57145  24333540.061    24333547.436
  23848856.715    12485280.67949   9540071.65245  23848856.061    23848864.607
  21753733.634   -15656781.40649 -12176016.37847  21753733.564    21753740.174
 04  5 20 17 15  0.0000000  0 11G17G30G16G21G15G 6G29G26G22G10G18
  23754887.654    10159097.67049   7900216.14045  23754887.264    23754896.495
  24104391.697    12382772.34649   9632615.13145  24104392.257    24104401.645
  23546672.111    -7624168.93049  -5919035.31745  23546672.078    23546679.023
  20838691.609    -9726495.43049  -7572892.36647  20838691.454    20838696.869
  23999933.682    -9179624.61349  -7131601.87245  23999933.342    23999942.520
  20575586.414     -879979.71749   -685386.44847  20575586.588    20575593.258
  22739793.187    -9420153.64249  -7334132.66346  22739793.438    22739800.519
  22261739.383   -14126549.83449 -10995477.92946  22261739.738    22261747.324
  24313174.459    -7725069.28849  -5647011.78245  24313174.700    24313182.009
  23868860.931    12590402.65349   9621984.80545  23868860.252    23868868.747
  21738678.706   -15735895.46049 -12237663.65747  21738678.626    21738685.245
 04  5 20 17 15 30.0000000  0 11G17G30G16G21G15G 6G29G26G22G10G18
  23769372.188    10235214.71849   7959528.06245  23769372.036    23769381.049
  24124721.883    12489607.81549   9715863.40545  24124722.442    24124731.851
  23538059.114    -7669430.49449  -5954304.06045  23538059.111    23538066.064
  20832099.704    -9761136.13349  -7599885.11447  20832099.538    20832104.963
  23983918.866    -9263782.59349  -7197179.46745  23983918.449    23983927.839
  20582634.563     -842941.54849   -656525.56547  20582634.738    20582641.397
  22737083.251    -9434394.69449  -7345229.57746  22737083.464    22737090.574
  22252352.142   -14175880.13349 -11033917.08246  22252352.546    22252360.118
  24292835.255    -7831951.92749  -5730296.88445  24292835.599    24292842.913
  23888889.825    12695654.85849   9703999.40845  23888889.216    23888897.738
  21723692.626   -15814647.55749 -12299028.88747  21723692.551    21723699.187
 04  5 20 17 16  0.0000000  0 11G17G30G16G21G15G 6G29G26G22G10G18
  23783870.857    10311405.45749   8018897.37545  23783870.739    23783879.923
  24145051.177    12596438.10449   9799107.65845  24145051.719    24145061.167
  23529544.176    -7714176.65449  -5989171.19845  23529544.126    23529551.141
  20825552.281    -9795543.19249  -7626695.80547  20825552.120    20825557.545
  23967918.484    -9347864.87449  -7262698.06845  23967918.085    23967927.436
  20589769.811     -805445.84549   -627308.16947  20589769.979    20589776.633
  22734477.258    -9448089.53149  -7355900.87646  22734477.439    22734484.532
  22243070.790   -14224654.93749 -11071923.42546  22243071.103    22243078.401
  24272522.636    -7938695.33749  -5813473.51845  24272522.992    24272530.268
  23908943.022    12801034.75349   9786113.53045  23908942.424    23908951.015
  21708775.727   -15893036.21849 -12360110.93047  21708775.677    21708782.300
 04  5 20 17 16 30.0000000  0 11G17G30G16G21G15G 6G29G26G22G10G18
  23798383.346    10387668.88449   8078323.35445  23798383.193    23798392.442
  24165378.783    12703259.91449   9882345.29745  24165379.336    24165388.771
  23521127.482    -7758406.62949  -6023636.11545  23521127.343    23521134.429
  20819049.156    -9829717.26949  -7653324.95247  20819049.002    20819054.402
  23951932.566    -9431871.75849  -7328157.93145  23951932.122    23951941.305
  20596992.023     -767493.12549   -597734.65847  20596992.199    20596998.840
  22731975.320    -9461237.70649  -7366146.22146  22731975.481    22731982.514
  22233895.238   -14272872.33749 -11109495.38646  22233895.614    22233903.028
  24252236.747    -8045298.08649  -5896540.54445  24252237.076    24252244.420
  23929019.819    12906539.36649   9868324.81945  23929019.344    23929028.012
  21693928.191   -15971060.50149 -12420909.04747  21693928.126    21693934.716
 04  5 20 17 17  0.0000000  0 11G17G30G16G21G15G 6G29G26G22G10G18
  23812909.689    10464005.30649   8137806.13645  23812909.436    23812918.895
  24185704.393    12810070.98149   9965574.54145  24185704.964    24185714.209
  23512809.352    -7802118.65049  -6057697.45145  23512809.241    23512816.359
  20812590.570    -9863657.52349  -7679771.90747  20812590.413    20812595.801
  23935961.111    -9515802.50449  -7393558.46745  23935960.749    23935969.682
  20604301.254     -729083.20849   -567804.89048  20604301.409    20604308.040
  22729577.590    -9473837.88349  -7375964.55246  22729577.741    22729584.822
  22224826.463   -14320529.26549 -11146630.62646  22224826.882    22224834.320
  24231978.221    -8151757.88249  -5979496.21545  24231978.510    24231985.683
  23949119.987    13012166.85949   9950631.84445  23949119.619    23949128.408
  21679150.411   -16048718.21349 -12481421.53047  21679150.347    21679156.919
 04  5 20 17 17 30.0000000  0 11G17G30G16G21G15G 6G29G26G22G10G18
  23827449.953    10540414.00349   8197345.30245  23827449.680    23827459.042
  24206027.452    12916868.45549  10048793.19845  24206027.875    24206037.138
  23504589.943    -7845311.91649  -6091354.53445  23504589.841    23504596.870
  20806176.452    -9897364.10749  -7706036.77647  20806176.284    20806181.655
  23920004.107    -9599657.24149  -7458899.78045  23920003.727    23920012.727
  20611697.354     -690216.52849   -537519.19347  20611697.509    20611704.137
  22727284.163    -9485889.34449  -7385355.30646  22727284.329    22727291.446
  22215864.767   -14367623.45349 -11183327.37946  22215865.127    22215872.359
  24211747.078    -8258073.41749  -6062339.44645  24211747.345    24211754.392
  23969243.043    13117914.15949  10033032.25045  23969242.759    23969251.419
  21664442.569   -16126008.33549 -12541647.56747  21664442.519    21664449.087
 04  5 20 17 18  0.0000000  0 11G17G30G16G21G15G 6G29G26G22G10G18
  23842003.778    10616894.84749   8256940.67845  23842003.455    23842012.878
  24226347.405    13023649.50549  10131999.09445  24226347.759    24226357.220
  23496469.542    -7887984.58249  -6124605.95745  23496469.482    23496476.555
  20799806.858    -9930836.66349  -7732119.28447  20799806.683    20799812.051
  23904061.481    -9683435.39749  -7524181.41045  23904061.213    23904070.246
  20619180.332     -650893.22949   -506877.70047  20619180.498    20619187.155
  22725095.523    -9497390.76349  -7394317.45846  22725095.674    22725102.782
  22207010.521   -14414152.25349 -11219583.55846  22207010.966    22207018.233
  24191543.870    -8364242.36449  -6145068.45845  24191544.122    24191551.102
  23989388.585    13223779.30749  10115524.49445  23989388.362    23989396.992
  21649805.076   -16202929.12849 -12601585.81947  21649804.982    21649811.530
 04  5 20 17 18 30.0000000  0 11G17G30G16G21G15G 6G29G26G22G10G18
  23856571.274    10693447.54549   8316592.01945  23856570.980    23856580.529
  24246663.557    13130411.50449  10215190.12545  24246663.934    24246673.404
  23488448.406    -7930135.44849  -6157450.78445  23488448.365    23488455.464
  20793481.801    -9964074.94349  -7758019.24047  20793481.642    20793487.010
  23888133.594    -9767136.82449  -7589403.26345  23888133.349    23888142.412
  20626750.190     -611113.62449   -475880.63747  20626750.368    20626757.015
  22723011.737    -9508341.55849  -7402850.55446  22723011.877    22723019.057
  22198264.553   -14460113.16749 -11255397.22746  22198264.901    22198272.236
  24171368.938    -8470262.88349  -6227681.79345  24171369.079    24171376.120
  24009556.152    13329759.90349  10198106.67545  24009555.770    24009564.487
  21635237.989   -16279479.38649 -12661235.33747  21635237.926    21635244.490
 04  5 20 17 19  0.0000000  0 11G17G30G16G21G15G 6G29G26G22G10G18
  23871152.545    10770071.35049   8376298.81445  23871152.275    23871161.714
  24266975.500    13237151.62849  10298364.10645  24266975.882    24266985.665
  23480526.886    -7971763.64549  -6189888.33445  23480526.929    23480533.847
  20787201.294    -9997079.14549  -7783736.79447  20787201.160    20787206.484
  23872220.166    -9850761.57649  -7654565.35945  23872219.946    23872228.992
  20634406.867     -570877.96949   -444528.21447  20634407.037    20634413.652
  22721032.835    -9518740.93249  -7410953.96846  22721032.976    22721040.200
  22189626.737   -14505504.05849 -11290766.71846  22189627.111    22189634.511
  24151222.613    -8576133.35249  -6310178.23745  24151222.706    24151229.538
  24029745.120    13435853.15349  10280776.66945  24029744.714    24029753.575
  21620741.733   -16355657.67949 -12720595.01847  21620741.662    21620748.218
 04  5 20 17 19 30.0000000  0 11G17G30G16G21G15G 6G29G26G22G10G18
  23885747.202    10846766.10849   8436060.88045  23885746.862    23885756.294
  24287282.910    13343866.79649  10381518.66845  24287283.343    24287292.954
  23472705.094    -8012867.96249  -6221917.67545  23472705.054    23472711.967
  20780965.393   -10029848.95949  -7809271.71247  20780965.267    20780970.614
  23856321.540    -9934309.28949  -7719667.43045  23856321.333    23856330.381
  20642150.217     -530186.59649   -412820.68347  20642150.367    20642157.006
  22719159.000    -9528588.13549  -7418627.11846  22719159.103    22719166.374
  22181098.113   -14550322.38749 -11325690.07446  22181098.515    22181105.903
  24131105.057    -8681851.82649  -6392556.22945  24131105.163    24131111.976
  24049955.104    13542056.66549  10363532.55145  24049954.603    24049963.622
  21606316.541   -16431462.46249 -12779663.64547  21606316.469    21606323.001
 04  5 20 17 20  0.0000000  0 11G17G30G16G21G15G 6G29G26G22G10G18
  23900355.263    10923532.02649   8495878.39145  23900355.038    23900364.560
  24307585.062    13450555.18149  10464652.33245  24307585.588    24307594.971
  23464983.150    -8053446.53049  -6253537.32345  23464983.191    23464990.071
  20774774.274   -10062383.48849  -7834623.29047  20774774.153    20774779.507
  23840437.650   -10017779.34649  -7784708.96745  23840437.449    23840446.567
  20649980.260     -489039.29749   -380757.88647  20649980.416    20649987.102
  22717390.422    -9537881.89849  -7425869.03546  22717390.518    22717397.871
  22172679.017   -14594565.31049 -11360165.04846  22172679.344    22172686.782
  24111016.832    -8787416.13549  -6474814.08045  24111016.880    24111023.719
  24070185.644    13648368.42049  10446372.82045  24070185.097    24070194.205
  21591962.650   -16506892.40249 -12838440.19347  21591962.605    21591969.114
 04  5 20 17 20 30.0000000  0 11G17G30G16G21G15G 6G29G26G22G10G18
  23914976.752    11000368.56449   8555750.94045  23914976.506    23914986.188
  24327881.730    13557213.56549  10547762.62345  24327882.277    24327891.404
  23457361.459    -8093498.52849  -6284746.66645  23457361.517    23457368.481
  20768627.798   -10094683.39749  -7859792.05147  20768627.648    20768633.028
  23824568.581   -10101171.54849  -7849689.85445  23824568.365    23824577.520
  20657896.999     -447436.65949   -348340.28547  20657897.155    20657903.880
  22715727.251    -9546621.36149  -7432679.01646  22715727.409    22715734.828
  22164369.597   -14638230.56749 -11394189.88846  22164370.036    22164377.523
  24090958.233    -8892824.42249  -6556950.36745  24090958.347    24090965.250
  24090436.340    13754785.85349  10529295.39845  24090435.777    24090445.002
  21577680.474   -16581945.75649 -12896923.30047  21577680.433    21577686.917
 04  5 20 17 21  0.0000000  0 11G17G30G16G21G15G 6G29G26G22G10G18
  23929611.625    11077275.72549   8615678.51045  23929611.494    23929621.210
  24348172.125    13663839.58449  10630847.69745  24348172.591    24348181.869
  23449840.370    -8133022.61149  -6315544.65445  23449840.343    23449847.265
  20762526.147   -10126748.01249  -7884777.45947  20762525.982    20762531.337
  23808714.413   -10184485.38649  -7914609.69145  23808714.200    23808723.288
  20665900.410     -405378.57449   -315567.79247  20665900.585    20665907.316
  22714169.809    -9554805.70349  -7439056.43446  22714169.947    22714177.411
  22156170.808   -14681315.56649 -11427762.60046  22156171.252    22156178.554
  24070929.615    -8998074.89949  -6638963.68345  24070929.683    24070936.742
  24110706.651    13861306.73549  10612298.61045  24110706.175    24110715.364
  21563470.259   -16656621.15949 -12955111.89547  21563470.190    21563476.645
 04  5 20 17 21 30.0000000  0 11G17G30G16G21G15G 6G29G26G22G10G18
  23944259.886    11154252.59149   8675660.40945  23944259.734    23944269.520
  24368455.656    13770430.20649  10713905.18245  24368456.338    24368465.524
  23442419.919    -8172017.72349  -6345930.45045  23442419.751    23442426.661
  20756469.222   -10158577.35449  -7909579.54347  20756469.056    20756474.412
  23792875.098   -10267721.02249  -7979468.56345  23792874.895    23792884.111
  20673990.358     -362865.81649   -282441.00847  20673990.524    20673997.251
  22712718.091    -9562434.47249  -7445000.95146  22712718.262    22712725.722
  22148082.773   -14723818.43649 -11460881.68646  22148083.142    22148090.531
  24050931.248    -9103166.07549  -6720852.87645  24050931.436    24050938.538
  24130996.083    13967928.28749  10695380.24945  24130995.648    24131004.866
  21549332.031   -16730917.81849 -13013005.36347  21549331.968    21549338.425
 04  5 20 17 22  0.0000000  0 11G17G30G16G21G15G 6G29G26G22G10G18
  23958921.396    11231299.28649   8735696.68045  23958921.104    23958930.944
  24388732.168    13876983.01749  10796933.19945  24388732.871    24388741.994
  23435100.336    -8210482.69749  -6375903.15745  23435100.198    23435106.995
  20750457.199   -10190170.65649  -7934197.69547  20750457.057    20750462.397
  23777050.979   -10350877.86749  -8044266.05545  23777050.631    23777059.772
  20682166.814     -319898.51349   -248960.03047  20682166.974    20682173.718
  22711372.300    -9569506.75349  -7450511.83646  22711372.444    22711379.901
  22140105.854   -14765736.39349 -11493544.99846  22140106.303    22140113.828
  24030963.609    -9208095.79349  -6802616.24545  24030963.810    24030971.084
  24151304.397    14074648.47649  10778538.76845  24151303.870    24151313.022
  21535266.127   -16804834.07449 -13070602.41647  21535266.086    21535272.579
 04  5 20 17 22 30.0000000  0 11G17G30G16G21G15G 6G29G26G22G10G18
  23973596.256    11308415.38249   8795787.08445  23973596.075    23973605.597
  24409000.872    13983495.18449  10879929.52945  24409001.500    24409010.707
  23427881.713    -8248416.72549  -6405462.13745  23427881.555    23427888.409
  20744490.016   -10221528.37949  -7958632.27847  20744489.868    20744495.226
  23761241.767   -10433955.73449  -8109002.01145  23761241.286    23761250.495
  20690429.651     -276477.11349   -215125.21347  20690429.833    20690436.587
  22710132.389    -9576021.95249  -7455588.62646  22710132.553    22710140.110
  22132240.931   -14807067.68249 -11525751.17246  22132241.368    22132248.749
  24011027.096    -9312862.32149  -6884252.44145  24011027.432    24011034.706
  24171630.859    14181464.95049  10861772.31245  24171630.408    24171639.624
  21521272.921   -16878368.76849 -13127902.14847  21521272.893    21521279.386
 04  5 20 17 23  0.0000000  0 11G17G30G16G21G15G 6G29G26G22G10G18
  23988284.079    11385600.57649   8855931.30245  23988283.936    23988293.711
  24429261.428    14089963.93949  10962892.04645  24429261.964    24429271.206
  23420764.367    -8285818.47149  -6434606.34645  23420764.223    23420771.156
  20738567.795   -10252650.11949  -7982882.98247  20738567.628    20738572.952
  23745447.424   -10516954.39649  -8173676.24845  23745447.049    23745456.474
  20698778.868     -232601.98249   -180936.84147  20698779.043    20698785.803
  22708998.759    -9581979.41249  -7460230.82546  22708998.957    22709006.458
  22124487.947   -14847809.69649 -11557498.18346  22124488.346    22124495.705
  23991122.081    -9417463.79849  -6965760.03845  23991122.372    23991129.644
  24191975.259    14288375.20849  10945078.92645  24191974.775    24191984.109
  21507352.697   -16951520.16549 -13184903.20747  21507352.650    21507359.110
 04  5 20 17 23 30.0000000  0 11G17G30G16G21G15G 6G29G26G22G10G18
  24002985.114    11462854.82949   8916129.32545  24002984.930    24002994.692
  24449512.850    14196386.90349  11045818.83245  24449513.524    24449523.052
  23413748.544    -8322686.60149  -6463334.77245  23413748.429    23413755.441
  20732690.496   -10283535.40549  -8006949.43747  20732690.337    20732695.643
  23729668.497   -10599873.47249  -8238288.48345  23729668.112    23729677.488
  20707214.373     -188273.18449   -146394.95947  20707214.563    20707221.342
  22707971.463    -9587378.20249  -7464437.69546  22707971.648    22707979.099
  22116847.600   -14887959.97249 -11588784.09146  22116847.995    22116855.417
  23971248.894    -9521898.10249  -7047137.36645  23971249.250    23971256.338
  24212337.078    14395377.17049  11028456.97945  24212336.569    24212345.936
  21493505.710   -17024286.69449 -13241604.36047  21493505.646    21493512.098
 04  5 20 17 24  0.0000000  0 11G17G30G16G21G15G 6G29G26G22G10G18
  24017699.174    11540177.28749   8976380.50345  24017698.913    24017708.710
  24469755.334    14302761.08449  11128707.65545  24469756.100    24469765.507
  23406834.356    -8359020.63049  -6491647.00145  23406834.255    23406841.280
  20726858.150   -10314184.69749  -8030832.00047  20726857.995    20726863.297
  23713904.737   -10682712.88449  -8302838.60545  23713904.305    23713913.585
  20715736.039     -143491.66949   -111500.31847  20715736.224    20715743.013
  22707050.514    -9592218.11049  -7468209.06446  22707050.656    22707058.078
  22109320.180   -14927516.93949 -11619607.69546  22109320.576    22109327.968
  23951407.819    -9626164.01749  -7128383.48445  23951408.095    23951415.115
  24232715.931    14502467.92149  11111904.25445  24232715.460    24232724.608
  21479732.025   -17096667.85949 -13298005.23847  21479731.971    21479738.411
 04  5 20 17 24 30.0000000  0 11G17G30G16G21G15G 6G29G26G22G10G18
  24032426.053    11617567.99949   9036684.87145  24032426.028    24032435.741
  24489987.970    14409083.86449  11211556.40945  24489988.693    24489998.213
  23400022.107    -8394819.23049  -6519542.01545  23400022.032    23400028.985
  20721070.850   -10344597.34449  -8054530.16047  20721070.691    20721075.999
  23698156.122   -10765472.48549  -8367326.55445  23698155.708    23698164.861
  20724343.833      -98257.57449    -76253.00747  20724344.025    20724350.822
  22706236.040    -9596498.33549  -7471544.32746  22706236.190    22706243.544
  22101906.084   -14966477.95049 -11649966.90146  22101906.469    22101913.849
  23931599.186    -9730259.47349  -7209496.76345  23931599.408    23931606.357
  24253111.227    14609645.27549  11195418.98845  24253110.661    24253119.925
  21466031.971   -17168662.06049 -13354104.58847  21466031.896    21466038.335
 04  5 20 17 25  0.0000000  0 11G17G30G16G21G15G 6G29G26G22G10G18
  24047166.122    11695026.94049   9097042.40945  24047165.913    24047175.828
  24510210.339    14515352.84349  11294363.22745  24510211.074    24510220.650
  23393312.035    -8430081.24449  -6547018.91245  23393311.957    23393318.886
  20715328.613   -10374773.21349  -8078043.82047  20715328.427    20715333.737
  23682422.752   -10848151.83749  -8431751.96645  23682422.321    23682431.468
  20733037.689      -52571.16449    -40653.24847  20733037.867    20733044.690
  22705528.198    -9600218.11349  -7474442.87946  22705528.370    22705535.691
  22094605.839   -15004840.80649 -11679860.02646  22094606.262    22094613.607
  23911823.398    -9834182.62249  -7290475.78145  23911823.499    23911830.315
  24273522.538    14716907.32649  11278999.73345  24273521.861    24273531.022
  21452405.800   -17240267.91049 -13409901.31847  21452405.748    21452412.184
 04  5 20 17 25 30.0000000  0 11G17G30G16G21G15G 6G29G26G22G10G18
  24061919.074    11772553.42349   9157452.51845  24061919.050    24061928.902
  24530422.074    14621565.33749  11377126.00345  24530422.702    24530432.619
  23386704.155    -8464805.98149  -6574077.14845  23386704.042    23386711.036
  20709631.416   -10404712.19449  -8101372.89347  20709631.221    20709636.517
  23666704.686   -10930750.71449  -8496114.69045  23666704.272    23666713.287
  20741817.519       -6433.07549     -4701.52947  20741817.688    20741824.535
  22704927.125    -9603377.12649  -7476904.46746  22704927.306    22704934.564
  22087419.982   -15042603.31249 -11709285.34346  22087420.337    22087427.736
  23892080.648    -9937931.72049  -7371319.16645  23892080.687    23892087.380
  24293949.452    14824251.42149  11362644.39845  24293948.729    24293957.982
  21438853.779   -17311484.19449 -13465394.49447  21438853.710    21438860.136
 04  5 20 17 26  0.0000000  0 11G17G30G16G21G15G 6G29G26G22G10G18
  24076684.949    11850147.23649   9217915.14345  24076684.838    24076694.478
  24550622.437    14727718.39849  11459842.48945  24550622.987    24550632.997
  23380198.628    -8498992.71349  -6600716.15845  23380198.505    23380205.477
  20703979.360   -10434413.99449  -8124517.15247  20703979.154    20703984.462
  23651001.986   -11013268.93649  -8560414.54145  23651001.663    23651010.628
  20750683.213       40156.18149     31601.74347  20750683.371    20750690.246
  22704432.895    -9605974.70849  -7478928.57546  22704433.048    22704440.220
  22080348.593   -15079763.67749 -11738241.45846  22080348.922    22080356.382
  23872371.373   -10041504.90349  -7452025.48045  23872371.372    23872377.876
  24314391.480    14931675.22449  11446351.17445  24314390.766    24314400.043
  21425376.166   -17382309.55449 -13520583.05147  21425376.101    21425382.488
 04  5 20 17 26 30.0000000  0 11G17G30G16G21G15G 6G29G26G22G10G18
  24091463.453    11927808.48649   9278430.31345  24091463.167    24091473.012
  24570810.935    14833809.96349  11542511.02045  24570811.661    24570821.678
  23373795.805    -8532639.99849  -6626934.82545  23373795.618    23373802.599
  20698372.548   -10463878.05549  -8147476.15747  20698372.335    20698377.642
  23635314.709   -11095705.79949  -8624650.99945  23635314.433    23635323.354
  20759634.762       87196.54949     68256.53447  20759634.894    20759641.777
  22704045.552    -9608010.17549  -7480514.66746  22704045.676    22704052.836
  22073392.316   -15116319.34449 -11766726.39346  22073392.657    22073400.014
  23852695.912   -10144900.19549  -7532593.16945  23852695.992    23852702.347
  24334848.407    15039176.85349  11530118.60145  24334847.765    24334856.986
  21411973.197   -17452742.36449 -13575465.72747  21411973.110    21411979.521
 04  5 20 17 27  0.0000000  0 11G17G30G16G21G15G 6G29G26G22G10G18
  24106254.827    12005536.75249   9338997.71645  24106254.537    24106264.334
  24590987.344    14939837.03749  11625129.33045  24590988.083    24590998.170
  23367495.864    -8565746.77149  -6652732.31745  23367495.679    23367502.517
  20692810.909   -10493104.40449  -8170249.93247  20692810.705    20692816.038
  23619643.043   -11178061.03949  -8688823.88245  23619642.662    23619651.585
  20768671.970      134687.24149    105262.23047  20768672.097    20768679.003
  22703765.320    -9609483.19649  -7481662.49146  22703765.430    22703772.603
  22066551.557   -15152268.28749 -11794738.55846  22066551.854    22066559.170
  23833054.683   -10248115.99149  -7613020.99645  23833054.740    23833060.960
  24355319.685    15146753.79149  11613944.70145  24355319.093    24355328.319
  21398645.152   -17522781.50949 -13630041.65147  21398645.086    21398651.514
 04  5 20 17 27 30.0000000  0 11G17G30G16G21G15G 6G29G26G22G10G18
  24121058.879    12083331.60149   9399616.99245  24121058.498    24121068.276
  24611151.178    15045797.12849  11707695.43245  24611151.834    24611161.927
  23361298.819    -8598312.64449  -6678108.31545  23361298.639    23361305.408
  20687294.592   -10522092.75849  -8192838.26147  20687294.394    20687299.747
  23603986.846   -11260334.69949  -8752933.16445  23603986.501    23603995.410
  20777794.763      182627.76449    142618.43847  20777794.902    20777801.794
  22703592.204    -9610393.35849  -7482371.71746  22703592.310    22703599.401
  22059826.344   -15187608.82349 -11822276.62446  22059826.640    22059834.091
  23813447.899   -10351150.67249  -7693307.69245  23813447.893    23813454.182
  24375804.948    15254403.82749  11697827.76545  24375804.292    24375813.613
  21385392.127   -17592426.66349 -13684310.57447  21385392.051    21385398.447
 04  5 20 17 28  0.0000000  0 11G17G30G16G21G15G 6G29G26G22G10G18
  24135875.447    12161192.95149   9460288.05445  24135874.952    24135884.909
  24631301.885    15151687.68049  11790207.31545  24631302.374    24631312.385
  23355204.927    -8630336.42149  -6703061.90545  23355204.808    23355211.551
  20681823.667   -10550842.80049  -8215240.88747  20681823.462    20681828.814
  23588346.282   -11342526.29749  -8816978.52845  23588345.998    23588354.799
  20787003.096      231017.66249    180324.81447  20787003.267    20787010.108
  22703526.240    -9610739.98849  -7482641.83546  22703526.376    22703533.544
  22053217.478   -15222338.59049 -11849338.77546  22053217.815    22053225.233
  23793875.767   -10454002.06749  -7773451.57045  23793875.792    23793882.241
  24396303.618    15362124.72849  11781766.06645  24396303.001    24396312.407
  21372214.436   -17661676.01749 -13738271.07347  21372214.364    21372220.709
 04  5 20 17 28 30.0000000  0 11G17G30G16G21G15G 6G29G26G22G10G18
  24150704.697    12239120.51049   9521010.76145  24150704.195    24150714.131
  24651438.695    15257506.02249  11872662.94845  24651438.944    24651449.011
  23349214.303    -8661817.43749  -6727592.57445  23349214.146    23349220.909
  20676398.102   -10579354.45549  -8237457.76347  20676397.907    20676403.198
  23572721.453   -11424635.45249  -8880959.63745  23572721.135    23572729.943
  20796296.861      279856.47249    218380.98547  20796297.023    20796303.860
  22703567.532    -9610522.95249  -7482472.72746  22703567.667    22703574.897
  22046725.251   -15256455.62749 -11875923.48146  22046725.570    22046732.931
  23774338.858   -10556668.58349  -7853451.40545  23774338.858    23774345.469
  24416815.392    15469914.29049  11865757.86645  24416814.731    24416824.050
  21359112.311   -17730528.03349 -13791921.96147  21359112.224    21359118.578
 04  5 20 17 29  0.0000000  0 11G17G30G16G21G15G 6G29G26G22G10G18
  24165546.617    12317114.33049   9581785.07145  24165546.141    24165555.942
  24671561.296    15363249.98549  11955060.58545  24671561.412    24671571.375
  23343327.149    -8692754.38949  -6751699.30445  23343327.051    23343333.876
  20671018.005   -10607627.12549  -8259488.41347  20671017.802    20671023.083
  23557112.372   -11506661.49049  -8944875.98345  23557112.021    23557120.931
  20805675.997      329143.88249    256786.71447  20805676.160    20805682.978
  22703716.205    -9609741.34649  -7481863.70446  22703716.414    22703723.672
  22040349.876   -15289957.71749 -11902029.00446  22040350.273    22040357.701
  23754837.431   -10659148.05449  -7933305.47445  23754837.519    23754844.134
  24437339.811    15577770.33249  11949801.47045  24437339.122    24437348.513
  21346086.016   -17798981.35849 -13845262.18147  21346085.952    21346092.318
 04  5 20 17 29 30.0000000  0 11G17G30G16G21G15G 6G29G26G22G10G18
  24180401.009    12395174.17949   9642610.85845  24180400.706    24180410.421
  24691669.205    15468916.87649  12037398.19145  24691669.372    24691679.352
  23337543.708    -8723146.55749  -6775381.51645  23337543.525    23337550.442
  20665683.386   -10635660.62649  -8281332.69747  20665683.185    20665688.512
  23541518.970   -11588604.38549  -9008727.54345  23541518.785    23541527.695
  20815140.340      378879.25249    295541.51247  20815140.488    20815147.333
  22703972.436    -9608394.90649  -7480814.53446  22703972.627    22703979.958
  22034092.113   -15322842.97949 -11927653.89046  22034092.515    22034099.897
  23735372.065   -10761438.95549  -8013012.63445  23735372.124    23735378.900
  24457876.384    15685690.75449  12033895.21345  24457875.825    24457885.165
  21333135.840   -17867034.94849 -13898290.91847  21333135.778    21333142.125
 04  5 20 17 30  0.0000000  0 10G17G16G21G15G 6G29G26G22G10G18
  24195268.189    12473301.85449   9703489.43745  24195267.755    24195277.827
  23331864.539    -8752990.99349  -6798636.93145  23331864.416    23331871.219
  20660394.738   -10663452.65949  -8302988.82647  20660394.546    20660399.889
  23525942.102   -11670461.58149  -9072512.32045  23525941.880    23525950.806
  20824690.243      429064.13749    334646.57747  20824690.397    20824697.238
  22704336.680    -9606481.10949  -7479323.26546  22704336.894    22704344.145
  22027952.496   -15355107.23649 -11952794.87346  22027952.856    22027960.146
  23715943.264   -10863537.33149  -8092569.76145  23715943.354    23715950.111
  24478425.314    15793675.51149  12118039.10945  24478424.630    24478434.227
  21320262.452   -17934685.29749 -13951005.44147  21320262.350    21320268.678
 04  5 20 17 30 30.0000000  0 10G17G16G21G15G 6G29G26G22G10G18
  24210147.860    12551494.29949   9764418.54045  24210147.373    24210157.318
  23326289.235    -8782289.66949  -6821467.08445  23326289.056    23326295.884
  20655151.616   -10691005.68849  -8324458.72047  20655151.416    20655156.749
  23510381.084   -11752235.53749  -9136232.25645  23510380.782    23510389.636
  20834325.098      479695.22449    374099.32647  20834325.247    20834332.042
  22704808.478    -9604002.60949  -7477391.97546  22704808.587    22704815.748
  22021930.681   -15386751.66349 -11977452.85946  22021931.055    22021938.432
  23696550.927   -10965444.15849  -8171977.62745  23696550.960    23696557.832
  24498985.332    15901719.68749  12202229.26245  24498984.826    24498994.353
  21307465.306   -18001934.43049 -14003407.33547  21307465.219    21307471.545
 04  5 20 17 31  0.0000000  0 10G17G16G21G15G 6G29G26G22G10G18
  24225039.740    12629750.95949   9825397.66545  24225039.195    24225049.225
  23320817.746    -8811042.46349  -6843871.87145  23320817.604    23320824.479
  20649953.884   -10718319.90049  -8345742.52347  20649953.685    20649958.991
  23494835.774   -11833926.40049  -9199887.42545  23494835.504    23494844.385
  20844044.625      530771.39749    413898.90147  20844044.758    20844051.542
  22705387.571    -9600959.41849  -7475020.66646  22705387.687    22705394.863
  22016027.218   -15417774.66349 -12001626.62046  22016027.611    22016034.967
  23677195.418   -11067158.18949  -8251235.27645  23677195.479    23677202.189
  24519556.326    16009820.58349  12286463.70245  24519555.894    24519565.283
  21294744.638   -18068781.61449 -14055496.02347  21294744.565    21294750.907
 04  5 20 17 31 30.0000000  0 10G17G16G21G15G 6G29G26G22G10G18
  24239943.866    12708072.11949   9886427.06345  24239943.356    24239953.336
  23315450.291    -8839248.15149  -6865850.34245  23315450.200    23315457.147
  20644801.718   -10745394.72449  -8366839.79047  20644801.521    20644806.826
  23479306.279   -11915533.66649  -9263477.44845  23479306.065    23479314.946
  20853848.817      582292.51749    454045.19247  20853848.931    20853855.740
  22706074.289    -9597350.88649  -7472208.82346  22706074.412    22706081.582
  22010242.500   -15448174.00649 -12025314.41746  22010242.866    22010250.197
  23657876.956   -11168677.29649  -8330341.02745  23657877.073    23657883.758
  24540137.808    16117976.21749  12370740.72445  24540137.415    24540146.775
  21282100.791   -18135225.41349 -14107270.37647  21282100.698    21282107.025
 04  5 20 17 32  0.0000000  0 10G17G16G21G15G 6G29G26G22G10G18
  24254860.324    12786457.69849   9947506.59745  24254859.780    24254869.670
  23310187.347    -8866905.70949  -6887401.69045  23310187.193    23310194.165
  20639695.274   -10772229.23749  -8387749.80547  20639695.076    20639700.376
  23463792.900   -11997056.48649  -9327001.68045  23463792.635    23463801.679
  20863737.532      634258.27449    494537.94447  20863737.685    20863744.541
  22706868.585    -9593176.32149  -7468955.91746  22706868.772    22706876.021
  22004576.820   -15477947.50349 -12048514.54246  22004577.168    22004584.525
  23638595.967   -11269999.35849  -8409293.23946  23638596.130    23638602.777
  24560729.369    16226185.00249  12455059.18845  24560729.001    24560738.372
  21269534.066   -18201264.14749 -14158729.10047  21269533.958    21269540.273
 04  5 20 17 32 30.0000000  0 10G17G16G21G15G 6G29G26G22G10G18
  24269788.764    12864906.65949  10008635.56445  24269788.295    24269797.962
  23305028.580    -8894015.25549  -6908526.03245  23305028.416    23305035.344
  20634634.451   -10798824.15749  -8408473.11747  20634634.270    20634639.558
  23448295.618   -12078495.35449  -9390460.51345  23448295.274    23448304.212
  20873710.630      686667.06449    535375.91947  20873710.791    20873717.684
  22707770.567    -9588436.45649  -7465262.52046  22707770.757    22707777.999
  21999030.314   -15507094.16549 -12071226.21246  21999030.618    21999038.065
  23619352.846   -11371123.25749  -8488091.03946  23619352.922    23619359.457
  24581330.452    16334443.84649  12539416.68945  24581330.139    24581339.463
  21257044.469   -18266897.43749 -14209871.89647  21257044.354    21257050.651
 04  5 20 17 33  0.0000000  0 10G17G16G21G15G 6G29G26G22G10G18
  24284729.464    12943419.89949  10069814.62545  24284729.081    24284738.784
  23299974.360    -8920575.27449  -6929222.15945  23299974.134    23299981.132
  20629619.432   -10825178.25949  -8429008.78447  20629619.222    20629624.523
  23432814.565   -12159849.00549  -9453852.91945  23432814.200    23432823.108
  20883768.155      739519.54949    576559.63047  20883768.318    20883775.231
  22708780.382    -9583129.98549  -7461127.60446  22708780.558    22708787.784
  21993603.671   -15535611.32449 -12093447.36546  21993604.024    21993611.473
  23600147.740   -11472046.39449  -8566732.39646  23600147.878    23600154.352
  24601940.959    16442751.48349  12623812.17545  24601940.521    24601949.577
  21244632.353   -18332123.50149 -14260697.37547  21244632.237    21244638.566
 04  5 20 17 33 30.0000000  0 10G17G16G21G15G 6G29G26G22G10G18
  24299682.361    13021997.65649  10131043.93445  24299682.000    24299691.824
  23295025.043    -8946584.23449  -6949488.89345  23295024.870    23295031.818
  20624650.358   -10851290.96549  -8449356.34847  20624650.142    20624655.431
  23417349.844   -12241116.56349  -9517178.26845  23417349.516    23417358.430
  20893910.046      792815.34749    618088.77447  20893910.217    20893917.116
  22709898.058    -9577256.18249  -7456550.59846  22709898.275    22709905.556
  21988297.221   -15563496.73149 -12115176.24346  21988297.569    21988305.105
  23580981.189   -11572766.62449  -8645215.64846  23580981.306    23580987.910
  24622560.159    16551106.41549  12708244.51545  24622559.667    24622568.964
  21232298.130   -18396940.07649 -14311203.76947  21232298.036    21232304.365
 04  5 20 17 34  0.0000000  0 10G17G16G21G15G 6G29G26G22G10G18
  24314647.369    13100639.21049  10192322.93945  24314647.039    24314656.831
  23290180.575    -8972042.26149  -6969326.34045  23290180.344    23290187.331
  20619727.203   -10877162.42249  -8469515.92947  20619726.990    20619732.297
  23401901.448   -12322298.32149  -9580436.76945  23401901.111    23401910.096
  20904136.090      846553.20749    659962.38747  20904136.237    20904143.129
  22711123.669    -9570815.40149  -7451531.81746  22711123.877    22711131.217
  21983111.205   -15590749.19349 -12136411.91946  21983111.568    21983119.069
  23561853.579   -11673282.62649  -8723539.77046  23561853.629    23561860.362
  24643188.018    16659505.82049  12792711.54445  24643187.506    24643196.705
  21220041.875   -18461347.06649 -14361391.00547  21220041.781    21220048.076
 04  5 20 17 34 30.0000000  0 10G17G16G21G15G 6G29G26G22G10G18
  24329624.633    13179344.45849  10253651.60645  24329624.411    24329634.203
  23285441.026    -8996948.73749  -6988733.98945  23285440.864    23285447.783
  20614850.052   -10902792.03549  -8489487.05847  20614849.856    20614855.142
  23386469.378   -12403393.93649  -9643628.13245  23386469.074    23386478.064
  20914446.112      900732.66949    702180.10747  20914446.290    20914453.197
  22712457.272    -9563807.52849  -7446071.13046  22712457.473    22712464.850
  21978046.148   -15617366.81749 -12157152.91946  21978046.515    21978053.893
  23542765.056   -11773592.58349  -8801703.33546  23542765.143    23542771.990
  24663823.791    16767947.86249  12877211.73045  24663823.230    24663832.742
  21207863.722   -18525343.46949 -14411258.30347  21207863.622    21207869.900
 04  5 20 17 35  0.0000000  0 10G17G16G21G15G 6G29G26G22G10G18
  24344613.625    13258113.21549  10315029.71845  24344613.316    24344623.440
  23280806.540    -9021303.08149  -7007711.39745  23280806.393    23280813.321
  20610018.955   -10928179.66449  -8509269.62547  20610018.771    20610024.066
  23371054.013   -12484402.95849  -9706752.01145  23371053.646    23371062.506
  20924840.056      955352.82449    744741.22747  20924840.214    20924847.131
  22713898.757    -9556232.42449  -7440168.43546  22713898.945    22713906.388
  21973102.066   -15643348.09049 -12177398.04746  21973102.438    21973109.781
  23523716.089   -11873694.73449  -8879704.97746  23523716.260    23523723.172
  24684467.329    16876430.31249  12961743.43745  24684466.769    24684476.289
  21195763.945   -18588928.13549 -14460804.76547  21195763.848    21195770.130
 04  5 20 17 35 30.0000000  0 10G17G16G21G15G 6G29G26G22G10G18
  24359614.871    13336945.30549  10376457.21545  24359614.449    24359624.776
  23276277.240    -9045104.53949  -7026258.02445  23276277.109    23276284.059
  20605233.938   -10953325.05349  -8528863.43947  20605233.753    20605239.044
  23355655.107   -12565324.92849  -9769808.07245  23355654.786    23355663.534
  20935317.719     1010413.08149    787645.28247  20935317.861    20935324.796
  22715448.211    -9548089.88249  -7433823.59046  22715448.333    22715455.880
  21968279.349   -15668691.42649 -12197146.07246  21968279.687    21968287.112
  23504707.109   -11973587.54549  -8957543.48246  23504707.309    23504714.153
  24705118.202    16984951.12049  13046305.03545  24705117.662    24705127.188
  21183742.771   -18652099.89649 -14510029.48447  21183742.680    21183748.957
 04  5 20 17 36  0.0000000  0  9G17G16G21G15G 6G29G26G22G18
  24374628.247    13415840.58049  10437933.96945  24374627.896    24374638.072
  23271853.194    -9068352.66349  -7044373.45145  23271853.181    23271860.089
  20600495.156   -10978227.60249  -8548268.02647  20600494.974    20600500.247
  23340272.931   -12646159.20649  -9832795.79945  23340272.565    23340281.290
  20945879.005     1065912.92149    830891.86347  20945879.140    20945886.114
  22717105.642    -9539379.76749  -7427036.48646  22717105.815    22717113.365
  21963578.386   -15693394.94149 -12216395.56946  21963578.731    21963586.158
  23485738.474   -12073269.10649  -9035217.37946  23485738.571    23485745.346
  21171800.384   -18714857.60749 -14558931.56747  21171800.278    21171806.570
 04  5 20 17 36 30.0000000  0  9G17G16G21G15G 6G29G26G22G18
  24389653.361    13494798.28949  10499459.34645  24389652.975    24389663.336
  23267534.546    -9091047.62049  -7062057.84745  23267534.521    23267541.449
  20595802.481   -11002887.92049  -8567483.86347  20595802.283    20595807.545
  23324907.295   -12726906.27849  -9895715.54445  23324906.863    23324915.563
  20956523.678     1121850.73649    874479.72347  20956523.800    20956530.805
  22718870.992    -9530102.77049  -7419807.65746  22718871.162    22718878.634
  21958999.323   -15717457.83349 -12235145.86746  21958999.681    21959007.143
  23466810.258   -12172738.29949  -9112725.80046  23466810.265    23466816.958
  21159936.848   -18777200.93449 -14607510.76047  21159936.741    21159943.002
 04  5 20 17 37  0.0000000  0  9G17G16G21G15G 6G29G26G22G18
  24404690.617    13573818.61249  10561033.47045  24404690.274    24404700.478
  23263321.298    -9113188.39149  -7079310.40345  23263321.278    23263328.287
  20591156.046   -11027305.16249  -8586510.28547  20591155.839    20591161.109
  23309558.320   -12807565.58449  -9958566.90445  23309557.948    23309566.547
  20967251.608     1178226.22549    918408.63047  20967251.724    20967258.746
  22720744.377    -9520258.47249  -7412136.76246  22720744.516    22720752.011
  21954542.614   -15740878.18949 -12253395.47446  21954542.956    21954550.390
  23447922.670   -12271993.12949  -9190067.18346  23447922.760    23447929.330
  21148152.366   -18839128.73949 -14655766.16747  21148152.259    21148158.458
 04  5 20 17 37 30.0000000  0  8G16G21G15G 6G29G26G22G18
  23259213.425    -9134775.06149  -7096131.21545  23259213.481    23259220.481
  20586555.778   -11051479.65549  -8605347.55647  20586555.574    20586560.854
  23294226.039   -12888137.38149 -10021350.09145  23294225.564    23294234.203
  20978062.586     1235037.91049    962677.42647  20978062.689    20978069.705
  22722725.550    -9509847.54749  -7404024.35146  22722725.724    22722733.108
  21950208.409   -15763655.06649 -12271143.68446  21950208.747    21950216.073
  23429076.072   -12371032.48249  -9267240.65646  23429076.228    23429082.738
  21136447.050   -18900640.55049 -14703697.42147  21136446.932    21136453.101
 04  5 20 17 38  0.0000000  0  8G16G21G15G 6G29G26G22G18
  23255211.354    -9155806.42849  -7112519.31445  23255211.332    23255218.356
  20582001.962   -11075410.20549  -8623994.74447  20582001.757    20582007.050
  23278910.499   -12968620.21249 -10084063.94745  23278910.106    23278918.741
  20988956.540     1292285.89849   1007286.20747  20988956.648    20988963.656
  22724814.800    -9498868.98549  -7395469.62946  22724814.878    22724822.241
  21945996.947   -15785786.10349 -12288388.63846  21945997.293    21946004.645
  23410270.981   -12469853.79849  -9344244.24346  23410271.117    23410277.592
  21124821.252   -18961734.49349 -14751303.07047  21124821.121    21124827.297
 04  5 20 17 38 30.0000000  0  8G16G21G15G 6G29G26G22G18
  23251314.940    -9176282.31249  -7128474.57245  23251314.880    23251321.976
  20577494.581   -11099096.82049  -8642451.85047  20577494.357    20577499.665
  23263611.950   -13049014.17349 -10146708.54545  23263611.598    23263620.239
  20999933.342     1349969.20049   1052234.18247  20999933.449    20999940.476
  22727011.877    -9487323.15649  -7386472.88246  22727011.987    22727019.287
  21941908.658   -15807270.15149 -12305129.44546  21941909.022    21941916.367
  23391507.640   -12568455.51049  -9421076.72346  23391507.766    23391514.259
  21113275.171   -19022409.48449 -14798582.25647  21113275.034    21113281.206
 04  5 20 17 39  0.0000000  0  8G16G21G15G 6G29G26G22G18
  23247524.347    -9196202.38749  -7143996.72545  23247524.294    23247531.425
  20573033.629   -11122539.20649  -8660718.65647  20573033.415    20573038.728
  23248330.522   -13129318.81949 -10209283.55645  23248330.096    23248338.798
  21010992.827     1408086.96849   1097520.70247  21010992.942    21010999.973
  22729316.908    -9475210.14049  -7377034.17746  22729317.041    22729324.279
  21937943.835   -15828105.69349 -12321364.93746  21937944.157    21937951.513
  23372786.381   -12666836.23849  -9497737.00046  23372786.457    23372793.045
  21101808.767   -19082665.36049 -14845534.86847  21101808.652    21101814.861
 04  5 20 17 39 30.0000000  0  8G16G21G15G 6G29G26G22G18
  23243839.553    -9215566.43249  -7159085.61945  23243839.475    23243846.567
  20568619.120   -11145737.49549  -8678795.24447  20568618.921    20568624.229
  23233066.094   -13209534.16649 -10271788.98145  23233065.644    23233074.333
  21022134.728     1466638.08649   1143144.90747  21022134.859    21022141.906
  22731729.777    -9462530.45249  -7367153.89046  22731729.911    22731737.151
  21934102.580   -15848291.83449 -12337094.38646  21934102.897    21934110.244
  23354107.414   -12764994.48449  -9574223.93946  23354107.548    23354114.140
  21090422.361   -19142501.22149 -14892160.18847  21090422.264    21090428.485
 04  5 20 17 40  0.0000000  0  8G16G21G15G 6G29G26G22G18
  23240260.653    -9234374.00949  -7173740.88045  23240260.472    23240267.715
  20564251.206   -11168691.06749  -8696681.14847  20564251.005    20564256.336
  23217818.567   -13289659.58449 -10334224.34845  23217818.209    23217826.988
  21033358.969     1525621.56049   1189106.00647  21033359.098    21033366.147
  22734250.464    -9449284.01349  -7356831.99846  22734250.586    22734257.816
  21930385.115   -15867826.75549 -12352316.40246  21930385.460    21930392.860
  23335471.185   -12862928.23549  -9650535.90546  23335471.339    23335477.898
  21079116.144   -19201915.63349 -14938457.11047  21079116.032    21079122.276
 04  5 20 17 40 30.0000000  0  8G16G21G15G 6G29G26G22G18
  23236787.663    -9252624.78549  -7187962.28745  23236787.497    23236794.644
  20559930.034   -11191399.02749  -8714375.67047  20559929.847    20559935.166
  23202588.201   -13369694.65749 -10396589.29745  23202587.912    23202596.801
  21044665.368     1585036.82949   1235403.57047  21044665.491    21044672.519
  22736879.150    -9435470.67349  -7346068.37346  22736879.206    22736886.428
  21926791.860   -15886709.24049 -12367030.02246  21926792.248    21926799.667
  23316878.066   -12960635.83449  -9726671.66446  23316878.172    23316884.720
  21067890.333   -19260907.54149 -14984424.80547  21067890.223    21067896.465
 04  5 20 17 41  0.0000000  0  8G16G21G15G 6G29G26G22G18
  23233420.678    -9270318.62849  -7201749.71445  23233420.498    23233427.636
  20555655.510   -11213861.79249  -8731879.12647  20555655.316    20555660.624
  23187375.280   -13449639.14749 -10458883.67645  23187374.944    23187383.871
  21056053.739     1644882.91949   1282036.83747  21056053.867    21056060.898
  22739615.476    -9421091.03049  -7334863.45946  22739615.551    22739622.760
  21923323.036   -15904938.20149 -12381234.41146  21923323.439    21923330.779
  23298328.111   -13058116.10149  -9802630.26746  23298328.282    23298334.782
  21056744.991   -19319476.77049 -15030063.14647  21056744.889    21056751.070
 04  5 20 17 41 30.0000000  0  8G16G21G15G 6G29G26G22G18
  23230159.597    -9287455.30949  -7215102.98545  23230159.475    23230166.571
  20551427.641   -11236079.34949  -8749191.51347  20551427.463    20551432.748
  23172179.734   -13529492.71649 -10521107.21445  23172179.364    23172188.160
  21067523.893     1705158.85849   1329005.05847  21067524.027    21067531.090
  22742459.532    -9406145.33749  -7323217.48646  22742459.643    22742466.847
  21919978.858   -15922512.32049 -12394928.52746  21919979.224    21919986.528
  23279821.861   -13155367.20949  -9878410.32346  23279822.055    23279828.414
  21045680.307   -19377622.18049 -15075371.23447  21045680.179    21045686.354
 04  5 20 17 42  0.0000000  0  8G16G21G15G 6G29G26G22G18
  23227004.783    -9304034.48549  -7228021.84445  23227004.589    23227011.699
  20547246.616   -11258050.92649  -8766312.22347  20547246.437    20547251.711
  23157001.555   -13609255.19449 -10583259.75445  23157001.072    23157009.829
  21079075.664     1765863.66749   1376307.45847  21079075.809    21079082.914
  22745411.314    -9390633.82149  -7311130.61546  22745411.419    22745418.583
  21916759.367   -15939430.55749 -12408111.56646  21916759.743    21916767.112
  23261359.529   -13252387.66049  -9954010.63246  23261359.656    23261366.075
  21034696.348   -19435343.15349 -15120348.59647  21034696.233    21034702.410
 04  5 20 17 42 30.0000000  0  8G16G21G15G 6G29G26G22G18
  23223956.067    -9320056.08149  -7240506.23045  23223955.910    23223962.982
  20543112.467   -11279776.05849  -8783240.90547  20543112.269    20543117.566
  23141840.643   -13688926.02649 -10645340.91245  23141840.207    23141848.900
  21090708.923     1826996.43549   1423943.33347  21090709.046    21090716.174
  22748470.648    -9374556.72549  -7298603.03046  22748470.762    22748477.972
  21913665.017   -15955691.52749 -12420782.46346  21913665.385    21913672.761
  23242941.294   -13349175.79949 -10029429.91046  23242941.446    23242947.890
  21023793.376   -19492638.44149 -15164994.25447  21023793.271    21023799.442
 04  5 20 17 43  0.0000000  0  8G16G21G15G 6G29G26G22G18
  23221013.454    -9335519.70049  -7252555.83445  23221013.327    23221020.303
  20539025.196   -11301254.66149  -8799977.48747  20539025.019    20539030.335
  23126697.321   -13768504.69249 -10707350.22845  23126696.931    23126705.568
  21102423.337     1888555.99449   1471911.77147  21102423.466    21102430.616
  22751637.662    -9357914.03549  -7285634.72846  22751637.799    22751644.978
  21910695.953   -15971293.97749 -12432940.22646  21910696.330    21910703.712
  23224567.688   -13445729.97449 -10104666.90846  23224567.746    23224574.218
  21012971.595   -19549507.15749 -15209307.52147  21012971.493    21012977.647
 04  5 20 17 43 30.0000000  0  8G16G21G15G 6G29G26G22G18
  23218177.049    -9350425.03149  -7264170.39645  23218176.990    23218183.849
  20534985.054   -11322485.84149  -8816521.26647  20534984.876    20534990.200
  23111571.632   -13847990.65849 -10769287.32845  23111571.223    23111579.878
  21114218.893     1950541.88449   1520212.40747  21114219.030    21114226.180
  22754912.230    -9340706.08149  -7272225.95146  22754912.352    22754919.580
  21907852.485   -15986236.58149 -12444583.81546  21907852.859    21907860.252
  23206238.922   -13542048.03549 -10179719.91546  23206239.025    23206245.457
  21002231.124   -19605948.63849 -15253287.87747  21002231.028    21002237.186
 04  5 20 17 44  0.0000000  0  8G16G21G15G 6G29G26G22G18
  23215446.921    -9364771.92249  -7275349.81945  23215446.831    23215453.675
  20530991.912   -11343470.04349  -8832872.60047  20530991.690    20530997.033
  23096463.633   -13927383.75649 -10831152.06545  23096463.231    23096471.828
  21126095.353     2012952.87349   1568844.29547  21126095.478    21126102.629
  22758294.400    -9322933.24649  -7258377.01346  22758294.481    22758301.669
  21905134.765   -16000518.36149 -12455712.48446  21905135.140    21905142.507
  23187955.306   -13638128.88749 -10254588.06746  23187955.392    23187961.846
  20991572.122   -19661962.11849 -15296934.72447  20991572.037    20991578.193
 04  5 20 17 44 30.0000000  0  8G16G21G15G 6G29G26G22G18
  23212822.964    -9378560.72849  -7286094.36945  23212822.907    23212829.719
  20527045.833   -11364206.78349  -8849031.10447  20527045.632    20527050.960
  23081373.321   -14006683.76449 -10892944.27346  23081372.948    23081381.537
  21138052.395     2075787.54749   1617806.32847  21138052.541    21138059.709
  22761783.797    -9304596.28349  -7244088.48146  22761783.865    22761791.107
  21902542.910   -16014138.62449 -12466325.68446  21902543.285    21902550.683
  23169717.141   -13733970.91049 -10329270.06746  23169717.208    23169723.708
  20980994.608   -19717547.26949 -15340247.81047  20980994.530    20981000.679
 04  5 20 17 45  0.0000000  0  8G16G21G15G 6G29G26G22G18
  23210305.282    -9391790.56749  -7296403.36045  23210305.350    23210312.196
  20523147.056   -11384695.16149  -8864996.07847  20523146.851    20523152.166
  23066300.810   -14085889.85449 -10954663.27346  23066300.512    23066309.121
  21150090.094     2139045.82549   1667098.44247  21150090.247    21150097.446
  22765380.566    -9285694.84849  -7229360.12846  22765380.665    22765387.994
  21900077.262   -16027095.68949 -12476422.10446  21900077.652    21900085.075
  23151524.747   -13829572.17849 -10403764.39746  23151524.853    23151531.368
  20970498.897   -19772702.53149 -15383225.91547  20970498.796    20970504.945
 04  5 20 17 45 30.0000000  0  8G16G21G15G 6G29G26G22G18
  23207894.122    -9404462.02649  -7306277.24945  23207894.119    23207900.934
  20519295.500   -11404935.20249  -8880767.54747  20519295.298    20519300.637
  23051246.319   -14165001.89549 -11016309.01246  23051246.034    23051254.637
  21162208.084     2202726.13749   1716719.41347  21162208.228    21162215.460
  22769084.623    -9266229.77549  -7214192.56346  22769084.731    22769092.098
  21897737.943   -16039388.96549 -12486001.28646  21897738.361    21897745.721
  23133378.374   -13924931.64949 -10478070.34946  23133378.476    23133385.009
  20960085.055   -19827427.49649 -15425868.72447  20960084.955    20960091.112
 04  5 20 17 46  0.0000000  0  8G16G21G15G 6G29G26G22G18
  23205589.144    -9416575.24749  -7315716.14445  23205589.105    23205595.976
  20515491.054   -11424927.70349  -8896346.12547  20515490.871    20515496.215
  23036209.683   -14244020.09949 -11077881.60246  23036209.365    23036217.903
  21174406.023     2266826.60749   1766667.78547  21174406.144    21174413.432
  22772895.808    -9246202.06349  -7198586.57946  22772895.912    22772903.220
  21895525.040   -16051017.97149 -12495062.85646  21895525.443    21895532.775
  23115278.319   -14020048.07049 -10552186.93846  23115278.376    23115284.883
  20949753.050   -19881722.37349 -15468176.40047  20949752.968    20949759.141
 04  5 20 17 46 30.0000000  0  8G16G21G15G 6G29G26G22G18
  23203390.318    -9428130.20449  -7324720.03545  23203390.297    23203397.203
  20511734.061   -11444670.95649  -8911730.48547  20511733.862    20511739.180
  23021190.997   -14322943.77849 -11139380.54346  23021190.701    23021199.123
  21186683.810     2331346.65449   1816943.09847  21186683.954    21186691.265
  22776813.995    -9225612.04549  -7182542.42746  22776814.100    22776821.419
  21893438.770   -16061981.58249 -12503605.94146  21893439.157    21893446.498
  23097224.776   -14114919.68149 -10626112.80546  23097224.864    23097231.341
  20939503.230   -19935585.56549 -15510147.70047  20939503.154    20939509.292
 04  5 20 17 47  0.0000000  0  8G16G21G15G 6G29G26G22G18
  23201297.741    -9439126.16949  -7333288.34645  23201297.766    23201304.808
  20508024.589   -11464164.41249  -8926920.20047  20508024.390    20508029.692
  23006190.550   -14401771.91749 -11200805.04046  23006190.286    23006198.606
  21199041.417     2396285.94249   1867545.08047  21199041.559    21199048.838
  22780839.198    -9204459.14849  -7166059.67746  22780839.352    22780846.710
  21891479.463   -16072277.91549 -12511629.07146  21891479.834    21891487.203
  23079218.271   -14209544.16149 -10699846.12746  23079218.370    23079224.822
  20929335.842   -19989015.79449 -15551781.62747  20929335.742    20929341.828
 04  5 20 17 47 30.0000000  0  8G16G21G15G 6G29G26G22G18
  23199311.745    -9449563.53749  -7341421.37545  23199311.660    23199318.718
  20504362.614   -11483408.39949  -8941915.51547  20504362.405    20504367.710
  22991208.248   -14480504.50149 -11262155.08246  22991207.898    22991216.334
  21211478.508     2461642.88549   1918472.52147  21211478.629    21211485.896
  22784971.281    -9182744.70649  -7149139.34246  22784971.403    22784978.856
  21889647.148   -16081906.91149 -12519132.19446  21889647.512    21889654.860
  23061259.079   -14303920.59049 -10773386.13946  23061259.113    23061265.523
  20919250.682   -20042013.32549 -15593078.38447  20919250.604    20919256.701
 04  5 20 17 48  0.0000000  0  8G16G21G15G 6G29G26G22G18
  23197431.875    -9459442.66549  -7349119.43645  23197431.772    23197438.835
  20500748.126   -11502402.55849  -8956716.16947  20500747.918    20500753.233
  22976244.073   -14559141.25149 -11323430.44046  22976243.728    22976252.215
  21223994.795     2527416.13249   1969724.34747  21223994.934    21224002.193
  22789210.224    -9160469.15449  -7131781.79846  22789210.337    22789217.712
  21887941.987   -16090867.71349 -12526114.63946  21887942.373    21887949.625
  23043347.258   -14398047.68449 -10846731.86546  23043347.293    23043353.663
  20909248.085   -20094577.45849 -15634037.43147  20909247.979    20909254.069
 04  5 20 17 48 30.0000000  0  8G16G21G15G 6G29G26G22G18
  23195658.218    -9468763.34649  -7356382.33445  23195658.120    23195665.197
  20497181.217   -11521146.79049  -8971322.06747  20497181.007    20497186.324
  22961298.230   -14637681.70749 -11384630.75846  22961297.994    22961306.424
  21236590.118     2593604.75049   2021299.84147  21236590.254    21236597.537
  22793555.896    -9137633.01249  -7113987.41946  22793556.010    22793563.289
  21886364.186   -16099159.34949 -12532575.66646  21886364.525    21886371.794
  23025483.127   -14491923.62849 -10919881.88846  23025483.210    23025489.637
  20899328.105   -20146707.28249 -15674658.05547  20899327.996    20899334.116
 04  5 20 17 49  0.0000000  0  8G16G21G15G 6G29G26G22G18
  23193990.758    -9477526.20749  -7363210.57045  23193990.635    23193997.741
  20493661.942   -11539640.85849  -8985733.03947  20493661.743    20493667.062
  22946370.716   -14716126.16949 -11445756.29146  22946370.428    22946378.966
  21249264.102     2660206.97449   2073197.62647  21249264.260    21249271.562
  22798007.915    -9114237.57749  -7095757.22846  22798008.067    22798015.331
  21884913.705   -16106781.76449 -12538515.21646  21884914.019    21884921.268
  23007667.028   -14585547.50849 -10992835.51946  23007667.123    23007673.546
  20889490.777   -20198402.71149 -15714940.19247  20889490.677    20889496.763
 04  5 20 17 49 30.0000000  0  8G16G21G15G 6G29G26G22G18
  23192429.505    -9485730.83349  -7369603.82145  23192429.335    23192436.475
  20490190.446   -11557883.74749  -8999948.28547  20490190.227    20490195.536
  22931461.688   -14794473.21449 -11506805.89346  22931461.440    22931470.101
  21262016.820     2727222.60649   2125417.54047  21262016.972    21262024.286
  22802566.486    -9090282.31749  -7077090.81146  22802566.641    22802573.919
  21883590.813   -16113733.20549 -12543931.93846  21883591.205    21883598.474
  22989899.387   -14678916.94749 -11065590.90246  22989899.434    22989905.837
  20879736.410   -20249662.37949 -15754882.77347  20879736.309    20879742.362
 04  5 20 17 50  0.0000000  0  8G16G21G15G 6G29G26G22G18
  23190974.329    -9493377.06849  -7375561.94745  23190974.183    23190981.409
  20486766.845   -11575875.02049  -9013967.46947  20486766.636    20486771.943
  22916571.337   -14872722.55249 -11567779.37446  22916571.048    22916579.759
  21274847.912     2794650.34649   2177958.57847  21274848.059    21274855.409
  22807231.441    -9065768.09549  -7057988.83146  22807231.582    22807238.825
  21882395.912   -16120013.10349 -12548825.37646  21882396.252    21882403.446
  22972180.467   -14772030.42649 -11138146.80646  22972180.540    22972186.896
  20870065.017   -20300485.75949 -15794485.39047  20870064.925    20870070.980
 04  5 20 17 50 30.0000000  0  8G16G21G15G 6G29G26G22G18
  23189625.508    -9500465.45549  -7381085.40645  23189625.386    23189632.594
  20483391.174   -11593614.40649  -9027790.37447  20483390.934    20483396.243
  22901699.450   -14950874.12049 -11628676.69046  22901699.224    22901707.971
  21287757.208     2862488.91649   2230819.74647  21287757.372    21287764.751
  22812002.546    -9040695.79149  -7038451.98846  22812002.679    22812009.997
  21881328.843   -16125620.80549 -12553195.02646  21881329.171    21881336.364
  22954510.437   -14864886.74749 -11210502.34646  22954510.493    22954516.863
  20860476.724   -20350872.31349 -15833747.63047  20860476.643    20860482.684
 04  5 20 17 51  0.0000000  0  8G16G21G15G 6G29G26G22G18
  23188382.786    -9506996.13049  -7386174.27645  23188382.677    23188389.947
  20480063.411   -11611101.73849  -9041416.87947  20480063.197    20480068.518
  22886846.416   -15028927.04249 -11689497.13246  22886846.186    22886854.891
  21300744.433     2930737.10149   2284000.08947  21300744.601    21300752.014
  22816879.831    -9015065.61749  -7018480.43746  22816879.982    22816887.265
  21880389.744   -16130555.68549 -12557040.39146  21880390.061    21880397.261
  22936889.668   -14957484.20749 -11282656.18646  22936889.802    22936896.125
  20850971.802   -20400821.06849 -15872668.72647  20850971.713    20850977.766
 04  5 20 17 51 30.0000000  0  8G16G21G15G 6G29G26G22G18
  23187246.122    -9512969.15249  -7390828.60945  23187245.994    23187253.333
  20476783.737   -11628336.53049  -9054846.59547  20476783.528    20476788.875
  22872012.239   -15106881.02749 -11750240.48446  22872012.015    22872020.651
  21313809.321     2999393.70049   2337498.68047  21313809.507    21313816.966
  22821863.066    -8988878.60249  -6998074.97546  22821863.213    22821870.579
  21879578.826   -16134817.07349 -12560360.96246  21879579.143    21879586.378
  22919318.447   -15049821.51549 -11354607.32546  22919318.616    22919324.845
  20841550.209   -20450331.72649 -15911248.44947  20841550.115    20841556.183
 04  5 20 17 52  0.0000000  0  8G16G21G15G 6G29G26G22G18
  23186215.569    -9518384.92549  -7395048.72546  23186215.457    23186222.772
  20473552.194   -11645318.38049  -9068079.21547  20473551.995    20473557.350
  22857196.901   -15184735.70649 -11810906.42946  22857196.682    22857205.340
  21326951.751     3068457.45249   2391314.53247  21326951.958    21326959.434
  22826952.113    -8962135.60749  -6977236.28846  22826952.250    22826959.538
  21878896.124   -16138404.49449 -12563156.35746  21878896.445    21878903.754
  22901796.988   -15141897.38049 -11426354.72546  22901797.146    22901803.351
  20832211.992   -20499404.11849 -15949486.66847  20832211.920    20832217.993
 04  5 20 17 52 30.0000000  0  8G16G21G15G 6G29G26G22G18
  23185290.974    -9523243.69349  -7398834.80145  23185290.917    23185298.207
  20470368.835   -11662046.83549  -9081114.38647  20470368.659    20470374.023
  22842400.604   -15262490.44249 -11871494.54246  22842400.366    22842409.145
  21340171.478     3137927.22149   2445446.76347  21340171.667    21340179.122
  22832146.825    -8934837.08149  -6955964.72246  22832146.984    22832154.314
  21878341.781   -16141317.27449 -12565426.05746  21878342.129    21878349.470
  22884325.662   -15233709.97649 -11497896.96946  22884325.831    22884331.934
  20822957.322   -20548037.67849 -15987382.93947  20822957.257    20822963.313
 04  5 20 17 53  0.0000000  0  8G16G21G15G 6G29G26G22G18
  23184472.371    -9527545.82849  -7402187.15645  23184472.254    23184479.545
  20467233.830   -11678521.66549  -9093951.92847  20467233.629    20467239.010
  22827623.395   -15340145.19449 -11932004.72046  22827623.085    22827631.912
  21353468.170     3207801.50449   2499894.19847  21353468.361    21353475.823
  22837447.058    -8906983.77049  -6934260.86146  22837447.244    22837454.577
  21877915.990   -16143555.01049 -12567169.75446  21877916.354    21877923.655
  22866904.565   -15325258.05349 -11569233.09746  22866904.751    22866910.904
  20813786.329   -20596231.60849 -16024936.64447  20813786.266    20813792.318
 04  5 20 17 53 30.0000000  0  8G16G21G15G 6G29G26G22G18
  23183759.566    -9531291.78049  -7405106.10245  23183759.507    23183766.696
  20464147.009   -11694742.89849  -9106591.86347  20464146.826    20464152.188
  22812865.396   -15417699.33749 -11992436.51246  22812865.122    22812873.855
  21366841.596     3278079.05349   2554655.86947  21366841.753    21366849.236
  22842852.687    -8878576.82849  -6912125.59346  22842852.852    22842860.228
  21877618.695   -16145117.39749 -12568387.19646  21877619.059    21877626.314
  22849534.070   -15416540.21949 -11640362.03246  22849534.277    22849540.477
  20804699.144   -20643985.06449 -16062147.12047  20804699.106    20804705.128
 04  5 20 17 54  0.0000000  0  8G16G21G15G 6G29G26G22G18
  23183152.491    -9534481.98849  -7407592.01945  23183152.537    23183159.637
  20461108.481   -11710710.49549  -9119034.15847  20461108.309    20461113.682
  22798126.606   -15495152.73249 -12052789.78046  22798126.295    22798134.972
  21380291.424     3348758.39549   2609730.62047  21380291.622    21380299.103
  22848363.535    -8849617.25749  -6889559.70546  22848363.737    22848371.063
  21877450.031   -16146004.07149 -12569078.11246  21877450.406    21877457.616
  22832214.439   -15507555.35249 -11711282.87746  22832214.647    22832220.773
  20795695.729   -20691298.25049 -16099014.53247  20795695.679    20795701.696
 04  5 20 17 54 30.0000000  0  8G16G21G15G 6G29G26G22G18
  23182651.227    -9537116.66249  -7409645.04345  23182651.194    23182658.300
  20458118.419   -11726423.32649  -9131277.93747  20458118.269    20458123.641
  22783407.061   -15572504.62749 -12113063.96646  22783406.706    22783415.370
  21393817.522     3419838.51949   2665117.67447  21393817.758    21393825.278
  22853979.394    -8820105.68749  -6866563.68446  22853979.599    22853986.953
  21877409.998   -16146214.39149 -12569242.00446  21877410.364    21877417.616
  22814946.003   -15598301.74849 -11781994.31846  22814946.182    22814952.303
  20786776.150   -20738170.88349 -16135538.65647  20786776.094    20786782.123
 04  5 20 17 55  0.0000000  0  8G16G21G15G 6G29G26G22G18
  23182255.492    -9539196.25549  -7411265.54145  23182255.468    23182262.576
  20455176.949   -11741880.94249  -9143322.84148  20455176.816    20455182.196
  22768706.848   -15649754.66949 -12173258.78646  22768706.522    22768715.169
  21407419.693     3491317.93349   2720815.86147  21407419.902    21407427.452
  22859700.163    -8790042.89249  -6843138.14846  22859700.359    22859707.737
  21877498.792   -16145748.14749 -12568878.69346  21877499.133    21877506.306
  22797728.878   -15688778.07249 -11852495.30846  22797729.071    22797735.182
  20777940.523   -20784602.43949 -16171719.08247  20777940.461    20777946.483
 04  5 20 17 55 30.0000000  0  8G16G21G15G 6G29G26G22G18
  23181965.288    -9540720.94549  -7412453.65245  23181965.359    23181972.506
  20452284.102   -11757083.01449  -9155168.62448  20452283.959    20452289.350
  22754026.193   -15726902.04849 -12233373.59946  22754025.885    22754034.490
  21421097.624     3563195.78749   2776824.51547  21421097.822    21421105.401
  22865525.813    -8759429.41549  -6819283.50846  22865525.966    22865533.233
  21877716.371   -16144604.42449 -12567987.48646  21877716.742    21877723.946
  22780563.508   -15778982.58149 -11922784.50446  22780563.663    22780569.784
  20769189.101   -20830591.48549 -16207554.69447  20769189.040    20769195.055
 04  5 20 17 56  0.0000000  0  8G16G21G15G 6G29G26G22G18
  23181780.528    -9541691.34949  -7413209.84945  23181780.578    23181787.896
  20449439.880   -11772029.52749  -9166815.27048  20449439.727    20449445.135
  22739365.133   -15803946.65749 -12293408.35146  22739364.805    22739373.405
  21434851.097     3635470.42949   2833142.35247  21434851.291    21434858.887
  22871456.016    -8728266.59149  -6795000.80346  22871456.100    22871463.305
  21878062.855   -16142783.39149 -12566568.49846  21878063.242    21878070.486
  22763450.075   -15868914.14649 -11992861.01346  22763450.251    22763456.326
  20760521.895   -20876138.12649 -16243045.57947  20760521.820    20760527.835
 04  5 20 17 56 30.0000000  0  8G16G21G15G 6G29G26G22G18
  23181701.267    -9542107.74649  -7413534.36045  23181701.322    23181708.728
  20446644.494   -11786719.68349  -9178262.15148  20446644.333    20446649.710
  22724723.766   -15880887.75449 -12353362.44346  22724723.431    22724731.955
  21448679.891     3708140.67649   2889768.45547  21448680.067    21448687.633
  22877490.596    -8696554.84849  -6770290.36346  22877490.653    22877497.907
  21878538.369   -16140284.41949 -12564621.24546  21878538.812    21878546.072
  22746388.937   -15958571.12849 -12062723.57146  22746389.093    22746395.136
  20751939.008   -20921241.57149 -16278191.11247  20751938.922    20751944.915
 04  5 20 17 57  0.0000000  0  8G16G21G15G 6G29G26G22G18
  23181727.386    -9541971.06649  -7413427.89645  23181727.474    23181734.886
  20443897.864   -11801153.64349  -9189509.40048  20443897.684    20443903.047
  22710102.050   -15957725.42349 -12413235.92846  22710101.674    22710110.200
  21462583.593     3781204.61349   2946701.33347  21462583.733    21462591.305
  22883629.235    -8664295.91249  -6745153.55346  22883629.353    22883636.624
  21879142.906   -16137107.79649 -12562145.95646  21879143.304    21879150.586
  22729380.217   -16047952.68149 -12132371.50146  22729380.328    22729386.392
  20743440.386   -20965902.21149 -16312991.60247  20743440.285    20743446.286
 04  5 20 17 57 30.0000000  0  8G16G21G15G 6G29G26G22G18
  23181858.781    -9541281.34649  -7412890.49045  23181858.823    23181866.171
  20441200.144   -11815330.37849  -9200556.22048  20441199.932    20441205.292
  22695500.189   -16034458.68049 -12473028.06346  22695499.782    22695508.293
  21476562.051     3854661.59949   3003940.47247  21476562.205    21476569.771
  22889871.971    -8631490.07349  -6719590.57146  22889872.081    22889879.369
  21879876.620   -16133252.62249 -12559141.91546  21879876.946    21879884.264
  22712424.223   -16137056.96649 -12201803.39646  22712424.296    22712430.365
  20735026.113   -21010119.42749 -16347446.56947  20735026.040    20735032.040
 04  5 20 17 58  0.0000000  0  8G16G21G15G 6G29G26G22G18
  23182095.214    -9540039.45149  -7411922.82445  23182095.169    23182102.441
  20438551.384   -11829249.79249  -9211402.52648  20438551.175    20438556.515
  22680918.231   -16111087.46549 -12532738.78846  22680917.837    22680926.309
  21490615.002     3928509.77349   3061484.43647  21490615.117    21490622.656
  22896218.565    -8598138.76249  -6693602.54646  22896218.637    22896225.986
  21880739.337   -16128719.10649 -12555609.30546  21880739.619    21880746.999
  22695521.212   -16225882.96049 -12271018.43246  22695521.278    22695527.317
  20726696.306   -21053892.90049 -16381555.76047  20726696.227    20726702.216
 04  5 20 17 58 30.0000000  0  8G16G21G15G 6G29G26G22G18
  23182436.554    -9538246.01149  -7410525.37746  23182436.503    23182443.790
  20435951.636   -11842911.76649  -9222048.23248  20435951.415    20435956.747
  22666356.242   -16187611.24849 -12592367.69046  22666355.868    22666364.277
  21504742.093     4002747.70249   3119332.10947  21504742.197    21504749.723
  22902668.854    -8564242.77249  -6667190.10146  22902668.942    22902676.312
  21881731.099   -16123507.24849 -12551548.12346  21881731.432    21881738.791
  22678671.400   -16314429.28049 -12340015.54246  22678671.472    22678677.475
  20718451.007   -21097222.41049 -16415319.01048  20718450.895    20718456.883
 04  5 20 17 59  0.0000000  0  8G16G21G15G 6G29G26G22G18
  23182882.855    -9535901.30049  -7408698.37046  23182882.744    23182890.069
  20433401.041   -11856315.26549  -9232492.52848  20433400.821    20433406.147
  22651814.371   -16264029.52249 -12651914.37946  22651813.995    22651822.337
  21518943.031     4077374.17649   3177482.54147  21518943.136    21518950.732
  22909222.488    -8529803.18849  -6640354.08846  22909222.606    22909229.973
  21882852.030   -16117616.69249 -12546958.08146  21882852.336    21882859.678
  22661875.012   -16402694.36449 -12408793.51046  22661875.140    22661881.110
  20710290.302   -21140107.12349 -16448735.65848  20710290.214    20710296.207
 04  5 20 17 59 30.0000000  0  8G16G21G15G 6G29G26G22G18
  23183433.870    -9533005.76449  -7406442.13146  23183433.743    23183441.054
  20430899.726   -11869459.76749  -9242735.01248  20430899.513    20430904.848
  22637292.748   -16340341.32849 -12711378.11346  22637292.359    22637300.695
  21533217.693     4152387.97849   3235934.78647  21533217.833    21533225.419
  22915879.496    -8494820.83649  -6613095.12046  22915879.567    22915886.912
  21884102.214   -16111046.96949 -12541838.81446  21884102.551    21884109.870
  22645132.502   -16490676.62849 -12477351.08946  22645132.641    22645138.613
  20702214.304   -21182546.78749 -16481805.52248  20702214.215    20702220.197
 04  5 20 18  0  0.0000000  0  8G16G21G15G 6G29G26G22G18
  23184089.597    -9529560.31749  -7403757.42246  23184089.439    23184096.768
  20428447.649   -11882345.54149  -9252775.88448  20428447.440    20428452.783
  22622791.455   -16416546.29949 -12770758.58546  22622791.058    22622799.367
  21547565.786     4227787.49049   3294687.58247  21547565.920    21547573.526
  22922639.422    -8459297.00149  -6585414.24146  22922639.486    22922646.877
  21885481.598   -16103798.36149 -12536190.55346  21885481.906    21885489.270
  22628444.054   -16578374.92049 -12545687.37946  22628444.174    22628450.189
  20694223.069   -21224541.01449 -16514528.29048  20694222.987    20694228.936
 04  5 20 18  0 30.0000000  0  8G16G21G15G 6G29G26G22G18
  23184849.803    -9525565.67449  -7400644.75346  23184849.683    23184856.933
  20426044.970   -11894971.80149  -9262614.53848  20426044.744    20426050.119
  22608310.585   -16492644.00049 -12830055.48646  22608310.173    22608318.480
  21561987.026     4303571.26049   3353739.79547  21561987.187    21561994.783
  22929502.223    -8423232.62749  -6557312.15546  22929502.296    22929509.741
  21886990.118   -16095870.80749 -12530013.24746  21886990.402    21886997.825
  22611809.883   -16665788.06749 -12613801.48746  22611810.020    22611816.100
  20686316.576   -21266089.87749 -16546904.02248  20686316.481    20686322.463
 04  5 20 18  1  0.0000000  0  8G16G21G15G 6G29G26G22G18
  23185714.204    -9521023.34049  -7397105.30646  23185714.094    23185721.347
  20423691.561   -11907338.97749  -9272251.31548  20423691.343    20423696.720
  22593849.906   -16568634.79249 -12889269.08146  22593849.514    22593857.850
  21576480.999     4379737.07549   3413089.70747  21576481.153    21576488.719
  22936467.563    -8386629.69549  -6528790.40846  22936467.644    22936475.008
  21888627.781   -16087264.91149 -12523307.36546  21888628.108    21888635.441
  22595229.995   -16752915.45549 -12681692.92646  22595230.148    22595236.385
  20678494.771   -21307193.62849 -16578932.91448  20678494.686    20678500.655
 04  5 20 18  1 30.0000000  0  8G16G21G15G 6G29G26G22G18
  23186682.944    -9515932.32249  -7393138.31546  23186682.893    23186690.152
  20421387.836   -11919445.45349  -9281684.94248  20421387.607    20421392.979
  22579409.985   -16644516.82349 -12948397.92046  22579409.650    22579417.971
  21591047.650     4456284.76849   3472737.18547  21591047.769    21591055.332
  22943535.400    -8349488.01949  -6499848.87146  22943535.491    22943542.822
  21890394.733   -16077979.63049 -12516072.08246  21890395.035    21890402.381
  22578705.045   -16839754.42549 -12749359.63246  22578705.188    22578711.456
  20670757.988   -21347850.74249 -16610613.77648  20670757.892    20670763.888
 04  5 20 18  2  0.0000000  0  8G16G21G15G 6G29G26G22G18
  23187755.867    -9510294.01549  -7388744.88145  23187755.891    23187763.202
  20419133.705   -11931291.16149  -9290915.37748  20419133.478    20419138.843
  22564990.786   -16720290.03649 -13007441.96546  22564990.462    22564998.789
  21605686.594     4533212.43649   3532680.75047  21605686.674    21605694.267
  22950705.516    -8311809.05949  -6470488.65946  22950705.627    22950712.953
  21892290.883   -16068015.15249 -12508307.56146  21892291.222    21892298.591
  22562235.123   -16926304.21549 -12816800.98246  22562235.300    22562241.565
  20663106.111   -21388061.52249 -16641946.84948  20663106.019    20663112.034
 04  5 20 18  2 30.0000000  0  8G16G21G15G 6G29G26G22G18
  23188932.729    -9504109.42549  -7383925.76545  23188932.806    23188940.148
  20416929.197   -11942875.83049  -9299942.40648  20416928.974    20416934.351
  22550592.389   -16795954.11749 -13066400.97946  22550591.990    22550600.387
  21620397.422     4610518.28949   3592918.99747  21620397.520    21620405.150
  22957977.567    -8273594.31249  -6440710.95446  22957977.713    22957985.016
  21894316.098   -16057372.08449 -12500014.27146  21894316.460    21894323.866
  22545820.467   -17012563.63349 -12884016.07846  22545820.623    22545826.881
  20655539.332   -21427825.29749 -16672931.60748  20655539.248    20655545.248
 04  5 20 18  3  0.0000000  0  9G16G21G15G 6G29G26G22G18G 3
  23190213.415    -9497379.56349  -7378681.75945  23190213.429    23190220.756
  20414774.359   -11954199.58949  -9308766.12448  20414774.136    20414779.530
  22536214.700   -16871508.96549 -13125274.85146  22536214.354    22536222.728
  21635179.919     4688200.58249   3653450.57847  21635180.016    21635187.656
  22965351.281    -8234845.32249  -6410516.95946  22965351.418    22965358.823
  21896470.425   -16046050.80449 -12491192.49246  21896470.809    21896478.179
  22529461.290   -17098531.88349 -12951004.29346  22529461.458    22529467.590
  20648057.543   -21467142.36649 -16703568.27348  20648057.457    20648063.443
  24580914.761    -2950324.83249  -2280268.68345  24580915.036    24580923.917
 04  5 20 18  3 30.0000000  0  9G16G21G15G 6G29G26G22G18G 3
  23191597.384    -9490107.69349  -7373015.41845  23191597.301    23191604.600
  20412668.867   -11965264.15949  -9317387.87848  20412668.643    20412674.017
  22521857.521   -16946956.45149 -13184065.08546  22521857.143    22521865.517
  21650033.274     4766255.36149   3714272.40147  21650033.404    21650041.093
  22972825.929    -8195565.79649  -6379909.57746  22972826.063    22972833.507
  21898753.406   -16034053.73549 -12481844.14446  21898753.828    21898761.133
  22513157.329   -17184210.00849 -13017766.42746  22513157.425    22513163.523
  20640660.252   -21506015.28049 -16733858.85348  20640660.168    20640666.158
  24561585.674    -3051899.11049  -2359417.46645  24561586.207    24561595.054
 04  5 20 18  4  0.0000000  0  9G16G21G15G 6G29G26G22G18G 3
  23193085.077    -9482290.58349  -7366924.21245  23193084.871    23193092.214
  20410613.554   -11976064.96249  -9325804.09648  20410613.326    20410618.722
  22507521.569   -17022291.86949 -13242767.98846  22507521.277    22507529.647
  21664958.054     4844685.19449   3775386.48047  21664958.161    21664965.889
  22980402.120    -8155752.70749  -6348886.41246  22980402.268    22980409.673
  21901165.730   -16021377.14049 -12471966.28646  21901166.088    21901173.415
  22496909.518   -17269592.64449 -13084298.30746  22496909.604    22496915.681
  20633348.399   -21544439.28049 -16763799.63448  20633348.320    20633354.323
  24542281.927    -3153340.46349  -2438462.64945  24542282.531    24542291.406
 04  5 20 18  4 30.0000000  0  9G16G21G15G 6G29G26G22G18G 3
  23194675.988    -9473929.95649  -7360409.47945  23194675.820    23194683.259
  20408608.260   -11986602.65049  -9334015.29548  20408608.065    20408613.468
  22493206.928   -17097515.72249 -13301383.96446  22493206.637    22493215.034
  21679953.709     4923487.47349   3836790.77647  21679953.820    21679961.559
  22988079.392    -8115408.25449  -6317449.20646  22988079.534    22988086.910
  21903707.096   -16008022.11749 -12461559.78146  21903707.439    21903714.782
  22480717.945   -17354679.64649 -13150599.83846  22480718.053    22480724.168
  20626121.661   -21582415.86449 -16793391.77448  20626121.583    20626127.598
  24523003.802    -3254647.86249  -2517403.47345  24523004.408    24523013.314
 04  5 20 18  5  0.0000000  0  9G16G21G15G 6G29G26G22G18G 3
  23196370.293    -9465026.21549  -7353471.54145  23196370.167    23196377.619
  20406653.243   -11996876.40049  -9342020.82848  20406653.048    20406658.451
  22478913.720   -17172626.83649 -13359912.09646  22478913.462    22478921.871
  21695020.062     5002661.45349   3898484.71247  21695020.190    21695027.969
  22995857.624    -8074533.25949  -6285598.59146  22995857.730    22995865.214
  21906377.663   -15993988.34349 -12450624.38646  21906378.010    21906385.309
  22464582.967   -17439469.19749 -13216669.58646  22464583.102    22464589.205
  20618980.295   -21619944.19449 -16822634.62848  20618980.187    20618986.211
  24503751.717    -3355818.39849  -2596237.63845  24503752.116    24503761.268
 04  5 20 18  5 30.0000000  0  9G16G21G15G 6G29G26G22G18G 3
  23198167.797    -9455580.54249  -7346111.32445  23198167.712    23198175.184
  20404748.478   -12006885.97349  -9349820.50648  20404748.277    20404753.688
  22464642.080   -17247625.16849 -13418352.34746  22464641.792    22464650.159
  21710156.703     5082204.90449   3960466.55147  21710156.831    21710164.636
  23003736.504    -8033129.58349  -6253336.01646  23003736.614    23003744.102
  21909177.286   -15979276.58249 -12439160.69246  21909177.622    21909184.866
  22448504.746   -17523960.43849 -13282506.88246  22448504.913    22448511.026
  20611924.115   -21657024.51949 -16851528.38548  20611924.022    20611930.049
  24484526.093    -3456850.15649  -2674963.66845  24484526.335    24484535.642
 04  5 20 18  6  0.0000000  0  9G16G21G15G 6G29G26G22G18G 3
  23200068.208    -9445594.55349  -7338330.08845  23200068.008    23200075.488
  20402893.949   -12016631.48349  -9357414.42148  20402893.780    20402899.183
  22450391.942   -17322510.52449 -13476704.55746  22450391.607    22450399.931
  21725363.218     5162115.64349   4022734.57547  21725363.364    21725371.194
  23011715.749    -7991198.85749  -6220662.74746  23011715.790    23011723.272
  21912105.707   -15963887.65849 -12427169.33846  21912106.085    21912113.352
  22432483.459   -17608152.61749 -13348111.14946  22432483.625    22432489.744
  20604953.243   -21693656.61849 -16880072.87348  20604953.158    20604959.192
  24465327.150    -3557741.30749  -2753580.13245  24465327.366    24465336.819
 04  5 20 18  6 30.0000000  0  9G16G21G15G 6G29G26G22G18G 3
  23202071.128    -9435068.76749  -7330128.22845  23202071.040    23202078.536
  20401089.805   -12026112.23949  -9364802.03348  20401089.640    20401095.061
  22436163.381   -17397281.96049 -13534968.00146  22436163.067    22436171.335
  21740639.461     5242392.76649   4085288.09547  21740639.628    21740647.464
  23019794.869    -7948742.00849  -6187579.51446  23019795.028    23019802.571
  21915163.031   -15947821.47749 -12414650.25046  21915163.418    21915170.610
  22416519.409   -17692044.03649 -13413481.05146  22416519.597    22416525.740
  20598067.704   -21729840.16049 -16908267.83848  20598067.625    20598073.671
  24446155.688    -3658489.00149  -2832084.83745  24446155.808    24446165.349
 04  5 20 18  7  0.0000000  0  9G16G21G15G 6G29G26G22G18G 3
  23204176.532    -9424004.63749  -7321506.87945  23204176.482    23204183.969
  20399335.988   -12035328.42749  -9371983.49048  20399335.844    20399341.268
  22421956.471   -17471939.52149 -13593142.70746  22421956.203    22421964.547
  21755984.969     5323033.81849   4148125.19847  21755985.145    21755993.003
  23027973.909    -7905761.22549  -6154088.03546  23027974.035    23027981.635
  21918349.027   -15931079.17049 -12401604.30746  21918349.402    21918356.554
  22400612.723   -17775634.34149 -13478616.32946  22400612.879    22400619.005
  20591267.393   -21765575.85349 -16936113.82948  20591267.332    20591273.398
  24427011.819    -3759091.70749  -2910476.54645  24427011.931    24427021.273
 04  5 20 18  7 30.0000000  0  9G16G21G15G 6G29G26G22G18G 3
  23206384.325    -9412402.64849  -7312466.42145  23206384.265    23206391.756
  20397632.789   -12044278.91749  -9378957.90748  20397632.653    20397638.058
  22407771.431   -17546482.19249 -13651227.89046  22407771.133    22407779.493
  21771399.573     5404037.95349   4211245.21347  21771399.724    21771407.654
  23036252.433    -7862256.97849  -6120188.65546  23036252.595    23036260.176
  21921663.686   -15913660.48049 -12388031.32146  21921664.028    21921671.258
  22384763.594   -17858921.63849 -13543515.50246  22384763.780    22384769.897
  20584552.438   -21800863.32749 -16963610.56048  20584552.381    20584558.429
  24407895.934    -3859546.58449  -2988753.06745  24407896.155    24407905.371
 04  5 20 18  8  0.0000000  0  9G16G21G15G 6G29G26G22G18G 3
  23208694.257    -9400263.88049  -7303007.70545  23208694.225    23208701.752
  20395980.221   -12052963.42949  -9385725.07148  20395980.077    20395985.488
  22393608.302   -17620909.53049 -13709223.20646  22393608.028    22393616.392
  21786882.855     5485403.21349   4274646.63447  21786883.065    21786891.027
  23044630.246    -7818231.20749  -6085882.88746  23044630.474    23044637.980
  21925106.972   -15895566.05749 -12373931.78646  21925107.304    21925114.558
  22368972.323   -17941904.85649 -13608177.72546  22368972.553    22368978.719
  20577922.797   -21835702.20349 -16990757.73348  20577922.751    20577928.797
  24388808.544    -3959851.45349  -3066912.70245  24388808.659    24388818.038
 04  5 20 18  8 30.0000000  0  9G16G21G15G 6G29G26G22G18G 3
  23211106.290    -9387589.73149  -7293131.79545  23211106.145    23211113.584
  20394378.257   -12061381.75349  -9392284.81648  20394378.126    20394383.557
  22379467.195   -17695221.10349 -13767128.31846  22379466.958    22379475.295
  21802434.473     5567127.73749   4338328.00347  21802434.718    21802442.797
  23053107.051    -7773685.31749  -6051171.83346  23053107.217    23053114.817
  21928678.662   -15876796.55249 -12359306.22046  21928679.031    21928686.329
  22353239.152   -18024583.22449 -13672602.40746  22353239.374    22353245.502
  20571378.459   -21870092.92849 -17017555.69748  20571378.421    20571384.480
  24369750.205    -4060004.18849  -3144953.78445  24369750.133    24369759.583
 04  5 20 18  9  0.0000000  0  9G16G21G15G 6G29G26G22G18G 3
  23213619.651    -9374381.56549  -7282839.77245  23213619.606    23213627.109
  20392827.031   -12069533.66049  -9398636.96548  20392826.890    20392832.322
  22365348.248   -17769416.70349 -13824943.05846  22365348.022    22365356.370
  21818054.263     5649209.67849   4402287.86647  21818054.475    21818062.559
  23061682.470    -7728621.08449  -6016056.86946  23061682.670    23061690.274
  21932378.686   -15857352.71549 -12344155.19446  21932379.090    21932386.412
  22337564.267   -18106955.63949 -13736788.68446  22337564.476    22337570.529
  20564919.413   -21904035.41849 -17044004.38548  20564919.383    20564925.457
  24350721.044    -4160002.72549  -3222874.71045  24350720.937    24350730.504
 04  5 20 18  9 30.0000000  0  9G16G21G15G 6G29G26G22G18G 3
  23216234.772    -9360639.62649  -7272131.81645  23216234.665    23216242.140
  20391326.652   -12077418.14849  -9404780.73548  20391326.528    20391331.954
  22351251.609   -17843495.27649 -13882666.60946  22351251.311    22351259.684
  21833741.882     5731648.05249   4466525.47847  21833742.065    21833750.172
  23070356.465    -7683039.41849  -5980538.71046  23070356.714    23070364.221
  21936207.083   -15837234.54749 -12328478.71646  21936207.489    21936214.781
  22321947.869   -18189020.48249 -13800735.29546  22321948.087    22321954.039
  20558545.785   -21937529.15149 -17070103.40048  20558545.745    20558551.839
  24331721.750    -4259844.28749  -3300673.31745  24331721.779    24331731.321
 04  5 20 18 10  0.0000000  0  9G16G21G15G 6G29G26G22G18G 3
  23218951.129    -9346365.77449  -7261009.37746  23218950.975    23218958.368
  20389877.203   -12085035.13949  -9410716.06648  20389877.092    20389882.507
  22337177.271   -17917456.71549 -13940298.89146  22337176.954    22337185.280
  21849496.849     5814440.42149   4531038.92747  21849497.048    21849505.143
  23079128.564    -7636942.29249  -5944618.90646  23079128.782    23079136.272
  21940163.528   -15816443.29049 -12312277.75046  21940163.941    21940171.228
  22306390.096   -18270777.18649 -13864441.79446  22306390.307    22306396.238
  20552257.357   -21970575.01449 -17095853.42548  20552257.318    20552263.392
  24312752.740    -4359527.06649  -3378348.18745  24312752.841    24312762.287
 04  5 20 18 10 30.0000000  0  9G16G21G15G 6G29G26G22G18G 3
  23221768.396    -9331560.42049  -7249472.80346  23221768.364    23221775.850
  20388478.817   -12092383.83049  -9416442.33048  20388478.700    20388484.139
  22323125.353   -17991300.01649 -13997839.10146  22323125.042    22323133.339
  21865318.994     5897585.90749   4595827.53647  21865319.174    21865327.262
  23087998.464    -7590330.62549  -5908298.15146  23087998.652    23088006.160
  21944248.065   -15794978.66349 -12295552.08646  21944248.473    21944255.827
  22290891.190   -18352224.13249 -13927906.93246  22290891.447    22290897.358
  20546054.331   -22003172.03949 -17121253.70148  20546054.293    20546060.362
  24293814.615    -4459048.14349  -3455897.08345  24293814.602    24293823.992
 04  5 20 18 11  0.0000000  0  9G16G21G15G 6G29G26G22G18G 3
  23224686.653    -9316224.75249  -7237522.98945  23224686.694    23224694.169
  20387131.623   -12099463.55649  -9421959.01148  20387131.502    20387136.927
  22309096.076   -18065024.30749 -14055286.58646  22309095.784    22309104.052
  21881207.984     5981082.62449   4660889.81947  21881208.155    21881216.273
  23096965.970    -7543205.79749  -5871577.53246  23096966.163    23096973.763
  21948460.650   -15772841.46349 -12278302.33446  21948461.066    21948468.389
  22275451.553   -18433359.82149 -13991129.52747  22275451.826    22275457.754
  20539936.858   -22035319.66549 -17146303.79548  20539936.818    20539942.870
  24274907.543    -4558405.05949  -3533318.02745  24274907.461    24274916.918
 04  5 20 18 11 30.0000000  0  9G16G21G15G 6G29G26G22G18G 3
  23227705.663    -9300360.42949  -7225161.22545  23227705.634    23227713.132
  20385835.587   -12106274.52949  -9427266.27548  20385835.440    20385840.868
  22295089.516   -18138629.42049 -14112641.20246  22295089.191    22295097.432
  21897163.373     6064928.75049   4726224.37547  21897163.559    21897171.726
  23106030.744    -7495569.81749  -5834458.61546  23106031.058    23106038.621
  21952801.025   -15750032.53449 -12260529.16246  21952801.442    21952808.786
  22260071.334   -18514183.68849 -14054109.13947  22260071.533    22260077.528
  20533904.672   -22067019.05049 -17171004.61748  20533904.634    20533910.679
  24256032.113    -4657595.99949  -3610609.64245  24256032.148    24256041.370
 04  5 20 18 12  0.0000000  0  9G16G21G15G 6G29G26G22G18G 3
  23230825.012    -9283968.67049  -7212388.48045  23230824.835    23230832.425
  20384590.746   -12112816.26949  -9432363.74948  20384590.602    20384596.046
  22281105.691   -18212115.01149 -14169902.69346  22281105.332    22281113.626
  21913184.961     6149122.37749   4791829.70747  21913185.187    21913193.365
  23115192.609    -7447424.36249  -5796942.70346  23115192.825    23115200.443
  21957269.099   -15726553.10749 -12242233.51846  21957269.479    21957276.765
  22244750.573   -18594694.90749 -14116845.12747  22244750.769    22244756.759
  20527957.746   -22098270.43149 -17195356.34248  20527957.711    20527963.753
  24237188.817    -4756618.57449  -3687770.10245  24237188.722    24237197.883
 04  5 20 18 12 30.0000000  0  9G16G21G15G 6G29G26G22G18G 3
  23234044.507    -9267050.56649  -7199205.59245  23234044.286    23234051.907
  20383397.253   -12119088.22849  -9437251.00148  20383397.078    20383402.512
  22267144.799   -18285480.03049 -14227070.22146  22267144.417    22267152.756
  21929272.413     6233661.59949   4857704.33847  21929272.560    21929280.699
  23124451.094    -7398771.01049  -5759031.04846  23124451.305    23124458.910
  21961864.676   -15702403.52749 -12223415.69146  21961865.007    21961872.324
  22229489.509   -18674892.22549 -14179336.52047  22229489.675    22229495.655
  20522096.178   -22129073.39449 -17219358.65148  20522096.128    20522102.139
  24218377.957    -4855470.45049  -3764797.51345  24218377.767    24218386.999
 04  5 20 18 13  0.0000000  0  9G16G21G15G 6G29G26G22G18G 3
  23237363.763    -9249607.59149  -7185613.71445  23237363.608    23237371.139
  20382255.160   -12125090.12649  -9441927.81848  20382254.978    20382260.424
  22253206.873   -18358724.14949 -14284143.52846  22253206.486    22253214.889
  21945425.277     6318544.82849   4923847.01247  21945425.378    21945433.522
  23133805.962    -7349611.32249  -5720724.84246  23133806.080    23133813.796
  21966587.501   -15677584.74349 -12204076.39546  21966587.897    21966595.232
  22214288.327   -18754774.75349 -14241582.62447  22214288.508    22214294.460
  20516319.796   -22159428.61549 -17243012.07348  20516319.727    20516325.748
  24199599.998    -4954149.24849  -3841690.04945  24199599.836    24199608.894
 04  5 20 18 13 30.0000000  0  9G16G21G15G 6G29G26G22G18G 3
  23240782.811    -9231640.60249  -7171613.51945  23240782.701    23240790.239
  20381164.622   -12130820.98649  -9446393.44048  20381164.443    20381169.855
  22239292.150   -18431846.42949 -14341121.91546  22239291.789    22239300.220
  21961643.262     6403770.54749   4990256.58447  21961643.401    21961651.535
  23143257.003    -7299946.60549  -5682025.09846  23143257.116    23143264.718
  21971437.683   -15652097.23349 -12184216.00446  21971438.030    21971445.395
  22199147.327   -18834341.06249 -14303582.32247  22199147.510    22199153.386
  20510628.715   -22189335.58149 -17266316.20448  20510628.627    20510634.666
  24180855.494    -5052652.36249  -3918445.72345  24180855.272    24180864.172
 04  5 20 18 14  0.0000000  0  9G16G21G15G 6G29G26G22G18G 3
  23244301.309    -9213151.16849  -7157206.23845  23244301.284    23244308.734
  20380125.679   -12136280.88849  -9450647.92248  20380125.493    20380130.906
  22225400.713   -18504846.47449 -14398005.03846  22225400.295    22225408.709
  21977926.042     6489336.78049   5056931.48347  21977926.188    21977934.367
  23152803.691    -7249778.77649  -5642933.32046  23152803.747    23152811.350
  21976414.845   -15625942.02849 -12163835.34346  21976415.194    21976422.561
  22184066.705   -18913590.34149 -14365334.98047  22184066.830    22184072.651
  20505022.840   -22218794.58849 -17289271.27548  20505022.758    20505028.766
  24162144.811    -5150977.93349  -3995063.03045  24162144.625    24162153.591
 04  5 20 18 14 30.0000000  0  9G16G21G15G 6G29G26G22G18G 3
  23247919.062    -9194140.47449  -7142392.76045  23247918.991    23247926.466
  20379138.380   -12141469.16849  -9454690.75248  20379138.196    20379143.633
  22211532.644   -18577723.61349 -14454792.40046  22211532.246    22211540.620
  21994273.302     6575241.77149   5123870.34747  21994273.451    21994281.649
  23162445.728    -7199109.47849  -5603450.80246  23162445.742    23162453.443
  21981518.956   -15599120.03149 -12142935.09746  21981519.291    21981526.677
  22169046.684   -18992521.35149 -14426839.63747  22169046.769    22169052.577
  20499502.273   -22247805.38049 -17311877.09048  20499502.200    20499508.216
  24143468.274    -5249123.30249  -4071539.91645  24143468.244    24143476.978
 04  5 20 18 15  0.0000000  0  9G16G21G15G 6G29G26G22G18G 3
  23251635.769    -9174609.33549  -7127173.72745  23251635.637    23251643.208
  20378202.971   -12146384.96249  -9458521.25248  20378202.754    20378208.206
  22197688.127   -18650476.85449 -14511483.21646  22197687.751    22197696.068
  22010684.762     6661484.09149   5191072.06547  22010684.890    22010693.134
  23172182.940    -7147939.71349  -5563578.30346  23172183.022    23172190.686
  21986749.837   -15571631.61649 -12121515.56946  21986750.229    21986757.553
  22154087.425   -19071132.78349 -14488095.26747  22154087.495    22154093.337
  20494067.055   -22276367.80849 -17334133.52448  20494066.963    20494072.967
  24124826.632    -5347085.81149  -4147874.32045  24124826.579    24124835.281
 04  5 20 18 15 30.0000000  0  9G16G21G15G 6G29G26G22G18G 3
  23255451.197    -9154559.72849  -7111550.71845  23255451.075    23255458.593
  20377319.442   -12151027.93249  -9462139.16548  20377319.235    20377324.695
  22183867.328   -18723105.80449 -14568077.18246  22183866.969    22183875.206
  22027160.044     6748061.79649   5258535.12846  22027160.154    22027168.416
  23182015.059    -7096271.68149  -5523317.54146  23182015.175    23182022.728
  21992107.336   -15543478.01249 -12099577.71246  21992107.681    21992114.985
  22139189.075   -19149423.89249 -14549101.29547  22139189.178    22139195.009
  20488717.030   -22304482.56049 -17356041.12548  20488716.926    20488722.888
  24106220.276    -5444863.20749  -4224064.46445  24106220.271    24106228.837
 04  5 20 18 16  0.0000000  0  9G16G21G15G 6G29G26G22G18G 3
  23259364.990    -9133992.58549  -7095524.43745  23259364.956    23259372.446
  20376487.982   -12155397.53249  -9465544.06648  20376487.761    20376493.231
  22170070.289   -18795609.89649 -14624573.85546  22170069.900    22170078.104
  22043698.835     6834973.18749   5326258.18646  22043698.925    22043707.169
  23191941.753    -7044106.88949  -5482669.70046  23191941.823    23191949.376
  21997591.255   -15514659.90649 -12077122.06646  21997591.604    21997598.933
  22124351.995   -19227393.32149 -14609856.67647  22124352.120    22124357.898
  20483452.219   -22332149.49549 -17377599.78348  20483452.091    20483458.058
  24087649.490    -5542452.89249  -4300108.35545  24087649.458    24087658.205
 04  5 20 18 16 30.0000000  0  9G16G21G15G 6G29G26G22G18G 3
  23263376.827    -9112910.13449  -7079096.62045  23263376.879    23263384.349
  20375708.448   -12159494.09749  -9468736.20748  20375708.211    20375713.679
  22156297.036   -18867988.91949 -14680973.06946  22156296.645    22156304.778
  22060300.558     6922215.84649   5394239.39746  22060300.691    22060309.001
  23201962.539    -6991447.63249  -5441636.55646  23201962.556    23201970.195
  22003201.246   -15485179.09149 -12054150.01346  22003201.591    22003208.981
  22109576.197   -19305040.90849 -14670361.26447  22109576.269    22109582.062
  20478272.389   -22359369.75949 -17398810.37748  20478272.267    20478278.240
  24069114.779    -5639853.21349  -4376004.67545  24069114.749    24069123.634
 04  5 20 18 17  0.0000000  0  9G16G21G15G 6G29G26G22G18G 3
  23267486.746    -9091312.68449  -7062267.48245  23267486.824    23267494.284
  20374981.198   -12163315.81649  -9471714.18048  20374980.964    20374986.464
  22142547.925   -18940241.24849 -14737273.56246  22142547.473    22142555.587
  22076965.196     7009788.89549   5462478.04246  22076965.325    22076973.672
  23212077.221    -6938294.59349  -5400218.64646  23212077.313    23212084.981
  22008937.424   -15455035.46049 -12030661.48346  22008937.800    22008945.116
  22094861.993   -19382364.47949 -14730613.37247  22094862.086    22094867.893
  20473177.820   -22386141.99649 -17419671.85948  20473177.694    20473183.649
  24050616.711    -5737060.83849  -4451750.85145  24050616.714    24050625.649
 04  5 20 18 17 30.0000000  0  9G16G21G15G 6G29G26G22G18G 3
  23271694.142    -9069202.94949  -7045039.18545  23271694.241    23271701.737
  20374306.230   -12166862.93049  -9474478.17448  20374306.001    20374311.507
  22128822.740   -19012367.33849 -14793475.69046  22128822.275    22128830.472
  22093692.135     7097689.33849   5530971.80046  22093692.275    22093700.639
  23222285.373    -6884650.81349  -5358418.34446  23222285.486    23222293.183
  22014799.305   -15424231.38749 -12006658.32646  22014799.671    22014806.981
  22080209.304   -19459364.59549 -14790613.43547  22080209.389    22080215.205
  20468168.185   -22412467.78449 -17440185.45948  20468168.042    20468173.999
  24032155.606    -5834074.64349  -4527345.99645  24032155.585    24032164.727
 04  5 20 18 18  0.0000000  0  9G16G21G15G 6G29G26G22G18G 3
  23275999.163    -9046580.56749  -7027411.41345  23275999.152    23276006.737
  20373683.686   -12170134.37449  -9477027.36648  20373683.452    20373688.952
  22115121.948   -19084364.96449 -14849577.70946  22115121.510    22115129.759
  22110481.405     7185916.90049   5599720.45646  22110481.552    22110489.853
  23232586.889    -6830516.30849  -5316235.66046  23232587.014    23232594.690
  22020786.923   -15392766.12649 -11982139.96246  22020787.246    22020794.614
  22065618.689   -19536038.43949 -14850359.26347  22065618.810    22065624.639
  20463243.667   -22438346.10849 -17460350.38748  20463243.551    20463249.527
  24013732.283    -5930890.50349  -4602786.90245  24013732.229    24013741.284
 04  5 20 18 18 30.0000000  0  9G16G21G15G 6G29G26G22G18G 3
  23280400.911    -9023448.97049  -7009386.84445  23280400.924    23280408.493
  20373113.365   -12173131.47149  -9479362.77948  20373113.167    20373118.649
  22101445.383   -19156235.21749 -14905580.49146  22101444.978    22101453.268
  22127332.106     7274467.84149   5668721.08846  22127332.286    22127340.603
  23242981.106    -6775894.81349  -5273673.49846  23242981.199    23242988.890
  22026899.773   -15360642.97649 -11957108.94846  22026900.154    22026907.442
  22051090.036   -19612386.84349 -14909851.50347  22051090.178    22051095.958
  20458404.002   -22463778.62949 -17480167.93248  20458403.902    20458409.866
  23995346.669    -6027507.78749  -4678073.07045  23995346.637    23995355.569
 04  5 20 18 19  0.0000000  0  9G16G21G15G 6G29G26G22G18G 3
  23284899.647    -8999808.00349  -6990965.38045  23284899.610    23284907.313
  20372595.720   -12175851.58349  -9481482.36148  20372595.526    20372601.022
  22087793.564   -19227975.81149 -14961482.23046  22087793.179    22087801.462
  22144244.347     7363342.08149   5737973.64146  22144244.548    22144252.880
  23253467.960    -6720786.30349  -5230731.84846  23253468.019    23253475.729
  22033138.071   -15327860.83449 -11931564.43646  22033138.406    22033145.675
  22036623.871   -19688407.04549 -14969088.00047  22036624.003    22036629.700
  20453649.509   -22488763.74949 -17499636.85848  20453649.403    20453655.367
  23976999.635    -6123922.38449  -4753201.30745  23976999.618    23977008.483
 04  5 20 18 19 30.0000000  0  9G16G21G15G 6G29G26G22G18G 3
  23289494.748    -8975660.88649  -6972149.52245  23289494.698    23289502.465
  20372130.555   -12178296.19249  -9483387.26248  20372130.358    20372135.840
  22074166.145   -19299587.83249 -15017283.78346  22074165.803    22074174.098
  22161217.461     7452535.90949   5807475.22846  22161217.638    22161225.993
  23264046.681    -6665194.50149  -5187413.59446  23264046.775    23264054.485
  22039501.105   -15294422.95549 -11905508.96946  22039501.441    22039508.723
  22022219.979   -19764100.12549 -15028069.59647  22022220.094    22022225.718
  20448979.677   -22513303.80049 -17518758.97248  20448979.566    20448985.566
  23958691.215    -6220133.85149  -4828171.25845  23958691.174    23958700.063
 04  5 20 18 20  0.0000000  0  9G16G21G15G 6G29G26G22G18G 3
  23294186.026    -8951008.32749  -6952939.80145  23294186.040    23294193.778
  20371718.183   -12180463.54749  -9485076.12548  20371717.963    20371723.423
  22060563.648   -19371069.39249 -15072983.68546  22060563.300    22060571.576
  22178251.272     7542048.69449   5877225.34746  22178251.436    22178259.838
  23274717.304    -6609120.02949  -5143719.25746  23274717.419    23274725.168
  22045988.849   -15260329.36249 -11878942.56246  22045989.219    22045996.528
  22007878.748   -19839463.93449 -15086794.62247  22007878.842    22007884.431
  20444394.825   -22537397.43249 -17537533.22748  20444394.730    20444400.715
  23940422.056    -6316138.51149  -4902980.04645  23940422.041    23940431.018
 04  5 20 18 20 30.0000000  0  9G16G21G15G 6G29G26G22G18G 3
  23298973.219    -8925852.00449  -6933337.54345  23298973.177    23298980.995
  20371358.484   -12182353.65849  -9486548.95248  20371358.272    20371363.704
  22046986.077   -19442420.22349 -15128581.71446  22046985.750    22046993.956
  22195345.304     7631878.13749   5947222.23046  22195345.502    22195353.906
  23285479.403    -6552565.11949  -5099650.53446  23285479.489    23285487.268
  22052601.159   -15225581.48249 -11851866.31446  22052601.561    22052608.856
  21993600.321   -19914497.87749 -15145262.60647  21993600.387    21993605.958
  20439894.747   -22561045.64449 -17555960.40348  20439894.615    20439900.589
  23922192.646    -6411934.54449  -4977626.28445  23922192.710    23922201.648
 04  5 20 18 21  0.0000000  0  9G16G21G15G 6G29G26G22G18G 3
  23303855.993    -8900192.68149  -6913343.33145  23303855.937    23303863.751
  20371051.807   -12183965.29149  -9487804.79148  20371051.604    20371057.044
  22033433.671   -19513638.81949 -15184076.70846  22033433.321    22033441.503
  22212499.440     7722023.16049   6017465.00646  22212499.616    22212508.084
  23296332.634    -6495530.83449  -5055208.26546  23296332.755    23296340.605
  22059337.885   -15190179.95049 -11824280.73046  22059338.278    22059345.533
  21979384.897   -19989200.43549 -15203472.37147  21979384.979    21979390.587
  20435479.509   -22584247.83649 -17574040.03348  20435479.382    20435485.389
  23904003.533    -6507518.63849  -5052107.34745  23904003.633    23904012.581
 04  5 20 18 21 30.0000000  0  9G16G21G15G 6G29G26G22G18G 3
  23308834.081    -8874032.60549  -6892958.92245  23308834.060    23308841.927
  20370798.165   -12185298.21549  -9488843.44848  20370797.970    20370803.429
  22019906.495   -19584724.84349 -15239468.39946  22019906.136    22019914.297
  22229713.174     7812481.29249   6087951.76846  22229713.289    22229721.798
  23307276.722    -6438019.51149  -5010394.29346  23307276.818    23307284.814
  22066198.696   -15154126.41149 -11796187.08846  22066199.078    22066206.320
  21965232.642   -20063570.95149 -15261423.40047  21965232.746    21965238.360
  20431149.021   -22607004.67349 -17591772.63348  20431148.910    20431154.898
  23885855.197    -6602888.61449  -5126421.57245  23885855.247    23885864.312
 04  5 20 18 22  0.0000000  0  9G16G21G15G 6G29G26G22G18G 3
  23313907.308    -8847373.36549  -6872185.54845  23313907.188    23313915.031
  20370597.653   -12186351.99349  -9489664.59148  20370597.449    20370602.925
  22006404.558   -19655677.73949 -15294756.35046  22006404.193    22006412.414
  22246986.104     7903250.66249   6158681.04946  22246986.221    22246994.757
  23318311.233    -6380032.91149  -4965209.97146  23318311.299    23318319.328
  22073183.316   -15117422.19049 -11767586.42646  22073183.663    22073190.938
  21951143.789   -20137608.72249 -15319115.15047  21951143.839    21951149.443
  20426903.095   -22629317.20149 -17609159.01848  20426902.979    20426908.948
  23867748.108    -6698042.08649  -5200567.08645  23867748.082    23867757.175
 04  5 20 18 22 30.0000000  0  9G16G21G15G 6G29G26G22G18G 3
  23319075.170    -8820216.50149  -6851024.43345  23319075.020    23319082.850
  20370450.305   -12187126.54449  -9490268.15648  20370450.091    20370455.593
  21992928.105   -19726496.90649 -15349940.09146  21992927.773    21992935.982
  22264317.884     7994329.31149   6229651.33046  22264318.003    22264326.531
  23329435.771    -6321573.11249  -4919656.94346  23329435.857    23329443.988
  22080291.423   -15080068.58449 -11738479.75646  22080291.792    22080299.189
  21937118.279   -20211312.80449 -15376546.87947  21937118.369    21937123.988
  20422741.748   -22651185.31749 -17626199.11448  20422741.640    20422747.582
  23849682.597    -6792976.92949  -5274542.25545  23849682.528    23849691.625
 04  5 20 18 23  0.0000000  0  9G16G21G15G 6G29G26G22G18G 3
  23324337.337    -8792563.71649  -6829476.86545  23324337.237    23324345.028
  20370356.225   -12187621.01049  -9490653.47548  20370356.006    20370361.498
  21979477.332   -19797181.46849 -15405018.95746  21979476.935    21979485.153
  22281708.085     8085715.24149   6300861.04946  22281708.244    22281716.809
  23340650.035    -6262642.02449  -4873736.64346  23340650.184    23340658.151
  22087522.880   -15042067.00349 -11708868.16246  22087523.286    22087530.733
  21923156.444   -20284682.39149 -15433717.96347  21923156.535    21923162.210
  20418664.868   -22672609.49449 -17642893.27748  20418664.733    20418670.706
  23831659.169    -6887690.58249  -5348345.06645  23831659.116    23831668.189
 04  5 20 18 23 30.0000000  0  9G16G21G15G 6G29G26G22G18G 3
  23329693.609    -8764416.74749  -6807544.23645  23329693.460    23329701.256
  20370315.562   -12187834.84249  -9490820.11248  20370315.344    20370320.828
  21966052.192   -19867730.81349 -15459992.44646  21966051.819    21966059.987
  22299156.477     8177406.67549   6372308.81846  22299156.575    22299165.156
  23351953.640    -6203241.50249  -4827450.55246  23351953.789    23351961.660
  22094877.455   -15003418.83349 -11678752.73046  22094877.805    22094885.274
  21909258.469   -20357716.45049 -15490627.59347  21909258.586    21909264.297
  20414672.406   -22693589.81949 -17659241.58248  20414672.287    20414678.279
  23813678.184    -6982180.67749  -5421973.66645  23813678.134    23813687.290
 04  5 20 18 24  0.0000000  0  9G16G21G15G 6G29G26G22G18G 3
  23335143.434    -8735777.84749  -6785228.29545  23335143.336    23335151.064
  20370328.222   -12187768.19849  -9490768.20048  20370328.025    20370333.514
  21952652.912   -19938144.57449 -15514860.29946  21952652.535    21952660.668
  22316662.503     8269401.07049   6443992.65946  22316662.605    22316671.204
  23363346.049    -6143373.91049  -4780800.52445  23363346.142    23363354.041
  22102354.636   -14964125.93449 -11648134.91246  22102354.998    22102362.521
  21895424.436   -20430414.51449 -15547275.41647  21895424.553    21895430.242
  20410764.275   -22714127.21249 -17675244.74848  20410764.162    20410770.149
  23795740.297    -7076445.02749  -5495426.36345  23795740.222    23795749.386
 04  5 20 18 24 30.0000000  0  9G16G21G15G 6G29G26G22G18G 3
  23340686.802    -8706647.91649  -6762529.71845  23340686.638    23340694.373
  20370394.520   -12187419.78049  -9490496.72648  20370394.329    20370399.834
  21939279.640   -20008421.40649 -15569621.44746  21939279.273    21939287.398
  22334225.940     8361697.30049   6515911.69646  22334226.087    22334234.747
  23374827.131    -6083040.41349  -4733787.45945  23374827.213    23374835.076
  22109954.433   -14924188.99249 -11617015.23446  22109954.767    22109962.270
  21881654.561   -20502775.37249 -15603660.47747  21881654.706    21881660.415
  20406940.507   -22734221.19249 -17690902.39648  20406940.389    20406946.378
  23777845.867    -7170480.55449  -5568700.76445  23777845.800    23777854.977
 04  5 20 18 25  0.0000000  0  9G16G21G15G 6G29G26G22G18G 3
  23346323.037    -8677029.07649  -6739450.17045  23346323.006    23346330.663
  20370514.406   -12186789.78749  -9490005.84148  20370514.216    20370519.751
  21925932.503   -20078560.68849 -15624275.42246  21925932.153    21925940.283
  22351846.364     8454292.85749   6588063.95946  22351846.508    22351855.197
  23386396.394    -6022243.72249  -4686413.44645  23386396.475    23386404.278
  22117676.346   -14883609.98649 -11585395.25646  22117676.671    22117684.246
  21867948.995   -20574798.57549 -15659782.42947  21867949.124    21867954.853
  20403200.923   -22753872.87249 -17706215.39448  20403200.828    20403206.808
  23759995.313    -7264285.46349  -5641795.46745  23759995.278    23760004.485
 04  5 20 18 25 30.0000000  0  9G16G21G15G 6G29G26G22G18G 3
  23352052.121    -8646923.09149  -6715991.03645  23352052.000    23352059.629
  20370687.936   -12185878.01149  -9489295.38648  20370687.746    20370693.255
  21912611.655   -20148561.93849 -15678821.83046  21912611.325    21912619.444
  22369523.442     8547185.84449   6660448.00546  22369523.541    22369532.295
  23398053.456    -5960985.76449  -4638680.02645  23398053.514    23398061.262
  22125520.243   -14842390.34249 -11553276.07846  22125520.541    22125528.107
  21854307.821   -20646483.19749 -15715640.54547  21854307.948    21854313.681
  20399545.484   -22773082.45849 -17721183.90348  20399545.379    20399551.355
  23742189.243    -7357857.20649  -5714708.46245  23742189.125    23742198.360
 04  5 20 18 26  0.0000000  0  9G16G21G15G 6G29G26G22G18G 3
  23357873.612    -8616331.60349  -6692153.57945  23357873.531    23357881.174
  20370915.430   -12184682.74749  -9488364.03348  20370915.229    20370920.734
  21899317.348   -20218424.17149 -15733259.91946  21899317.008    21899325.110
  22387256.676     8640374.37549   6733062.33446  22387256.755    22387265.601
  23409798.021    -5899268.18249  -4590588.44945  23409798.134    23409805.764
  22133485.697   -14800531.42549 -11520658.76446  22133486.056    22133493.639
  21840731.365   -20717828.24649 -15771234.06747  21840731.466    21840737.158
  20395974.115   -22791850.07449 -17735808.02248  20395974.001    20395980.004
  23724428.056    -7451193.15849  -5787437.73945  23724427.901    23724437.163
 04  5 20 18 26 30.0000000  0  9G16G21G15G 6G29G26G22G18G 3
  23363787.127    -8585256.47249  -6667939.26845  23363787.086    23363794.689
  20371196.878   -12183203.83549  -9487211.65248  20371196.674    20371202.170
  21886049.683   -20288146.68249 -15787589.13146  21886049.303    21886057.363
  22405045.701     8733856.57249   6805905.50046  22405045.899    22405054.782
  23421629.577    -5837093.02749  -4542140.31345  23421629.683    23421637.416
  22141572.639   -14758034.61849 -11487544.40046  22141572.968    22141580.565
  21827219.617   -20788832.80249 -15826562.26447  21827219.720    21827225.403
  20392486.784   -22810175.96049 -17750087.93548  20392486.675    20392492.692
  23706712.097    -7544290.70849  -5859981.24945  23706711.995    23706721.238
 04  5 20 18 27  0.0000000  0  9G16G21G15G 6G29G26G22G18G 3
  23369792.254    -8553699.45449  -6643349.45045  23369792.140    23369799.907
  20371532.292   -12181441.37049  -9485838.32248  20371532.082    20371537.594
  21872808.673   -20357728.57749 -15841808.77046  21872808.280    21872816.343
  22422890.376     8827630.46649   6878975.95746  22422890.526    22422899.490
  23433547.735    -5774462.23849  -4493337.15145  23433547.863    23433555.756
  22149780.559   -14714901.58249 -11453934.26046  22149780.896    22149788.466
  21813772.840   -20859496.25149 -15881624.66447  21813772.899    21813778.582
  20389083.439   -22828060.70949 -17764024.10648  20389083.341    20389089.342
  23689042.039    -7637147.42749  -5932337.10945  23689041.988    23689051.043
 04  5 20 18 27 30.0000000  0  9G16G21G15G 6G29G26G22G18G 3
  23375888.731    -8521662.36849  -6618385.56645  23375888.679    23375896.329
  20371921.957   -12179393.83549  -9484242.86048  20371921.732    20371927.244
  21859594.598   -20427168.86249 -15895918.07046  21859594.208    21859602.305
  22440790.180     8921694.10149   6952272.17946  22440790.334    22440799.343
  23445552.399    -5711377.88149  -4444180.55345  23445552.491    23445560.394
  22158109.232   -14671133.66249 -11419829.41546  22158109.610    22158117.213
  21800391.133   -20929817.47449 -15936420.40047  21800391.213    21800396.908
  20385763.862   -22845505.19549 -17777617.21748  20385763.749    20385769.761
  23671418.377    -7729760.48149  -6004503.10545  23671418.378    23671427.268
 04  5 20 18 28  0.0000000  0  9G16G21G15G 6G29G26G22G18G 3
  23382076.185    -8489147.27449  -6593049.20945  23382076.125    23382083.826
  20372365.780   -12177061.47949  -9482425.45948  20372365.555    20372371.079
  21846407.490   -20496467.34549 -15949916.86346  21846407.097    21846415.246
  22458744.624     9016045.19649   7025792.39546  22458744.774    22458753.830
  23457642.824    -5647842.15149  -4394672.24445  23457642.892    23457650.929
  22166558.471   -14626733.08549 -11385231.58846  22166558.801    22166566.380
  21787074.553   -20999796.36049 -15990949.37347  21787074.652    21787080.351
  20382527.907   -22862510.17749 -17790867.85348  20382527.810    20382533.788
  23653841.293    -7822128.20049  -6076477.95145  23653841.307    23653850.267
 04  5 20 18 28 30.0000000  0  9G16G21G15G 6G29G26G22G18G 3
  23388354.369    -8456155.85949  -6567341.68945  23388354.220    23388361.959
  20372863.934   -12174443.75549  -9480385.69348  20372863.720    20372869.244
  21833247.643   -20565622.85249 -16003804.25246  21833247.248    21833255.419
  22476753.434     9110681.88249   7099535.16246  22476753.597    22476762.695
  23469818.688    -5583857.22449  -4344813.90145  23469818.753    23469826.988
  22175127.721   -14581701.30049 -11350141.91746  22175128.088    22175135.678
  21773823.338   -21069431.85349 -16045210.77047  21773823.446    21773829.120
  20379375.652   -22879075.66249 -17803776.02548  20379375.532    20379381.516
  23636311.415    -7914247.77549  -6148259.37945  23636311.442    23636320.383
 04  5 20 18 29  0.0000000  0  9G16G21G15G 6G29G26G22G18G 3
  23394722.815    -8422689.83949  -6541264.35545  23394722.620    23394730.459
  20373416.592   -12171539.76049  -9478122.86148  20373416.357    20373421.879
  21820115.163   -20634634.43349 -16057579.48847  21820114.799    21820122.965
  22494816.261     9205602.21849   7173498.94546  22494816.442    22494825.507
  23482079.683    -5519424.83449  -4294606.89945  23482079.845    23482088.073
  22183816.920   -14536039.50649 -11314561.31946  22183817.283    22183824.865
  21760637.640   -21138722.96449 -16099203.81747  21760637.764    21760643.430
  20376306.933   -22895201.70149 -17816341.77548  20376306.806    20376312.816
  23618829.328    -8006116.65849  -6219845.43045  23618829.324    23618838.407
 04  5 20 18 29 30.0000000  0  9G16G21G15G 6G29G26G22G18G 3
  23401181.019    -8388751.83149  -6514819.24145  23401180.870    23401188.741
  20374023.595   -12168349.90149  -9475637.27547  20374023.377    20374028.911
  21807010.088   -20703502.06149 -16111242.56447  21807009.721    21807017.887
  22512932.635     9300803.69049   7247681.79646  22512932.791    22512941.774
  23494425.483    -5454547.60749  -4244053.25245  23494425.618    23494433.752
  22192625.473   -14489750.28049 -11278491.82846  22192625.825    22192633.458
  21747517.505   -21207669.65349 -16152928.48247  21747517.647    21747523.321
  20373321.593   -22910889.77049 -17828566.24848  20373321.483    20373327.470
  23601395.190    -8097733.11749  -6291234.82945  23601395.155    23601404.358
 04  5 20 18 30  0.0000000  0  9G16G21G15G 6G29G26G22G18G 3
  23407728.824    -8354343.25049  -6488007.43945  23407728.767    23407736.520
  20374685.245   -12164872.82849  -9472927.88248  20374685.019    20374690.592
  21793932.667   -20772224.15949 -16164792.21847  21793932.295    21793940.457
  22531102.213     9396284.59849   7322082.39746  22531102.342    22531111.295
  23506855.602    -5389227.22749  -4193154.29945  23506855.712    23506863.871
  22201553.175   -14442834.86249 -11241934.38146  22201553.544    22201561.189
  21734463.129   -21276270.55449 -16206383.70347  21734463.264    21734468.967
  20370419.691   -22926139.67849 -17840449.29548  20370419.572    20370425.544
  23584009.829    -8189094.02749  -6362425.10545  23584009.700    23584018.922
 04  5 20 18 30 30.0000000  0  9G16G21G15G 6G29G26G22G18G 3
  23414365.825    -8319466.01249  -6460830.45945  23414365.662    23414373.511
  20375401.635   -12161108.27849  -9469994.48848  20375401.433    20375406.978
  21780883.084   -20840800.19549 -16218228.07447  21780882.708    21780890.860
  22549324.499     9492043.15049   7396699.33446  22549324.657    22549333.675
  23519369.716    -5323465.64149  -4141911.56245  23519369.818    23519377.945
  22210599.817   -14395294.66649 -11204890.10546  22210600.161    22210607.800
  21721474.702   -21344524.92549 -16259568.90847  21721474.856    21721480.589
  20367600.990   -22940951.93749 -17851991.31848  20367600.863    20367606.857
  23566673.480    -8280196.86549  -6433414.27645  23566673.331    23566682.561
 04  5 20 18 31  0.0000000  0  9G16G21G15G 6G29G26G22G18G 3
  23421091.437    -8284123.12249  -6433290.61345  23421091.276    23421099.164
  20376172.617   -12157056.86749  -9466837.55848  20376172.399    20376177.953
  21767861.226   -20909230.37949 -16271550.26847  21767860.873    21767868.998
  22567599.082     9588076.15949   7471530.13246  22567599.196    22567608.262
  23531967.141    -5257266.06249  -4090327.52545  23531967.148    23531975.389
  22219764.804   -14347132.67849 -11167361.31146  22219765.087    22219772.731
  21708552.228   -21412433.10049 -16312484.34047  21708552.362    21708558.085
  20364865.282   -22955328.00949 -17863193.45248  20364865.177    20364871.174
  23549386.471    -8371040.31949  -6504201.34345  23549386.350    23549395.565
 04  5 20 18 31 30.0000000  0  9G16G21G15G 6G29G26G22G18G 3
  23427905.537    -8248315.03949  -6405388.31345  23427905.289    23427913.278
  20376998.614   -12152716.27449  -9463455.29647  20376998.397    20377003.938
  21754867.591   -20977512.23949 -16324756.89647  21754867.249    21754875.409
  22585925.734     9684383.03149   7546574.33246  22585925.849    22585934.996
  23544647.677    -5190629.30149  -4038402.83245  23544647.759    23544655.897
  22229047.954   -14298349.22949 -11129348.26946  22229048.270    22229055.943
  21695696.031   -21479993.05349 -16365128.43947  21695696.142    21695701.826
  20362212.819   -22969267.13249 -17874055.11148  20362212.703    20362218.674
  23532149.649    -8461620.06449  -6574782.91645  23532149.542    23532158.750
 04  5 20 18 32  0.0000000  0  9G16G21G15G 6G29G26G22G18G 3
  23434807.738    -8212044.28249  -6377125.47045  23434807.430    23434815.376
  20377879.642   -12148086.56449  -9459847.75247  20377879.438    20377884.969
  21741902.251   -21045645.50649 -16377847.73547  21741901.914    21741910.063
  22604304.054     9780961.26649   7621829.97246  22604304.196    22604313.347
  23557411.036    -5123557.81049  -3986139.38645  23557411.094    23557419.143
  22238448.919   -14248946.67849 -11090852.80546  22238449.242    22238456.945
  21682906.100   -21547204.63449 -16417501.07947  21682906.206    21682911.852
  20359643.260   -22982770.34249 -17884577.09948  20359643.122    20359649.083
  23514963.344    -8551934.43549  -6645157.71045  23514963.229    23514972.458
 04  5 20 18 32 30.0000000  0  9G16G21G15G 6G29G26G22G18G 3
  23441797.427    -8175312.78949  -6348503.60245  23441797.221    23441805.185
  20378815.796   -12143167.15649  -9456014.46447  20378815.569    20378821.098
  21728965.398   -21113629.24549 -16430822.05547  21728965.021    21728973.176
  22622733.580     9877808.75149   7697295.42446  22622733.727    22622742.948
  23570256.727    -5056053.71149  -3933538.85845  23570256.790    23570264.843
  22247967.497   -14198926.65949 -11051876.20546  22247967.783    22247975.489
  21670182.584   -21614067.04749 -16469601.63447  21670182.695    21670188.361
  20357156.485   -22995838.28549 -17894759.91648  20357156.364    20357162.328
  23497828.039    -8641980.92349  -6715323.75945  23497827.922    23497837.137
 04  5 20 18 33  0.0000000  0  9G16G21G15G 6G29G26G22G18G 3
  23448874.402    -8138123.07549  -6319524.67745  23448874.331    23448882.221
  20379807.116   -12137957.84549  -9451955.28547  20379806.873    20379812.425
  21716057.005   -21181462.85749 -16483679.40247  21716056.657    21716064.815
  22641213.901     9974923.08049   7772968.79346  22641214.083    22641223.340
  23583184.332    -4988119.56249  -3880603.21845  23583184.351    23583192.312
  22257603.071   -14148291.49549 -11012420.27046  22257603.362    22257611.059
  21657525.568   -21680580.00049 -16521429.89147  21657525.657    21657531.343
  20354752.419   -23008471.89349 -17904604.28848  20354752.298    20354758.253
  23480744.090    -8731757.26049  -6785279.30045  23480744.010    23480753.194
 04  5 20 18 33 30.0000000  0  9G16G21G15G 6G29G26G22G18G 3
  23456038.390    -8100477.14849  -6290190.28345  23456038.233    23456046.154
  20380853.622   -12132458.47149  -9447670.08047  20380853.389    20380858.945
  21703177.357   -21249145.71849 -16536419.27947  21703177.023    21703185.181
  22659744.726    10072302.13949   7848848.46446  22659744.855    22659754.041
  23596193.145    -4919757.60449  -3827334.22045  23596193.235    23596201.207
  22267355.346   -14097043.21249 -10972486.57446  22267355.670    22267363.267
  21644935.176   -21746742.88049 -16572985.35847  21644935.273    21644940.949
  20352430.793   -23020672.06949 -17914110.92048  20352430.675    20352436.637
  23463711.987    -8821261.02549  -6855022.44945  23463711.960    23463721.075
 04  5 20 18 34  0.0000000  0  9G16G21G15G 6G29G26G22G18G 3
  23463288.683    -8062376.80349  -6260501.77945  23463288.593    23463296.473
  20381955.533   -12126668.14249  -9443158.16448  20381955.296    20381960.863
  21690326.586   -21316676.91749 -16589040.97547  21690326.240    21690334.397
  22678325.448    10169944.05749   7924932.93546  22678325.562    22678334.836
  23609283.053    -4850969.88249  -3773733.43845  23609283.253    23609291.258
  22277223.949   -14045183.55749 -10932076.49646  22277224.299    22277231.867
  21632411.600   -21812554.75949 -16624267.32247  21632411.683    21632417.332
  20350191.677   -23032438.69349 -17923279.72248  20350191.566    20350197.553
  23446732.243    -8910489.83049  -6924551.34645  23446732.295    23446741.427
 04  5 20 18 34 30.0000000  0  9G16G21G15G 6G29G26G22G18G 3
  23470624.914    -8023824.96349  -6230461.47245  23470624.815    23470632.748
  20383112.801   -12120586.74349  -9438419.43548  20383112.565    20383118.119
  21677504.763   -21384056.14249 -16641544.25247  21677504.386    21677512.525
  22696955.644    10267845.99849   8001220.03746  22696955.745    22696965.091
  23622453.539    -4781759.24449  -3719803.12345  23622453.636    23622461.781
  22287208.434   -13992714.96849 -10891191.91746  22287208.757    22287216.313
  21619954.736   -21878015.90249 -16675275.97847  21619954.817    21619960.488
  20348034.836   -23043773.17749 -17932111.79248  20348034.689    20348040.668
  23429805.298    -8999441.64349  -6993864.40445  23429805.344    23429814.392
 04  5 20 18 35  0.0000000  0  9G16G21G15G 6G29G26G22G18G 3
  23478046.841    -7984822.70849  -6200070.19145  23478046.786    23478054.819
  20384325.706   -12114213.12049  -9433452.99747  20384325.445    20384331.023
  21664712.242   -21451281.43449 -16693927.57547  21664711.852    21664719.994
  22715635.115    10366007.00549   8077709.00746  22715635.232    22715644.646
  23635704.223    -4712126.87949  -3665544.18045  23635704.322    23635712.566
  22297308.591   -13939638.30049 -10849833.51446  22297308.895    22297316.493
  21607565.002   -21943124.41649 -16726009.85947  21607565.094    21607570.722
  20345960.200   -23054675.42049 -17940607.04748  20345960.075    20345966.037
  23412931.693    -9088112.91149  -7062958.84745  23412931.705    23412940.695
 04  5 20 18 35 30.0000000  0  9G16G21G15G 6G29G26G22G18G 3
  23485554.096    -7945372.40449  -6169329.79545  23485554.019    23485562.032
  20385594.198   -12107547.23549  -9428258.83047  20385593.947    20385599.526
  21651949.064   -21518352.30849 -16746190.58047  21651948.678    21651956.801
  22734363.472    10464424.36749   8154397.72446  22734363.548    22734372.988
  23649034.730    -4642075.32849  -3610958.58945  23649034.733    23649043.004
  22307523.964   -13885956.14549 -10808003.30046  22307524.292    22307531.930
  21595242.400   -22007880.25049 -16776468.93447  21595242.485    21595248.067
  20343967.636   -23065146.41649 -17948766.27248  20343967.514    20343973.478
  23396111.874    -9176501.67749  -7131833.17145  23396111.889    23396120.794
 04  5 20 18 36  0.0000000  0  9G16G21G15G 6G29G26G22G18G 3
  23493146.188    -7905475.90849  -6138241.71845  23493146.023    23493154.221
  20386918.527   -12100587.88249  -9422835.98048  20386918.300    20386923.879
  21639215.529   -21585267.47149 -16798332.24247  21639215.143    21639223.282
  22753140.239    10563096.29249   8231284.82246  22753140.368    22753149.759
  23662444.498    -4571606.79849  -3556048.11145  23662444.540    23662452.743
  22317854.280   -13831670.15849 -10765702.56846  22317854.641    22317862.276
  21582986.987   -22072282.53949 -16826652.51347  21582987.089    21582992.678
  20342057.151   -23075186.23649 -17956589.51448  20342056.997    20342062.983
  23379346.357    -9264605.47649  -7200485.44745  23379346.325    23379355.142
 04  5 20 18 36 30.0000000  0  9G16G21G15G 6G29G26G22G18G 3
  23500822.816    -7865135.67349  -6106807.85745  23500822.629    23500830.921
  20388298.716   -12093335.06049  -9417184.45947  20388298.495    20388304.088
  21626511.805   -21652026.09649 -16850351.93547  21626511.378    21626519.544
  22771964.947    10662020.50349   8308368.46546  22771965.057    22771974.544
  23675933.159    -4500723.39749  -3500814.34445  23675933.203    23675941.466
  22328299.051   -13776782.61249 -10722933.09746  22328299.400    22328307.012
  21570799.012   -22136330.77749 -16876560.21847  21570799.126    21570804.732
  20340228.387   -23084796.34749 -17964077.91748  20340228.243    20340234.250
  23362635.511    -9352421.79349  -7268913.71045  23362635.395    23362644.160
 04  5 20 18 37  0.0000000  0  9G16G21G15G 6G29G26G22G18G 3
  23508583.421    -7824354.01849  -6075030.04345  23508583.256    23508591.447
  20389734.905   -12085787.97849  -9411303.64247  20389734.670    20389740.257
  21613837.892   -21718627.67449 -16902249.24547  21613837.501    21613845.659
  22790837.395    10761194.90849   8385647.09146  22790837.471    22790846.956
  23689500.286    -4429427.54949  -3445259.20545  23689500.390    23689508.644
  22338857.955   -13721295.57449 -10679696.48146  22338858.300    22338865.910
  21558678.447   -22200024.66549 -16926191.79847  21558678.557    21558684.158
  20338481.351   -23093977.05549 -17971231.72148  20338481.202    20338487.210
  23345979.672    -9439948.18049  -7337116.05445  23345979.595    23345988.372
 04  5 20 18 37 30.0000000  0  9G16G21G15G 6G29G26G22G18G 3
  23516427.661    -7783133.01649  -6042909.87745  23516427.366    23516435.597
  20391227.064   -12077946.56849  -9405193.48347  20391226.837    20391232.433
  21601194.115   -21785071.29249 -16954023.48347  21601193.715    21601201.865
  22809757.005    10860617.27849   8463118.92046  22809757.063    22809766.564
  23703145.562    -4357721.57149  -3389384.50045  23703145.624    23703153.841
  22349530.486   -13665211.13449 -10635994.35946  22349530.822    22349538.439
  21546625.480   -22263363.43649 -16975546.66847  21546625.572    21546631.154
  20336815.979   -23102728.74149 -17978051.22748  20336815.845    20336821.841
  23329379.451    -9527182.03449  -7405090.43845  23329379.477    23329388.215
 04  5 20 18 38  0.0000000  0  9G16G21G15G 6G29G26G22G18G 3
  23524354.910    -7741474.59049  -6010448.88145  23524354.788    23524362.954
  20392775.439   -12069809.87649  -9398853.22947  20392775.205    20392780.814
  21588580.560   -21851355.90049 -17005673.80647  21588580.177    21588588.350
  22828723.393    10960285.58549   8540782.38746  22828723.474    22828732.909
  23716868.485    -4285607.47649  -3333191.74945  23716868.544    23716876.767
  22360316.330   -13608531.34649 -10591828.32146  22360316.685    22360324.319
  21534640.185   -22326346.53249 -17024624.38747  21534640.269    21534645.833
  20335232.031   -23111052.33949 -17984537.15348  20335231.912    20335237.909
  23312835.541    -9614120.82549  -7472834.91645  23312835.500    23312844.309
 04  5 20 18 38 30.0000000  0  9G16G21G15G 6G29G26G22G18G 3
  23532365.098    -7699381.30149  -5977649.00145  23532364.873    23532373.091
  20394380.075   -12061377.51649  -9392282.58747  20394379.845    20394385.456
  21575997.368   -21917480.67049 -17057199.58447  21575996.958    21576005.168
  22847736.193    11060197.76649   8618635.88746  22847736.211    22847745.705
  23730668.645    -4213087.57349  -3276682.75345  23730668.650    23730676.884
  22371215.124   -13551258.31749 -10547200.01846  22371215.440    22371223.099
  21522722.697   -22388973.30849 -17073424.45747  21522722.809    21522728.317
  20333729.462   -23118948.58449 -17990690.08048  20333729.332    20333735.329
  23296348.133    -9700762.28749  -7540347.69845  23296348.164    23296356.897
 04  5 20 18 39  0.0000000  0  9G16G21G15G 6G29G26G22G18G 3
  23540457.460    -7656856.07349  -5944512.54545  23540457.201    23540465.386
  20396040.948   -12052649.78949  -9385481.78247  20396040.705    20396046.313
  21563444.635   -21983445.52249 -17108600.75247  21563444.248    21563452.458
  22866794.710    11160350.70049   8696676.99646  22866794.737    22866804.231
  23744545.380    -4140165.24449  -3219860.22545  23744545.343    23744553.509
  22382226.319   -13493394.82049 -10502111.61646  22382226.587    22382234.253
  21510872.927   -22451244.21349 -17121947.21847  21510873.033    21510878.535
  20332307.991   -23126418.56049 -17996510.84648  20332307.866    20332313.858
  23279917.702    -9787104.72549  -7607627.47545  23279917.708    23279926.472
 04  5 20 18 39 30.0000000  0  9G16G21G15G 6G29G26G22G18G 3
  23548631.868    -7613899.46849  -5911039.96045  23548631.601    23548639.873
  20397758.390   -12043624.70349  -9378449.27847  20397758.166    20397763.768
  21550922.845   -22049247.86249 -17159875.29147  21550922.477    21550930.639
  22885898.862    11260743.80949   8774905.25546  22885898.992    22885908.544
  23758498.492    -4066840.95949  -3162724.47145  23758498.533    23758506.619
  22393349.736   -13434941.57149 -10456563.66546  22393349.966    22393357.570
  21499091.282   -22513156.99349 -17170190.93047  21499091.379    21499096.929
  20330967.646   -23133462.07449 -18001999.30848  20330967.504    20330973.507
  23263544.948    -9873144.04949  -7674671.07345  23263544.943    23263553.757
 04  5 20 18 40  0.0000000  0  9G16G21G15G 6G29G26G22G18G 3
  23556887.684    -7570514.65349  -5877233.70945  23556887.506    23556895.807
  20399532.350   -12034302.55849  -9371185.29947  20399532.128    20399537.732
  21538432.047   -22114887.72049 -17211023.22047  21538431.644    21538439.754
  22905048.278    11361374.14249   8853318.35646  22905048.445    22905057.980
  23772527.630    -3993118.06549  -3105278.11645  23772527.692    23772535.662
  22404584.626   -13375901.67449 -10410558.58846  22404584.859    22404592.499
  21487377.766   -22574712.17249 -17218155.99347  21487377.838    21487383.373
  20329708.137   -23140080.66349 -18007156.66148  20329708.016    20329714.031
  23247230.111    -9958878.50549  -7741477.10645  23247230.198    23247239.005
 04  5 20 18 40 30.0000000  0  9G16G21G15G 6G29G26G22G18G 3
  23565224.640    -7526704.05749  -5843095.66945  23565224.544    23565232.764
  20401362.919   -12024683.04549  -9363689.60047  20401362.680    20401368.299
  21525972.349   -22180364.09949 -17262043.76247  21525971.930    21525979.996
  22924242.400    11462239.55649   8931914.63646  22924242.557    22924252.199
  23786631.968    -3918998.71549  -3047522.84845  23786632.087    23786640.113
  22415930.765   -13316277.30949 -10364098.07246  22415931.013    22415938.599
  21475732.347   -22635909.29349 -17265842.04547  21475732.410    21475737.888
  20328529.437   -23146274.86149 -18011983.31548  20328529.312    20328535.299
  23230973.830   -10044305.85849  -7808043.84845  23230973.951    23230982.712
 04  5 20 18 41  0.0000000  0  9G16G21G15G 6G29G26G22G18G 3
  23573642.311    -7482470.13549  -5808627.77245  23573642.156    23573650.433
  20403250.175   -12014765.62149  -9355961.76647  20403249.924    20403255.564
  21513543.827   -22245676.31349 -17312936.38347  21513543.424    21513551.459
  22943480.901    11563337.58049   9010692.17346  22943481.068    22943490.674
  23800811.398    -3844485.63449  -2989460.76645  23800811.531    23800819.580
  22427387.761   -13256070.92549 -10317184.05046  22427387.992    22427395.524
  21464155.161   -22696747.99249 -17313248.80947  21464155.204    21464160.664
  20327431.276   -23152045.85249 -18016480.20148  20327431.152    20327437.141
  23214776.409   -10129423.71549  -7874369.40945  23214776.485    23214785.284
 04  5 20 18 41 30.0000000  0  9G16G21G15G 6G29G26G22G18G 3
  23582139.999    -7437815.18249  -5773831.79145  23582139.815    23582148.178
  20405194.229   -12004549.66449  -9348001.30847  20405193.968    20405199.616
  21501146.765   -22310823.37049 -17363700.30547  21501146.356    21501154.369
  22962763.237    11664665.95149   9089649.20346  22962763.320    22962773.009
  23815065.406    -3769580.97649  -2931093.56245  23815065.503    23815073.521
  22438954.919   -13195284.78749 -10269818.26046  22438955.184    22438962.733
  21452646.213   -22757227.84549 -17360375.94947  21452646.262    21452651.708
  20326413.516   -23157394.35049 -18020647.86948  20326413.387    20326419.377
  23198638.484   -10214229.52949  -7940451.82545  23198638.427    23198647.181
 04  5 20 18 42  0.0000000  0  9G16G21G15G 6G29G26G22G18G 3
  23590717.368    -7392741.35649  -5738709.43245  23590717.216    23590725.667
  20407195.216   -11994034.54549  -9339807.73547  20407194.963    20407200.617
  21488781.338   -22375804.18649 -17414334.69247  21488780.907    21488788.921
  22982089.057    11766222.74149   9168784.22646  22982089.071    22982098.666
  23829393.572    -3694286.89749  -2872422.92645  23829393.534    23829401.671
  22450632.110   -13133920.96849 -10222002.33946  22450632.381    22450639.977
  21441205.648   -22817348.17949 -17407222.94247  21441205.722    21441211.152
  20325476.055   -23162320.69349 -18024486.58748  20325475.926    20325481.935
  23182560.340   -10298720.96549  -8006289.27545  23182560.258    23182568.842
 04  5 20 18 42 30.0000000  0  9G16G21G15G 6G29G26G22G18G 3
  23599373.922    -7347250.84449  -5703262.38345  23599373.794    23599382.333
  20409253.251   -11983219.78249  -9331380.67347  20409252.988    20409258.636
  21476447.743   -22440617.68249 -17464838.69947  21476447.335    21476455.322
  23001457.815    11868006.00749   9248095.69846  23001457.892    23001467.611
  23843795.248    -3618605.73749  -2813450.64945  23843795.274    23843803.385
  22462418.749   -13071981.66849 -10173737.98146  22462419.001    22462426.645
  21429833.629   -22877108.41349 -17453789.34547  21429833.705    21429839.148
  20324618.773   -23166825.87849 -18027997.13148  20324618.629    20324624.641
  23166542.505   -10382895.32849  -8071879.66346  23166542.416    23166550.911
 04  5 20 18 43  0.0000000  0  9G16G21G15G 6G29G26G22G18G 3
  23608109.312    -7301346.30949  -5667492.70745  23608109.216    23608117.733
  20411368.293   -11972105.21549  -9322719.99447  20411368.034    20411373.688
  21464146.170   -22505263.12149 -17515211.75347  21464145.711    21464153.674
  23020869.199    11970013.02349   9327581.54846  23020869.274    23020878.991
  23858270.129    -3542540.07349  -2754178.73745  23858270.113    23858278.168
  22474314.497   -13009469.41349 -10125027.17346  22474314.725    22474322.385
  21418530.194   -22936508.43349 -17500075.05147  21418530.250    21418535.698
  20323841.400   -23170910.97049 -18031180.32648  20323841.267    20323847.267
  23150585.441   -10466750.52349  -8137221.34146  23150585.323    23150593.742
 04  5 20 18 43 30.0000000  0  9G16G21G15G 6G29G26G22G18G 3
  23616923.069    -7255029.61949  -5631401.88945  23616922.984    23616931.501
  20413540.578   -11960689.79549  -9313824.89147  20413540.340    20413545.988
  21451876.763   -22569739.08449 -17565452.75147  21451876.315    21451884.294
  23040322.896    12072242.42649   9407240.64746  23040322.966    23040332.787
  23872817.818    -3466091.97049  -2694608.82945  23872817.772    23872825.796
  22486318.845   -12946385.99949 -10075871.30546  22486319.105    22486326.835
  21407295.442   -22995547.22849 -17546079.29447  21407295.488    21407300.966
  20323143.949   -23174576.38149 -18034036.50348  20323143.800    20323149.796
  23134689.709   -10550283.33849  -8202311.81646  23134689.607    23134697.956
 04  5 20 18 44  0.0000000  0  9G16G21G15G 6G29G26G22G18G 3
  23625814.929    -7208303.35949  -5594991.90445  23625814.789    23625823.312
  20415770.188   -11948973.41349  -9304695.26847  20415769.937    20415775.587
  21439639.725   -22634044.89449 -17615561.16647  21439639.297    21439647.322
  23059818.406    12174691.46749   9487070.92546  23059818.400    23059828.298
  23887437.641    -3389263.87349  -2634742.82445  23887437.681    23887445.714
  22498431.367   -12882734.15649 -10026272.50446  22498431.639    22498439.390
  21396129.424   -23054224.80649 -17591802.06647  21396129.498    21396134.992
  20322526.212   -23177822.66349 -18036566.08248  20322526.058    20322532.041
  23118855.748   -10633491.71749  -8267149.50446  23118855.609    23118863.902
 04  5 20 18 44 30.0000000  0  9G16G21G15G 6G29G26G22G18G 3
  23634784.208    -7161169.88249  -5558264.60645  23634784.059    23634792.606
  20418057.218   -11936955.06549  -9295330.34247  20418056.963    20418062.624
  21427435.291   -22698179.42649 -17665536.11047  21427434.876    21427442.944
  23079355.275    12277357.98149   9567070.63646  23079355.295    23079365.346
  23902129.377    -3312058.23949  -2574582.64045  23902129.450    23902137.398
  22510651.664   -12818516.13049  -9976232.53946  22510651.999    22510659.705
  21385032.254   -23112540.59349 -17637242.91547  21385032.340    21385037.838
  20321987.983   -23180651.12049 -18038770.08448  20321987.831    20321993.794
  23103083.862   -10716373.08049  -8331732.34946  23103083.768    23103092.033
 04  5 20 18 45  0.0000000  0  9G16G21G15G 6G29G26G22G18G 3
  23643830.487    -7113631.78149  -5521222.03445  23643830.347    23643838.869
  20420401.716   -11924634.70449  -9285730.08547  20420401.460    20420407.108
  21415263.692   -22762141.71049 -17715376.83947  21415263.242    21415271.345
  23098933.103    12380239.54749   9647237.94146  23098933.161    23098943.150
  23916892.506    -3234477.62849  -2514130.27345  23916892.550    23916900.473
  22522979.225   -12753734.56249  -9925753.43246  22522979.585    22522987.233
  21374004.030   -23170494.49149 -17682401.78047  21374004.105    21374009.602
  20321529.105   -23183062.65149 -18040649.20848  20321528.958    20321534.922
  23087374.593   -10798925.42049  -8396058.81546  23087374.533    23087382.871
 04  5 20 18 45 30.0000000  0  9G16G21G15G 6G29G26G22G18G 3
  23652953.286    -7065691.88049  -5483866.36445  23652953.091    23652961.680
  20422803.735   -11912012.13849  -9275894.34147  20422803.477    20422809.117
  21403124.934   -22825931.12449 -17765082.85847  21403124.495    21403132.606
  23118551.459    12483333.94449   9727571.05946  23118551.519    23118561.552
  23931726.427    -3156524.50649  -2453387.64545  23931726.511    23931734.378
  22535413.577   -12688391.86749  -9874837.10346  22535413.888    22535421.565
  21363044.708   -23228086.14049 -17727278.37247  21363044.782    21363050.262
  20321149.346   -23185058.13749 -18042204.13848  20321149.211    20321155.200
  23071728.516   -10881146.36849  -8460127.05646  23071728.385    23071736.730
 04  5 20 18 46  0.0000000  0  9G16G21G15G 6G29G26G22G18G 3
  23662152.075    -7017352.24349  -5446199.22045  23662151.923    23662160.488
  20425263.490   -11899086.13049  -9265822.15347  20425263.235    20425268.875
  21391019.270   -22889546.45349 -17814653.23547  21391018.856    21391026.972
  23138209.940    12586639.08249   9808068.40146  23138209.910    23138219.987
  23946630.890    -3078201.10249  -2392356.47845  23946631.062    23946638.922
  22547954.211   -12622490.35849  -9823485.33046  22547954.546    22547962.236
  21352154.471   -23285314.85649 -17771872.15547  21352154.541    21352159.995
  20320848.651   -23186638.34349 -18043435.47448  20320848.519    20320854.514
  23056145.869   -10963033.34249  -8523935.06446  23056145.802    23056154.178
 04  5 20 18 46 30.0000000  0  9G16G21G15G 6G29G26G22G18G 3
  23671426.490    -6968615.25049  -5408222.44045  23671426.293    23671434.977
  20427781.031   -11885856.56449  -9255513.42447  20427780.792    20427786.421
  21378946.979   -22952986.56949 -17864087.07947  21378946.563    21378954.726
  23157908.133    12690152.80749   9888728.28646  23157908.104    23157918.241
  23961605.424    -2999509.63249  -2331038.50045  23961605.645    23961613.540
  22560600.737   -12556032.53949  -9771700.06046  22560601.041    22560608.810
  21341333.221   -23342180.53349 -17816183.05147  21341333.313    21341338.783
  20320626.761   -23187804.38449 -18044344.08148  20320626.623    20320632.652
  23040627.321   -11044583.80649  -8587480.85246  23040627.216    23040635.679
 04  5 20 18 47  0.0000000  0  9G16G21G15G 6G29G26G22G18G 3
  23680775.994    -6919483.34649  -5369937.94545  23680775.840    23680784.491
  20430356.344   -11872323.31049  -9244968.05647  20430356.089    20430361.745
  21366908.198   -23016250.55849 -17913383.68447  21366907.798    21366915.987
  23177645.516    12793872.84349   9969548.91946  23177645.420    23177655.664
  23976649.541    -2920452.90649  -2269435.92145  23976649.710    23976657.705
  22573352.699   -12489020.74249  -9719483.12246  22573352.993    22573360.797
  21330581.126   -23398682.82249 -17860210.79247  21330581.246    21330586.721
  20320483.587   -23188556.83349 -18044930.41248  20320483.452    20320489.497
  23025173.176   -11125795.29549  -8650762.49646  23025173.104    23025181.604
 04  5 20 18 47 30.0000000  0  9G16G21G15G 6G29G26G22G18G 3
  23690200.142    -6869959.25849  -5331347.84345  23690200.086    23690208.676
  20432989.571   -11858485.60949  -9234185.45447  20432989.326    20432995.026
  21354903.148   -23079337.53649 -17962542.35647  21354902.768    21354910.931
  23197421.638    12897796.87649  10050528.52946  23197421.679    23197431.893
  23991762.617    -2841033.07849  -2207550.39645  23991762.808    23991770.771
  22586209.536   -12421457.58249  -9666836.54846  22586209.842    22586217.722
  21319898.412   -23454821.15749 -17903954.92847  21319898.492    21319903.928
  20320418.814   -23188896.97249 -18045195.46348  20320418.697    20320424.748
  23009784.099   -11206665.32049  -8713778.08746  23009784.008    23009792.547
 04  5 20 18 48  0.0000000  0  9G16G21G15G 6G29G26G22G18G 3
  23699698.584    -6820045.15949  -5292453.84645  23699698.510    23699707.145
  20435680.900   -11844342.60149  -9223164.95147  20435680.663    20435686.382
  21342931.993   -23142246.46149 -18011562.29247  21342931.626    21342939.751
  23217236.154    13001922.74049  10131665.40446  23217236.281    23217246.480
  24006944.452    -2761252.66149  -2145383.88345  24006944.548    24006952.402
  22599170.920   -12353345.52649  -9613762.27046  22599171.189    22599179.061
  21309284.851   -23510595.49049 -17947415.42847  21309284.959    21309290.379
  20320432.400   -23188825.48949 -18045139.77048  20320432.307    20320438.363
  22994460.412   -11287191.71349  -8776525.90046  22994460.346    22994468.871
 04  5 20 18 48 30.0000000  0  9G16G21G15G 6G29G26G22G18G 3
  23709270.701    -6769743.81649  -5253258.08945  23709270.624    23709279.247
  20438430.385   -11829894.04349  -9211906.35747  20438430.169    20438435.888
  21330994.907   -23204976.28749 -18060442.66747  21330994.550    21331002.622
  23237088.697    13106248.12349  10212957.74646  23237088.888    23237099.089
  24022194.290    -2681113.90349  -2082938.16345  24022194.490    24022202.182
  22612236.260   -12284686.92549  -9560262.10646  22612236.505    22612244.411
  21298740.652   -23566005.35949 -17990591.92847  21298740.789    21298746.243
  20320524.190   -23188343.09949 -18044763.89248  20320524.094    20320530.162
  22979202.588   -11367371.80549  -8839003.86246  22979202.539    22979211.063
 04  5 20 18 49  0.0000000  0  9G16G21G15G 6G29G26G22G18G 3
  23718915.959    -6719058.06649  -5213762.81545  23718915.916    23718924.505
  20441238.021   -11815139.84749  -9200409.60447  20441237.815    20441243.550
  21319092.054   -23267526.28549 -18109182.91847  21319091.660    21319099.705
  23256978.860    13210770.56849  10294403.62646  23256978.959    23256989.220
  24037511.909    -2600619.84449  -2020215.57245  24037512.157    24037519.877
  22625404.954   -12215484.76649  -9506338.40146  22625405.278    22625413.165
  21288265.835   -23621050.79349 -18033484.45547  21288265.980    21288271.405
  20320693.934   -23187451.15649 -18044068.88148  20320693.836    20320699.909
  22964011.059   -11447203.63949  -8901210.46246  22964011.056    22964019.630
 04  5 20 18 49 30.0000000  0  9G16G21G15G 6G29G26G22G18G 3
  23728633.897    -6667990.69849  -5173970.17245  23728633.839    23728642.494
  20444103.823   -11800079.94649  -9188674.63447  20444103.612    20444109.348
  21307223.483   -23329895.95449 -18157782.64447  21307223.107    21307231.145
  23276905.911    13315487.09849  10376000.75245  23276905.974    23276916.261
  24052896.488    -2519773.42849  -1957218.43745  24052896.806    24052904.537
  22638676.552   -12145742.03149  -9451993.45546  22638676.890    22638684.821
  21277860.329   -23675732.01449 -18076093.16747  21277860.464    21277865.885
  20320941.332   -23186150.98949 -18043055.76948  20320941.265    20320947.315
  22948886.154   -11526685.19449  -8963144.11746  22948886.187    22948894.758
 04  5 20 18 50  0.0000000  0  9G16G21G15G 6G29G26G22G18G 3
  23738424.046    -6616542.91649  -5133881.09445  23738423.952    23738432.760
  20447028.219   -11784712.17549  -9176699.77147  20447028.017    20447033.792
  21295389.721   -23392082.55049 -18206239.72347  21295389.379    21295397.400
  23296869.649    13420397.15249  10457748.67245  23296869.822    23296880.221
  24068348.005    -2438575.43749  -1893947.33245  24068348.189    24068355.843
  22652050.813   -12075459.78949  -9397228.13446  22652051.161    22652059.151
  21267524.470   -23730047.06349 -18118416.55947  21267524.619    21267530.066
  20321266.501   -23184442.23149 -18041724.28048  20321266.420    20321272.483
  22933828.713   -11605812.36949  -9024801.62146  22933828.781    22933837.342
 04  5 20 18 50 30.0000000  0  9G16G21G15G 6G29G26G22G18G 3
  23748286.192    -6564717.47949  -5093497.74345  23748286.074    23748294.972
  20450011.191   -11769036.53149  -9164485.00047  20450010.992    20450016.790
  21283590.973   -23454085.33449 -18254553.56847  21283590.647    21283598.646
  23316869.850    13525498.29749  10539645.49245  23316869.997    23316880.405
  24083865.939    -2357028.65849  -1830404.45845  24083866.176    24083873.692
  22665527.286   -12004640.84249  -9342044.58246  22665527.622    22665535.570
  21257258.273   -23783996.16849 -18160454.79747  21257258.446    21257263.901
  20321669.170   -23182326.17249 -18040075.40948  20321669.071    20321675.168
  22918839.182   -11684582.97149  -9086181.29046  22918839.228    22918847.816
 04  5 20 18 51  0.0000000  0  9G16G21G15G 6G29G26G22G18G 3
  23758219.493    -6512517.81649  -5052822.79145  23758219.357    23758228.297
  20453052.686   -11753053.38949  -9152030.62447  20453052.506    20453058.310
  21271827.272   -23515904.09949 -18302724.02047  21271826.931    21271834.915
  23336905.682    13630787.26049  10621688.64845  23336905.866    23336916.377
  24099449.612    -2275136.48249  -1766592.43845  24099449.789    24099457.535
  22679105.201   -11933288.67749  -9286445.54946  22679105.532    22679113.446
  21247061.642   -23837579.83849 -18202208.28247  21247061.775    21247067.227
  20322149.054   -23179804.39749 -18038110.39948  20322148.959    20322155.070
  22903917.687   -11762995.91849  -9147282.24846  22903917.728    22903926.332
 04  5 20 18 51 30.0000000  0  9G16G21G15G 6G29G26G22G18G 3
  23768223.565    -6459945.92049  -5011857.78845  23768223.520    23768232.492
  20456152.903   -11736761.76149  -9139335.86547  20456152.720    20456158.528
  21260098.849   -23577537.23249 -18350749.82747  21260098.510    21260106.518
  23356977.040    13736262.28849  10703876.82345  23356977.251    23356987.721
  24115098.646    -2192900.96349  -1702512.84745  24115098.755    24115106.543
  22692784.121   -11861405.42049  -9230432.66946  22692784.472    22692792.434
  21236934.680   -23890797.36449 -18243676.45847  21236934.816    21236940.282
  20322706.051   -23176877.42249 -18035829.64648  20322705.953    20322712.077
  22889064.820   -11841048.25249  -9208102.21346  22889064.850    22889073.460
 04  5 20 18 52  0.0000000  0  9G16G21G15G 6G29G26G22G18G 3
  23778298.195    -6407004.37149  -4970604.76445  23778298.076    23778306.948
  20459311.956   -11720160.89649  -9126400.14647  20459311.753    20459317.579
  21248405.961   -23638983.60349 -18398630.10647  21248405.615    21248413.654
  23377083.380    13841921.26049  10786208.29945  23377083.541    23377094.231
  24130812.429    -2110324.15049  -1638167.34345  24130812.546    24130820.494
  22706563.680   -11788993.58849  -9174007.90946  22706564.023    22706572.052
  21226877.457   -23943648.32249 -18284859.00347  21226877.598    21226883.075
  20323339.952   -23173546.31649 -18033233.98848  20323339.845    20323345.961
  22874281.034   -11918737.23549  -9268639.05846  22874281.105    22874289.741
 04  5 20 18 52 30.0000000  0  9G16G21G15G 6G29G26G22G18G 3
  23788442.463    -6353696.59549  -4929066.35845  23788442.334    23788451.118
  20462529.771   -11703251.12949  -9113223.72147  20462529.576    20462535.437
  21236748.674   -23700242.90949 -18446364.61747  21236748.345    21236756.372
  23397224.242    13947761.16649  10868680.78045  23397224.388    23397235.101
  24146590.539    -2027409.57849  -1573558.65045  24146590.593    24146598.613
  22720443.247   -11716056.39449  -9117173.77446  22720443.554    22720451.557
  21216889.881   -23996133.18649 -18325756.27747  21216890.033    21216895.498
  20324050.446   -23169812.74449 -18030324.72248  20324050.363    20324056.455
  22859566.779   -11996061.33349  -9328891.56946  22859566.771    22859575.407
 04  5 20 18 53  0.0000000  0  9G16G21G15G 6G29G26G22G18G 3
  23798656.071    -6300024.41149  -4887243.98445  23798655.874    23798664.683
  20465806.551   -11686031.41349  -9099805.77947  20465806.377    20465812.256
  21225127.329   -23761313.51649 -18493952.09047  21225126.980    21225135.020
  23417399.101    14053780.19349  10951292.82945  23417399.281    23417409.874
  24162432.805    -1944158.96749  -1508688.09645  24162432.816    24162440.852
  22734422.199   -11642596.16949  -9059932.08046  22734422.547    22734430.587
  21206972.137   -24048251.14249 -18366367.65047  21206972.279    21206977.737
  20324837.452   -23165676.96449 -18027102.04848  20324837.378    20324843.455
  22844922.555   -12073017.55249  -9388857.42646  22844922.479    22844931.086
 04  5 20 18 53 30.0000000  0  9G16G21G15G 6G29G26G22G18G 3
  23808938.432    -6245991.06849  -4845140.18045  23808938.195    23808947.153
  20469142.329   -11668501.66549  -9086146.25047  20469142.168    20469148.065
  21213541.949   -23822194.87849 -18541392.10047  21213541.631    21213549.686
  23437607.765    14159975.79549  11034042.44745  23437607.911    23437618.541
  24178338.286    -1860575.39949  -1443558.10145  24178338.225    24178346.412
  22748500.152   -11568615.85949  -9002285.13546  22748500.521    22748508.608
  21197124.115   -24100002.62149 -18406693.45747  21197124.276    21197129.723
  20325700.664   -23161140.76249 -18023567.35248  20325700.600    20325706.678
  22830348.493   -12149604.26649  -9448535.36446  22830348.458    22830357.028
 04  5 20 18 54  0.0000000  0  9G16G21G15G 6G29G26G22G18G 3
  23819288.884    -6191598.85049  -4802756.72945  23819288.719    23819297.771
  20472537.330   -11650661.19149  -9072244.59847  20472537.157    20472543.045
  21201992.857   -23882885.54649 -18588683.51647  21201992.536    21202000.612
  23457849.518    14266345.78349  11116927.96845  23457849.598    23457860.278
  24194306.575    -1776660.95649  -1378170.28645  24194306.550    24194314.926
  22762676.689   -11494118.02749  -8944234.93246  22762677.027    22762685.106
  21187345.971   -24151387.29549 -18446733.43847  21187346.125    21187351.538
  20326639.997   -23156204.46949 -18019720.89748  20326639.930    20326646.029
  22815845.370   -12225818.60149  -9507923.12246  22815845.369    22815853.841
 04  5 20 18 54 30.0000000  0  9G16G21G15G 6G29G26G22G18G 3
  23829707.228    -6136850.06649  -4760095.46645  23829707.156    23829716.350
  20475991.495   -11632509.38349  -9058100.35147  20475991.316    20475997.216
  21190480.419   -23943383.83549 -18635825.03247  21190480.106    21190488.131
  23478124.045    14372888.48749  11199948.05345  23478124.162    23478134.815
  24210337.555    -1692417.78949  -1312526.33145  24210337.432    24210346.065
  22776951.226   -11419104.65649  -8885783.01546  22776951.624    22776959.693
  21177637.805   -24202404.09949 -18486486.77347  21177637.936    21177643.342
  20327655.419   -23150868.50049 -18015563.00948  20327655.347    20327661.447
  22801413.719   -12301657.31149  -9567018.19246  22801413.740    22801422.190
 04  5 20 18 55  0.0000000  0  9G16G21G15G 6G29G26G22G18G 3
  23840193.027    -6081747.44049  -4717158.46045  23840192.898    23840202.220
  20479505.020   -11614045.70149  -9043713.08247  20479504.864    20479510.788
  21179004.682   -24003689.07149 -18682816.10947  21179004.371    21179012.410
  23498430.900    14479601.13349  11283100.58345  23498431.015    23498441.833
  24226430.411    -1607848.72749  -1246628.42045  24226430.431    24226439.049
  22791323.433   -11343579.10949  -8826931.98546  22791323.785    22791331.818
  21167999.531   -24253053.37749 -18525953.72147  21167999.689    21168005.064
  20328746.541   -23145134.72249 -18011095.13748  20328746.462    20328752.566
  22787053.809   -12377118.74949  -9625819.29546  22787053.871    22787062.327
 04  5 20 18 55 30.0000000  0  9G16G21G15G 6G29G26G22G18G 3
  23850745.462    -6026293.66549  -4673947.83745  23850745.432    23850754.845
  20483077.967   -11595269.68249  -9029082.43247  20483077.800    20483083.728
  21167565.916   -24063799.97649 -18729655.76247  21167565.629    21167573.631
  23518769.676    14586481.60049  11366383.88345  23518769.954    23518780.669
  24242584.972    -1522956.17049  -1180478.41745  24242585.057    24242593.605
  22805792.490   -11267543.78249  -8767683.71346  22805792.848    22805800.963
  21158431.310   -24303334.79949 -18565134.03147  21158431.463    21158436.821
  20329913.190   -23139004.11449 -18006318.04748  20329913.124    20329919.214
  22772766.170   -12452200.43449  -9684324.48246  22772766.252    22772774.695
 04  5 20 18 56  0.0000000  0  9G16G21G15G 6G29G26G22G18G 3
  23861364.413    -5970491.31049  -4630465.61645  23861364.411    23861373.741
  20486710.532   -11576180.55049  -9014207.80147  20486710.385    20486716.278
  21156164.419   -24123715.33149 -18776343.04047  21156164.122    21156172.106
  23539140.077    14693527.66649  11449796.19445  23539140.261    23539150.971
  24258800.696    -1437742.59549  -1114078.26945  24258800.761    24258809.184
  22820358.041   -11191001.37449  -8708040.27946  22820358.424    22820366.553
  21148933.071   -24353248.15049 -18604027.53247  21148933.248    21148938.624
  20331155.173   -23132477.42349 -18001232.32248  20331155.104    20331161.174
  22758551.264   -12526900.05249  -9742531.95546  22758551.373    22758559.859
 04  5 20 18 56 30.0000000  0  9G16G21G15G 6G29G26G22G18G 3
  23872048.996    -5914343.53649  -4586714.21945  23872049.094    23872058.345
  20490402.718   -11556778.36349  -8999089.22547  20490402.559    20490408.427
  21144800.272   -24183434.45349 -18822877.40447  21144799.970    21144807.953
  23559541.477    14800736.81449  11533335.58945  23559541.658    23559552.413
  24275076.918    -1352210.69549  -1047430.10145  24275077.023    24275085.437
  22835019.484   -11113955.00749  -8648004.18446  22835019.835    22835028.019
  21139504.844   -24402793.64449 -18642634.39047  21139505.025    21139510.403
  20332472.299   -23125555.92149 -17995838.95048  20332472.252    20332478.338
  22744409.648   -12601215.24449  -9800439.86546  22744409.673    22744418.153
 04  5 20 18 57  0.0000000  0  9G16G21G15G 6G29G26G22G18G 3
  23882798.836    -5857853.22549  -4542695.92245  23882798.922    23882808.078
  20494154.410   -11537063.10049  -8983726.70247  20494154.242    20494160.095
  21133473.613   -24242956.63949 -18869258.31947  21133473.281    21133481.273
  23579973.396    14908106.32149  11616999.94845  23579973.553    23579984.311
  24291413.251    -1266363.45249   -980536.18245  24291413.294    24291421.648
  22849776.348   -11036407.73049  -8587577.78146  22849776.638    22849784.734
  21130146.570   -24451971.63149 -18680954.87247  21130146.754    21130152.130
  20333864.357   -23118240.65849 -17990138.75348  20333864.319    20333870.411
  22730341.395   -12675144.41449  -9858046.98946  22730341.382    22730349.913
 04  5 20 18 57 30.0000000  0  9G16G21G15G 6G29G26G22G18G 3
  23893613.244    -5801023.12049  -4498412.82345  23893613.206    23893622.916
  20497965.791   -11517034.22149  -8968119.80147  20497965.634    20497971.481
  21122184.592   -24302280.78249 -18915484.90947  21122184.266    21122192.232
  23600435.488    15015633.93149  11700787.50445  23600435.588    23600446.256
  24307809.016    -1180203.23849   -913398.42045  24307809.174    24307817.446
  22864627.879   -10958362.42449  -8526763.29946  22864628.207    22864636.376
  21120858.246   -24500781.90949 -18718988.83547  21120858.444    21120863.825
  20335331.076   -23110533.13349 -17984132.90148  20335331.023    20335337.117
  22716347.096   -12748685.02349  -9915351.33846  22716347.090    22716355.546
 04  5 20 18 58  0.0000000  0  9G16G21G15G 6G29G26G22G18G 3
  23904492.071    -5743855.49549  -4453866.75945  23904492.024    23904501.643
  20501837.036   -11496690.79749  -8952267.79847  20501836.864    20501842.712
  21110933.659   -24361405.07849 -18961555.78347  21110933.325    21110941.249
  23620927.227    15123317.68349  11784696.72145  23620927.292    23620937.947
  24324263.954    -1093732.35649   -846018.57745  24324264.112    24324272.453
  22879573.834   -10879821.15549  -8465562.30346  22879574.171    22879582.317
  21111640.058   -24549223.80349 -18756735.74347  21111640.236    21111645.637
  20336872.297   -23102433.94549 -17977821.85548  20336872.236    20336878.327
  22702427.202   -12821834.17649  -9972350.66246  22702427.237    22702435.629
 04  5 20 18 58 30.0000000  0  9G16G21G15G 6G29G26G22G18G 3
  23915434.563    -5686353.21849  -4409059.92145  23915434.509    23915443.905
  20505768.185   -11476032.64849  -8936170.55647  20505767.992    20505773.857
  21099720.947   -24420328.48649 -19007470.11347  21099720.587    21099728.505
  23641448.169    15231155.09649  11868725.65245  23641448.166    23641458.965
  24340777.317    -1006953.27549   -778398.59445  24340777.580    24340786.117
  22894613.609   -10800787.00549  -8403977.26846  22894613.909    22894622.086
  21102492.015   -24597297.33049 -18794195.61047  21102492.169    21102497.550
  20338487.850   -23093944.33249 -17971206.58348  20338487.778    20338493.862
  22688582.286   -12894589.81549 -10029043.35146  22688582.331    22688590.658
 04  5 20 18 59  0.0000000  0  9G16G21G15G 6G29G26G22G18G 3
  23926440.332    -5628518.71249  -4363994.21545  23926440.220    23926449.475
  20509759.407   -11455058.68649  -8919827.22547  20509759.229    20509765.067
  21088546.681   -24479049.56049 -19053226.78247  21088546.303    21088554.210
  23661997.861    15339144.33049  11952872.90445  23661997.969    23662008.813
  24357348.998     -919868.32249   -710540.26845  24357349.209    24357357.892
  22909746.642   -10721262.63849  -8342010.27346  22909746.892    22909755.092
  21093414.092   -24645002.19549 -18831368.20547  21093414.233    21093419.580
  20340177.489   -23085065.23649 -17964287.81648  20340177.428    20340183.497
  22674812.762   -12966949.24249 -10085427.30646  22674812.804    22674821.110
 04  5 20 18 59 30.0000000  0  9G16G21G15G 6G29G26G22G18G 3
  23937508.665    -5570354.75949  -4318671.75745  23937508.547    23937517.929
  20513810.752   -11433768.79149  -8903237.71547  20513810.565    20513816.421
  21077411.116   -24537567.33249 -19098825.03247  21077410.752    21077418.648
  23682576.061    15447282.95549  12037136.55745  23682576.193    23682587.057
  24373978.431     -832480.13549   -642445.65345  24373978.586    24373987.355
  22924972.343   -10641250.89849  -8279663.50346  22924972.662    22924980.825
  21084406.289   -24692338.39949 -18868253.53647  21084406.439    21084411.778
  20341941.105   -23075797.48949 -17957066.20348  20341941.017    20341947.108
  22661118.948   -13038910.34249 -10141500.87146  22661118.984    22661127.338
 04  5 20 19  0  0.0000000  0  9G16G21G15G 6G29G26G22G18G 3
  23948639.099    -5511864.30349  -4273094.89945  23948638.932    23948648.222
  20517922.219   -11412163.03849  -8886402.07847  20517922.028    20517927.861
  21066314.421   -24595880.89649 -19144264.15847  21066314.034    21066321.913
  23703182.354    15555568.33649  12121514.58945  23703182.398    23703193.235
  24390664.957     -744791.50449   -574116.89945  24390665.114    24390673.729
  22940290.245   -10560754.86749  -8216939.36346  22940290.557    22940298.735
  21075468.605   -24739306.14149 -18904851.75047  21075468.757    21075474.096
  20343778.393   -23066142.53949 -17949542.87348  20343778.325    20343784.409
  22647501.422   -13110471.22149 -10197262.57546  22647501.411    22647509.785
 04  5 20 19  0 30.0000000  0  9G16G21G15G 6G29G26G22G18G 3
  23959830.897    -5453050.66949  -4227266.20945  23959830.804    23959840.275
  20522093.840   -11390241.08449  -8869320.05347  20522093.650    20522099.481
  21055256.718   -24653989.41749 -19189543.51147  21055256.389    21055264.218
  23723815.884    15663997.91849  12206004.94345  23723815.923    23723827.028
  24407408.123     -656805.37849   -505556.34545  24407408.283    24407416.808
  22955699.751   -10479777.73749  -8153840.34246  22955699.990    22955708.134
  21066600.988   -24785905.72449 -18941163.08747  21066601.136    21066606.453
  20345689.051   -23056101.96449 -17941719.06348  20345688.953    20345695.057
  22633960.372   -13181629.74149 -10252710.75046  22633960.355    22633968.740
 04  5 20 19  1  0.0000000  0  9G16G21G15G 6G29G26G22G18G 3
  23971084.286    -5393914.13649  -4181185.89945  23971084.233    23971093.877
  20526326.232   -11367999.96549  -8851989.33047  20526326.030    20526331.856
  21044238.689   -24711889.47049 -19234660.42247  21044238.367    21044246.190
  23744476.726    15772571.45149  12290607.49745  23744476.900    23744488.052
  24424207.982     -568521.93849   -436764.10745  24424208.142    24424216.812
  22971200.631   -10398320.14449  -8090366.94446  22971200.889    22971208.963
  21057803.886   -24832134.85049 -18977185.75747  21057804.006    21057809.293
  20347673.339   -23045674.57849 -17933593.83648  20347673.229    20347679.320
  22620496.844   -13252381.44249 -10307841.92446  22620496.776    22620505.160
 04  5 20 19  1 30.0000000  0  9G16G21G15G 6G29G26G22G18G 3
  23982397.997    -5334461.33049  -4134859.15145  23982397.871    23982407.548
  20530618.654   -11345443.24349  -8834412.68247  20530618.439    20530624.295
  21033259.878   -24769583.56749 -19279616.85047  21033259.518    21033267.370
  23765164.075    15881282.99349  12375317.59145  23765164.090    23765175.288
  24441063.142     -479947.62749   -367745.22045  24441063.164    24441071.958
  22986791.775   -10316388.65749  -8026524.27745  22986792.035    22986800.063
  21049076.597   -24877997.02749 -19012922.49647  21049076.728    21049081.980
  20349730.351   -23034865.26849 -17925171.00848  20349730.225    20349736.272
  22607110.348   -13322727.77849 -10362657.23946  22607110.353    22607118.653
 04  5 20 19  2  0.0000000  0  9G16G21G15G 6G29G26G22G18G 3
  23993771.690    -5274692.97249  -4088286.53645  23993771.557    23993781.134
  20534971.576   -11322568.52049  -8816588.23747  20534971.345    20534977.239
  21022320.840   -24827068.53649 -19324410.32147  21022320.461    21022328.333
  23785877.364    15990132.26649  12460134.94745  23785877.489    23785888.859
  24457973.647     -391082.70149   -298499.88745  24457973.618    24457982.554
  23002472.822   -10233984.12049  -7962312.99145  23002473.169    23002481.206
  21040419.477   -24923490.31549 -19048371.78947  21040419.591    21040424.851
  20351860.184   -23023672.86849 -17916449.67048  20351860.060    20351866.105
  22593801.825   -13392664.44349 -10417153.33346  22593801.876    22593810.075
 04  5 20 19  2 30.0000000  0  9G16G21G15G 6G29G26G22G18G 3
  24005204.968    -5214611.65949  -4041470.02445  24005204.813    24005214.409
  20539385.184   -11299375.03049  -8798515.40447  20539384.960    20539390.853
  21011421.892   -24884342.93849 -19369039.71847  21011421.515    21011429.368
  23806616.628    16099117.14049  12545058.02845  23806616.752    23806628.122
  24474938.887     -301929.65249   -229030.08745  24474938.922    24474947.716
  23018243.449   -10151109.13549  -7897735.13945  23018243.801    23018251.883
  21031832.625   -24968614.56749 -19083533.52247  21031832.735    21031837.993
  20354062.705   -23012098.54449 -17907430.72848  20354062.586    20354068.649
  22580571.792   -13462189.04949 -10471328.33546  22580571.795    22580579.968
 04  5 20 19  3  0.0000000  0 10G16G21G15G 6G29G26G22G14G18G 3
  24016696.528    -5154223.44749  -3994414.40145  24016696.387    24016706.013
  20543858.890   -11275865.65749  -8780196.43147  20543858.672    20543864.551
  21000562.604   -24941408.82149 -19413506.63047  21000562.213    21000570.056
  23827380.373    16208231.93249  12630082.29945  23827380.557    23827392.398
  24491957.847     -212494.37949   -159340.33545  24491957.791    24491966.675
  23034102.381   -10067770.08649  -7832795.67045  23034102.711    23034110.838
  21023315.346   -25013373.11049 -19118410.28747  21023315.432    21023320.662
  24662650.298    -1954681.13849  -1089511.88745  24662650.283    24662661.954
  20356336.997   -23000147.06149 -17898117.89748  20356336.881    20356342.954
  22567419.851   -13531302.74249 -10525183.14746  22567419.840    22567428.071
 04  5 20 19  3 30.0000000  0 10G16G21G15G 6G29G26G22G14G18G 3
  24028246.851    -5093526.33149  -3947118.04945  24028246.671    24028256.282
  20548393.697   -11252035.09349  -8761627.18047  20548393.473    20548399.352
  20989744.105   -24998260.31149 -19457806.48247  20989743.733    20989751.583
  23848169.494    16317479.19349  12715209.81545  23848169.795    23848181.647
  24509030.848     -122774.59649    -89428.91345  24509030.931    24509039.914
  23050050.093    -9983964.89249  -7767492.97445  23050050.413    23050058.519
  21014868.625   -25057761.06149 -19152998.27847  21014868.719    21014873.909
  24640743.601    -2069801.46449  -1179215.86945  24640743.250    24640755.340
  20358683.845   -22987814.34849 -17888508.00348  20358683.727    20358689.802
  22554347.476   -13599998.45449 -10578712.25546  22554347.450    22554355.711
 04  5 20 19  4  0.0000000  0 10G16G21G15G 6G29G26G22G14G18G 3
  24039855.025    -5032525.34149  -3899584.92845  24039854.994    24039864.607
  20552989.273   -11227885.32749  -8742809.20147  20552989.022    20552994.919
  20978966.252   -25054898.19149 -19501939.88847  20978965.904    20978973.732
  23868983.170    16426854.36049  12800437.01045  23868983.406    23868995.328
  24526157.312      -32775.09149    -19299.50445  24526157.215    24526166.405
  23066085.454    -9899698.81749  -7701831.15645  23066085.801    23066093.915
  21006491.977   -25101780.56349 -19187299.16647  21006492.068    21006497.265
  24618838.482    -2184912.00349  -1268912.22045  24618838.232    24618850.462
  20361102.637   -22975103.70649 -17878603.61648  20361102.512    20361108.586
  22541354.589   -13668276.03749 -10631915.54646  22541354.595    22541362.952
 04  5 20 19  4 30.0000000  0 10G16G21G15G 6G29G26G22G14G18G 3
  24051520.767    -4971222.49849  -3851816.60045  24051520.649    24051530.324
  20557645.878   -11203414.95049  -8723741.39947  20557645.638    20557651.498
  20968229.419   -25111320.57649 -19545905.37347  20968229.067    20968236.926
  23889820.961    16536356.13749  12885762.83345  23889821.161    23889832.990
  24543336.790       57502.69649     51046.75745  24543336.731    24543345.878
  23082208.038    -9814973.92149  -7635811.81145  23082208.389    23082216.620
  20998185.612   -25145430.70649 -19221312.24347  20998185.709    20998190.910
  24596935.975    -2300009.29649  -1358598.24145  24596935.865    24596947.963
  20363593.268   -22962015.50349 -17868405.02848  20363593.128    20363599.169
  22528441.974   -13736132.31749 -10684790.56346  22528441.954    22528450.342
